Darstellungsparameter: Aktuell verwendete Einstellungen:
Skalierung der Graphiken ... ?
xyx+y,   Skalierungsfaktor:      Skalierung: Modus: x, Faktor: 1
Darstellungszeitraum ... ?
Vom - - bis: - -   Zeitraum: 15.08.2019 - 14.08.2020
Min/Max/Avg-Anzeige ... ?
Zeige MMA aktuell
Zeige MMA Monat
Zeige MMA alles
Zeige --A aktuell
Zeige --A Monat
Zeige --A alles
Keine MMA-Anzeige
MMA:
Average (ber die Originaldaten)
MMA-Basis: 23.02.2003 - 03.08.2020
Quicknavigation für Darstellung... ?
Tage:      1T, 2T, 3T, 5T -1T -2T -3T -5T +1T +2T +3T +5T
Wochen: 1W, 2W, 3W -1W -2W -3W +1W +2W +3W
Monate: 1M, 3M, 6M -1M -3M -6M +1M +3M +6M
Jahre:    1J, 3J, 5J, 10J -1J -3J -5J -10J +1J +3J +5J +10J
Nutze für die Darstellung ... ?
Originaldaten oder ...
Mittelwerte Minima Maxima auf...
Stundenbasis Tagesbasis Wochenbasis
Monatsbasis Jahresbasis      Datenbasis: Mittelwerte auf Stundenbasis
Darstellen als:
Statistik (Auto) Statistik J:M      Darstellung:
Zur Graphik,    zurück zur Übersicht aller Sensoren.
 
Tabellarische Datenbersicht: ?
 
Sensor: Nr:Datum:Temp:Abs-Feuchte:Windchill:Wind:
Aussen-T/F 1 15-08-2019 00:00:00 17.35833 C 11.32 g/m*3 17.36 C 0.26667 km/h
2 15-08-2019 01:00:00 17.38333 C 11.47 g/m*3 17.38 C 0.13333 km/h
3 15-08-2019 02:00:00 16.2 C 12.19 g/m*3 16.2 C 0.66667 km/h
4 15-08-2019 03:00:00 15.275 C 12.05 g/m*3 15.28 C 0 km/h
5 15-08-2019 04:00:00 14.90833 C 11.94 g/m*3 14.91 C 0.13333 km/h
6 15-08-2019 05:00:00 14.84167 C 11.96 g/m*3 14.84 C 0 km/h
7 15-08-2019 06:00:00 14.96667 C 12.14 g/m*3 14.97 C 0.4 km/h
8 15-08-2019 07:00:00 15.6 C 12.28 g/m*3 15.6 C 3.35833 km/h
9 15-08-2019 08:00:00 17.59167 C 12.58 g/m*3 17.59 C 11.025 km/h
10 15-08-2019 09:00:00 18.48333 C 12.88 g/m*3 18.48 C 11.025 km/h
11 15-08-2019 10:00:00 19.14167 C 13.31 g/m*3 19.14 C 12.76667 km/h
12 15-08-2019 11:00:00 19.28333 C 13.52 g/m*3 19.28 C 12.49167 km/h
13 15-08-2019 12:00:00 19.90833 C 13.69 g/m*3 19.91 C 12.89167 km/h
14 15-08-2019 13:00:00 18.94167 C 14.4 g/m*3 18.94 C 8.73333 km/h
15 15-08-2019 14:00:00 19.73333 C 14.63 g/m*3 19.73 C 10.20833 km/h
16 15-08-2019 15:00:00 20.79167 C 14.72 g/m*3 20.79 C 12.88333 km/h
17 15-08-2019 16:00:00 19.325 C 14.88 g/m*3 19.33 C 11.95833 km/h
18 15-08-2019 17:00:00 17.3 C 13.69 g/m*3 17.3 C 4.41667 km/h
19 15-08-2019 18:00:00 16.975 C 13.61 g/m*3 16.98 C 2.66667 km/h
20 15-08-2019 19:00:00 17.25 C 13.89 g/m*3 17.25 C 1.2 km/h
21 15-08-2019 20:00:00 17.09167 C 13.76 g/m*3 17.09 C 1.33333 km/h
22 15-08-2019 21:00:00 16.40833 C 13.23 g/m*3 16.41 C 2.54167 km/h
23 15-08-2019 22:00:00 15.93333 C 12.83 g/m*3 15.93 C 1.46667 km/h
24 15-08-2019 23:00:00 15.54167 C 12.59 g/m*3 15.54 C 1.06667 km/h
25 16-08-2019 00:00:00 15.29167 C 12.41 g/m*3 15.29 C 0.53333 km/h
Sensor: Nr:Datum:Temp:Abs-Feuchte:Windchill:Wind:
Aussen-T/F 26 16-08-2019 01:00:00 14.63333 C 11.94 g/m*3 14.63 C 0.13333 km/h
27 16-08-2019 02:00:00 14.575 C 11.99 g/m*3 14.58 C 0.8 km/h
28 16-08-2019 03:00:00 14.64167 C 12.04 g/m*3 14.64 C 0.4 km/h
29 16-08-2019 04:00:00 14.08333 C 11.64 g/m*3 14.08 C 0 km/h
30 16-08-2019 05:00:00 13.575 C 11.31 g/m*3 13.58 C 0.66667 km/h
31 16-08-2019 06:00:00 13.69167 C 11.48 g/m*3 13.69 C 2.26667 km/h
32 16-08-2019 07:00:00 14.18333 C 11.78 g/m*3 14.18 C 2.54167 km/h
33 16-08-2019 08:00:00 14.45833 C 11.8 g/m*3 14.46 C 5.1 km/h
34 16-08-2019 09:00:00 15.54167 C 11.89 g/m*3 15.54 C 9.29167 km/h
35 16-08-2019 10:00:00 16.26667 C 11.87 g/m*3 16.27 C 12.36667 km/h
36 16-08-2019 11:00:00 17.1 C 12 g/m*3 17.1 C 11.56667 km/h
37 16-08-2019 12:00:00 18.43333 C 12.04 g/m*3 18.43 C 12.9 km/h
38 16-08-2019 13:00:00 19.65 C 11.98 g/m*3 19.65 C 16.5 km/h
39 16-08-2019 14:00:00 20.4 C 11.97 g/m*3 20.4 C 12.76667 km/h
40 16-08-2019 15:00:00 21.90833 C 11.78 g/m*3 21.91 C 10.9 km/h
41 16-08-2019 16:00:00 23.63333 C 11.61 g/m*3 23.63 C 11.03333 km/h
42 16-08-2019 17:00:00 24.475 C 11.58 g/m*3 24.48 C 11.41667 km/h
43 16-08-2019 18:00:00 24.43333 C 11.61 g/m*3 24.43 C 9.94167 km/h
44 16-08-2019 19:00:00 23.41667 C 12.24 g/m*3 23.42 C 6.325 km/h
45 16-08-2019 20:00:00 20.075 C 12.43 g/m*3 20.08 C 0.13333 km/h
46 16-08-2019 21:00:00 17.75833 C 12.16 g/m*3 17.76 C 0 km/h
47 16-08-2019 22:00:00 16.88333 C 12.19 g/m*3 16.88 C 0 km/h
48 16-08-2019 23:00:00 16.23333 C 11.96 g/m*3 16.23 C 0 km/h
49 17-08-2019 00:00:00 15.69167 C 11.75 g/m*3 15.69 C 0 km/h
50 17-08-2019 01:00:00 15.86667 C 11.93 g/m*3 15.87 C 0 km/h
Sensor: Nr:Datum:Temp:Abs-Feuchte:Windchill:Wind:
Aussen-T/F 51 17-08-2019 02:00:00 15.76667 C 11.91 g/m*3 15.77 C 0 km/h
52 17-08-2019 03:00:00 15.76667 C 12.24 g/m*3 15.77 C 0 km/h
53 17-08-2019 04:00:00 15.69167 C 12.47 g/m*3 15.69 C 0 km/h
54 17-08-2019 05:00:00 15.63333 C 12.53 g/m*3 15.63 C 0 km/h
55 17-08-2019 06:00:00 15.65833 C 12.55 g/m*3 15.66 C 0 km/h
56 17-08-2019 07:00:00 16.13333 C 12.91 g/m*3 16.13 C 0.26667 km/h
57 17-08-2019 08:00:00 16.95833 C 13.1 g/m*3 16.96 C 3.075 km/h
58 17-08-2019 09:00:00 18.66667 C 12.81 g/m*3 18.67 C 7.76667 km/h
59 17-08-2019 10:00:00 19.01667 C 13.23 g/m*3 19.02 C 2.13333 km/h
60 17-08-2019 11:00:00 18.59167 C 13.81 g/m*3 18.59 C 1.60833 km/h
61 17-08-2019 12:00:00 19.275 C 14.11 g/m*3 19.27 C 2.14167 km/h
62 17-08-2019 13:00:00 20.68333 C 13.73 g/m*3 20.68 C 12.625 km/h
63 17-08-2019 14:00:00 21 C 13.72 g/m*3 21 C 10.35 km/h
64 17-08-2019 15:00:00 21.31667 C 13.96 g/m*3 21.32 C 8.34167 km/h
65 17-08-2019 16:00:00 21 C 13.91 g/m*3 21 C 8.85833 km/h
66 17-08-2019 17:00:00 20.44167 C 13.82 g/m*3 20.44 C 4.55833 km/h
67 17-08-2019 18:00:00 19.975 C 14.34 g/m*3 19.98 C 0.93333 km/h
68 17-08-2019 19:00:00 19.125 C 14.49 g/m*3 19.13 C 0.4 km/h
69 17-08-2019 20:00:00 18.325 C 14.26 g/m*3 18.33 C 0.13333 km/h
70 17-08-2019 21:00:00 17.84167 C 14.1 g/m*3 17.84 C 0.26667 km/h
71 17-08-2019 22:00:00 17.74167 C 14.22 g/m*3 17.74 C 0.4 km/h
72 17-08-2019 23:00:00 17.525 C 14.13 g/m*3 17.52 C 0.13333 km/h
73 18-08-2019 00:00:00 17.4 C 14.08 g/m*3 17.4 C 0 km/h
74 18-08-2019 01:00:00 17.38333 C 14.15 g/m*3 17.38 C 0 km/h
75 18-08-2019 02:00:00 17.225 C 14.08 g/m*3 17.23 C 0 km/h
Sensor: Nr:Datum:Temp:Abs-Feuchte:Windchill:Wind:
Aussen-T/F 76 18-08-2019 03:00:00 17.2 C 14.06 g/m*3 17.2 C 0 km/h
77 18-08-2019 04:00:00 17.18333 C 14.04 g/m*3 17.18 C 0 km/h
78 18-08-2019 05:00:00 17.3 C 14.25 g/m*3 17.3 C 0 km/h
79 18-08-2019 06:00:00 17.26667 C 14.26 g/m*3 17.27 C 0 km/h
80 18-08-2019 07:00:00 17.34167 C 14.33 g/m*3 17.34 C 0 km/h
81 18-08-2019 08:00:00 17.93333 C 14.84 g/m*3 17.93 C 0 km/h
82 18-08-2019 09:00:00 18.85833 C 15.72 g/m*3 18.86 C 0 km/h
83 18-08-2019 10:00:00 19.93333 C 16.77 g/m*3 19.93 C 1.33333 km/h
84 18-08-2019 11:00:00 22.19167 C 18.07 g/m*3 22.19 C 9.00833 km/h
85 18-08-2019 12:00:00 24.075 C 16.99 g/m*3 24.08 C 17.03333 km/h
86 18-08-2019 13:00:00 24.4 C 16.88 g/m*3 24.4 C 15.98333 km/h
87 18-08-2019 14:00:00 24.725 C 16.96 g/m*3 24.73 C 17.84167 km/h
88 18-08-2019 15:00:00 24.7 C 17.16 g/m*3 24.7 C 15.03333 km/h
89 18-08-2019 16:00:00 24.99167 C 16.74 g/m*3 24.99 C 14.9 km/h
90 18-08-2019 17:00:00 24.35 C 16.14 g/m*3 24.35 C 15.83333 km/h
91 18-08-2019 18:00:00 20.49167 C 16.3 g/m*3 20.49 C 1.33333 km/h
92 18-08-2019 19:00:00 20.00833 C 16.22 g/m*3 20.01 C 1.2 km/h
93 18-08-2019 20:00:00 19.45833 C 15.85 g/m*3 19.46 C 1.86667 km/h
94 18-08-2019 21:00:00 18.8 C 15.19 g/m*3 18.8 C 0.93333 km/h
95 18-08-2019 22:00:00 17.65 C 14.22 g/m*3 17.65 C 0.8 km/h
96 18-08-2019 23:00:00 16.59167 C 13.41 g/m*3 16.59 C 1.06667 km/h
97 19-08-2019 00:00:00 16.14167 C 13.19 g/m*3 16.14 C 0.53333 km/h
98 19-08-2019 01:00:00 16.10833 C 13.17 g/m*3 16.11 C 0.93333 km/h
99 19-08-2019 02:00:00 15.81667 C 12.94 g/m*3 15.82 C 0.26667 km/h
100 19-08-2019 03:00:00 15.38333 C 12.61 g/m*3 15.38 C 0 km/h
Sensor: Nr:Datum:Temp:Abs-Feuchte:Windchill:Wind:
Aussen-T/F 101 19-08-2019 04:00:00 14.78333 C 12.17 g/m*3 14.78 C 0 km/h
102 19-08-2019 05:00:00 15.125 C 12.53 g/m*3 15.13 C 0.13333 km/h
103 19-08-2019 06:00:00 14.61667 C 12.13 g/m*3 14.62 C 0 km/h
104 19-08-2019 07:00:00 15.025 C 12.48 g/m*3 15.03 C 2 km/h
105 19-08-2019 08:00:00 15.65833 C 12.95 g/m*3 15.66 C 0.93333 km/h
106 19-08-2019 09:00:00 15.89167 C 13.07 g/m*3 15.89 C 6.03333 km/h
107 19-08-2019 10:00:00 16.63333 C 12.41 g/m*3 16.63 C 7.79167 km/h
108 19-08-2019 11:00:00 18.55833 C 11.87 g/m*3 18.56 C 10.36667 km/h
109 19-08-2019 12:00:00 20.275 C 11.33 g/m*3 20.27 C 11.95833 km/h
110 19-08-2019 13:00:00 21.525 C 11.02 g/m*3 21.53 C 11.69167 km/h
111 19-08-2019 14:00:00 22.79167 C 10.93 g/m*3 22.79 C 13.7 km/h
112 19-08-2019 15:00:00 23.46667 C 10.69 g/m*3 23.47 C 13.55833 km/h
113 19-08-2019 16:00:00 23.78333 C 10.89 g/m*3 23.78 C 11.425 km/h
114 19-08-2019 17:00:00 24.025 C 10.55 g/m*3 24.03 C 11.68333 km/h
115 19-08-2019 18:00:00 23.51667 C 10.69 g/m*3 23.52 C 7.65 km/h
116 19-08-2019 19:00:00 22.95833 C 11.55 g/m*3 22.96 C 4.7 km/h
117 19-08-2019 20:00:00 19.71667 C 11.84 g/m*3 19.72 C 0.8 km/h
118 19-08-2019 21:00:00 17.30833 C 11.03 g/m*3 17.31 C 0 km/h
119 19-08-2019 22:00:00 16.51667 C 11.29 g/m*3 16.52 C 0 km/h
120 19-08-2019 23:00:00 15.21667 C 10.86 g/m*3 15.22 C 0.13333 km/h
121 20-08-2019 00:00:00 13.975 C 10.43 g/m*3 13.98 C 0 km/h
122 20-08-2019 01:00:00 13.21667 C 10.16 g/m*3 13.22 C 0.53333 km/h
123 20-08-2019 02:00:00 12.825 C 10.09 g/m*3 12.83 C 2.13333 km/h
124 20-08-2019 03:00:00 12.21667 C 9.79 g/m*3 12.22 C 0 km/h
125 20-08-2019 04:00:00 11.34167 C 9.46 g/m*3 11.34 C 0.4 km/h
Sensor: Nr:Datum:Temp:Abs-Feuchte:Windchill:Wind:
Aussen-T/F 126 20-08-2019 05:00:00 10.9 C 9.32 g/m*3 10.9 C 0.13333 km/h
127 20-08-2019 06:00:00 10.425 C 9.12 g/m*3 10.43 C 0.26667 km/h
128 20-08-2019 07:00:00 10.78333 C 9.41 g/m*3 10.78 C 0 km/h
129 20-08-2019 08:00:00 11.425 C 9.83 g/m*3 11.43 C 0.93333 km/h
130 20-08-2019 09:00:00 12.61667 C 10.53 g/m*3 12.62 C 1.06667 km/h
131 20-08-2019 10:00:00 15.26667 C 11.21 g/m*3 15.27 C 0.66667 km/h
132 20-08-2019 11:00:00 17.375 C 10.89 g/m*3 17.38 C 2.13333 km/h
133 20-08-2019 12:00:00 18.625 C 10.65 g/m*3 18.63 C 1.46667 km/h
134 20-08-2019 13:00:00 19.525 C 10.45 g/m*3 19.52 C 3.875 km/h
135 20-08-2019 14:00:00 20.43333 C 10.16 g/m*3 20.43 C 4.54167 km/h
136 20-08-2019 15:00:00 21.10833 C 10.37 g/m*3 21.11 C 5.08333 km/h
137 20-08-2019 16:00:00 21.41667 C 11.04 g/m*3 21.42 C 2.13333 km/h
138 20-08-2019 17:00:00 20.68333 C 11.59 g/m*3 20.68 C 2.40833 km/h
139 20-08-2019 18:00:00 20.375 C 13.06 g/m*3 20.38 C 0.26667 km/h
140 20-08-2019 19:00:00 18.88333 C 12.11 g/m*3 18.88 C 0.13333 km/h
141 20-08-2019 20:00:00 17.58333 C 11.35 g/m*3 17.58 C 0.8 km/h
142 20-08-2019 21:00:00 16.76667 C 11.4 g/m*3 16.77 C 0.26667 km/h
143 20-08-2019 22:00:00 15.925 C 11.36 g/m*3 15.93 C 0.4 km/h
144 20-08-2019 23:00:00 15.175 C 11.02 g/m*3 15.18 C 0.26667 km/h
145 21-08-2019 00:00:00 14.11667 C 10.59 g/m*3 14.12 C 0 km/h
146 21-08-2019 01:00:00 13.55833 C 10.42 g/m*3 13.56 C 0 km/h
147 21-08-2019 02:00:00 12.65833 C 10.08 g/m*3 12.66 C 0.13333 km/h
148 21-08-2019 03:00:00 11.99167 C 9.85 g/m*3 11.99 C 0.13333 km/h
149 21-08-2019 04:00:00 11.30833 C 9.54 g/m*3 11.31 C 0.13333 km/h
150 21-08-2019 05:00:00 10.73333 C 9.25 g/m*3 10.73 C 0 km/h
Sensor: Nr:Datum:Temp:Abs-Feuchte:Windchill:Wind:
Aussen-T/F 151 21-08-2019 06:00:00 10.325 C 9.1 g/m*3 10.33 C 0 km/h
152 21-08-2019 07:00:00 10.35833 C 9.16 g/m*3 10.36 C 0.26667 km/h
153 21-08-2019 08:00:00 10.85833 C 9.52 g/m*3 10.86 C 0.13333 km/h
154 21-08-2019 09:00:00 11.86667 C 10.15 g/m*3 11.87 C 0.66667 km/h
155 21-08-2019 10:00:00 13.33333 C 11.14 g/m*3 13.33 C 0 km/h
156 21-08-2019 11:00:00 15.80833 C 12.13 g/m*3 15.81 C 0.93333 km/h
157 21-08-2019 12:00:00 18.54167 C 11.58 g/m*3 18.54 C 1.46667 km/h
158 21-08-2019 13:00:00 20.375 C 10.25 g/m*3 20.38 C 5.38333 km/h
159 21-08-2019 14:00:00 21.79167 C 10.04 g/m*3 21.79 C 6.575 km/h
160 21-08-2019 15:00:00 22.95833 C 10.3 g/m*3 22.96 C 2.13333 km/h
161 21-08-2019 16:00:00 24.475 C 9.39 g/m*3 24.48 C 7.23333 km/h
162 21-08-2019 17:00:00 24.65 C 9.4 g/m*3 24.65 C 4.28333 km/h
163 21-08-2019 18:00:00 24.64167 C 10 g/m*3 24.64 C 4.94167 km/h
164 21-08-2019 19:00:00 23.46667 C 11.61 g/m*3 23.47 C 1.6 km/h
165 21-08-2019 20:00:00 19.875 C 11.09 g/m*3 19.88 C 0 km/h
166 21-08-2019 21:00:00 17.49167 C 9.97 g/m*3 17.49 C 0.4 km/h
167 21-08-2019 22:00:00 16.29167 C 9.59 g/m*3 16.29 C 0 km/h
168 21-08-2019 23:00:00 15.05833 C 9.99 g/m*3 15.06 C 0 km/h
169 22-08-2019 00:00:00 13.475 C 9.75 g/m*3 13.48 C 0 km/h
170 22-08-2019 01:00:00 12.41667 C 9.41 g/m*3 12.42 C 0 km/h
171 22-08-2019 02:00:00 11.66667 C 9.25 g/m*3 11.67 C 0 km/h
172 22-08-2019 03:00:00 11.125 C 9.12 g/m*3 11.13 C 0 km/h
173 22-08-2019 04:00:00 10.55833 C 8.92 g/m*3 10.56 C 0 km/h
174 22-08-2019 05:00:00 9.99167 C 8.7 g/m*3 9.99 C 0 km/h
175 22-08-2019 06:00:00 9.71667 C 8.65 g/m*3 9.72 C 0 km/h
Sensor: Nr:Datum:Temp:Abs-Feuchte:Windchill:Wind:
Aussen-T/F 176 22-08-2019 07:00:00 9.7 C 8.73 g/m*3 9.7 C 0 km/h
177 22-08-2019 08:00:00 10.30833 C 9.13 g/m*3 10.31 C 0 km/h
178 22-08-2019 09:00:00 11.525 C 9.93 g/m*3 11.53 C 0 km/h
179 22-08-2019 10:00:00 13.51667 C 11.07 g/m*3 13.52 C 0 km/h
180 22-08-2019 11:00:00 16.925 C 11.87 g/m*3 16.93 C 0 km/h
181 22-08-2019 12:00:00 20.11667 C 11.46 g/m*3 20.12 C 3.46667 km/h
182 22-08-2019 13:00:00 22.71667 C 10.89 g/m*3 22.72 C 5.09167 km/h
183 22-08-2019 14:00:00 24.08333 C 10.49 g/m*3 24.08 C 6.71667 km/h
184 22-08-2019 15:00:00 25.89167 C 9.9 g/m*3 25.89 C 6.84167 km/h
185 22-08-2019 16:00:00 27.33333 C 9.76 g/m*3 27.33 C 6.16667 km/h
186 22-08-2019 17:00:00 28.01667 C 9.41 g/m*3 28.02 C 6.16667 km/h
187 22-08-2019 18:00:00 28.38333 C 9.67 g/m*3 28.38 C 3.46667 km/h
188 22-08-2019 19:00:00 26.06667 C 11.97 g/m*3 26.07 C 0.26667 km/h
189 22-08-2019 20:00:00 21.49167 C 11.04 g/m*3 21.49 C 0.26667 km/h
190 22-08-2019 21:00:00 18.25 C 10.74 g/m*3 18.25 C 0 km/h
191 22-08-2019 22:00:00 16.40833 C 10.6 g/m*3 16.41 C 0 km/h
192 22-08-2019 23:00:00 14.90833 C 10.12 g/m*3 14.91 C 0 km/h
193 23-08-2019 00:00:00 13.94167 C 9.97 g/m*3 13.94 C 0 km/h
194 23-08-2019 01:00:00 13.26667 C 9.81 g/m*3 13.27 C 0 km/h
195 23-08-2019 02:00:00 12.775 C 9.72 g/m*3 12.78 C 0 km/h
196 23-08-2019 03:00:00 11.975 C 9.49 g/m*3 11.98 C 0 km/h
197 23-08-2019 04:00:00 11.56667 C 9.45 g/m*3 11.57 C 0 km/h
198 23-08-2019 05:00:00 11.06667 C 9.24 g/m*3 11.07 C 0 km/h
199 23-08-2019 06:00:00 10.66667 C 9.14 g/m*3 10.67 C 0 km/h
200 23-08-2019 07:00:00 10.7 C 9.25 g/m*3 10.7 C 0 km/h
Sensor: Nr:Datum:Temp:Abs-Feuchte:Windchill:Wind:
Aussen-T/F 201 23-08-2019 08:00:00 11.3 C 9.68 g/m*3 11.3 C 0 km/h
202 23-08-2019 09:00:00 12.35 C 10.35 g/m*3 12.35 C 0 km/h
203 23-08-2019 10:00:00 14.34167 C 11.59 g/m*3 14.34 C 0 km/h
204 23-08-2019 11:00:00 17.6 C 12.75 g/m*3 17.6 C 0 km/h
205 23-08-2019 12:00:00 21.16667 C 12.76 g/m*3 21.17 C 1.46667 km/h
206 23-08-2019 13:00:00 24.1 C 11.12 g/m*3 24.1 C 3.86667 km/h
207 23-08-2019 14:00:00 26.13333 C 10.36 g/m*3 26.13 C 7.925 km/h
208 23-08-2019 15:00:00 27.85833 C 10.32 g/m*3 27.86 C 6.84167 km/h
209 23-08-2019 16:00:00 29.15 C 10.11 g/m*3 29.15 C 9.28333 km/h
210 23-08-2019 17:00:00 29.375 C 9.97 g/m*3 29.38 C 12.5 km/h
211 23-08-2019 18:00:00 28.94167 C 9.47 g/m*3 28.94 C 12.36667 km/h
212 23-08-2019 19:00:00 27.20833 C 12.06 g/m*3 27.21 C 1.875 km/h
213 23-08-2019 20:00:00 23.01667 C 11.42 g/m*3 23.02 C 0.66667 km/h
214 23-08-2019 21:00:00 20.16667 C 11.34 g/m*3 20.17 C 0 km/h
215 23-08-2019 22:00:00 17.85 C 11.09 g/m*3 17.85 C 0 km/h
216 23-08-2019 23:00:00 16.23333 C 10.61 g/m*3 16.23 C 0 km/h
217 24-08-2019 00:00:00 14.96667 C 10.33 g/m*3 14.97 C 0 km/h
218 24-08-2019 01:00:00 14.05833 C 10.23 g/m*3 14.06 C 0 km/h
219 24-08-2019 02:00:00 13.425 C 10.07 g/m*3 13.43 C 0 km/h
220 24-08-2019 03:00:00 12.7 C 9.88 g/m*3 12.7 C 0 km/h
221 24-08-2019 04:00:00 12.06667 C 9.67 g/m*3 12.07 C 0 km/h
222 24-08-2019 05:00:00 11.66667 C 9.58 g/m*3 11.67 C 0 km/h
223 24-08-2019 06:00:00 11.425 C 9.54 g/m*3 11.43 C 0 km/h
224 24-08-2019 07:00:00 11.575 C 9.75 g/m*3 11.58 C 0 km/h
225 24-08-2019 08:00:00 12.06667 C 10.08 g/m*3 12.07 C 0 km/h
Sensor: Nr:Datum:Temp:Abs-Feuchte:Windchill:Wind:
Aussen-T/F 226 24-08-2019 09:00:00 13.23333 C 10.82 g/m*3 13.23 C 0 km/h
227 24-08-2019 10:00:00 15.5 C 12.09 g/m*3 15.5 C 0.4 km/h
228 24-08-2019 11:00:00 18.88333 C 12.89 g/m*3 18.88 C 0.66667 km/h
229 24-08-2019 12:00:00 22.24167 C 13.01 g/m*3 22.24 C 2.66667 km/h
230 24-08-2019 13:00:00 25.4 C 12.28 g/m*3 25.4 C 7.78333 km/h
231 24-08-2019 14:00:00 27.05 C 11.27 g/m*3 27.05 C 8.58333 km/h
232 24-08-2019 15:00:00 28.69167 C 10.64 g/m*3 28.69 C 8.875 km/h
233 24-08-2019 16:00:00 29.81667 C 10.33 g/m*3 29.82 C 11.69167 km/h
234 24-08-2019 17:00:00 30.29167 C 10.09 g/m*3 30.29 C 11.15833 km/h
235 24-08-2019 18:00:00 30.66667 C 10.95 g/m*3 30.67 C 9.55 km/h
236 24-08-2019 19:00:00 28.56667 C 13.72 g/m*3 28.57 C 1.6 km/h
237 24-08-2019 20:00:00 24.29167 C 13.11 g/m*3 24.29 C 0.66667 km/h
238 24-08-2019 21:00:00 22.01667 C 12.87 g/m*3 22.02 C 0.4 km/h
239 24-08-2019 22:00:00 19.78333 C 12.64 g/m*3 19.78 C 0.13333 km/h
240 24-08-2019 23:00:00 18.175 C 12.16 g/m*3 18.18 C 0 km/h
241 25-08-2019 00:00:00 17.35833 C 12.09 g/m*3 17.36 C 0 km/h
242 25-08-2019 01:00:00 16.96667 C 11.95 g/m*3 16.97 C 0.26667 km/h
243 25-08-2019 02:00:00 16.15833 C 11.73 g/m*3 16.16 C 0 km/h
244 25-08-2019 03:00:00 15.53333 C 11.66 g/m*3 15.53 C 0.26667 km/h
245 25-08-2019 04:00:00 15.19167 C 11.47 g/m*3 15.19 C 0.13333 km/h
246 25-08-2019 05:00:00 14.65833 C 11.28 g/m*3 14.66 C 0 km/h
247 25-08-2019 06:00:00 14.41667 C 11.24 g/m*3 14.42 C 0 km/h
248 25-08-2019 07:00:00 14.80833 C 11.59 g/m*3 14.81 C 0.26667 km/h
249 25-08-2019 08:00:00 15.84167 C 12.21 g/m*3 15.84 C 0 km/h
250 25-08-2019 09:00:00 17.2 C 12.94 g/m*3 17.2 C 0 km/h
Sensor: Nr:Datum:Temp:Abs-Feuchte:Windchill:Wind:
Aussen-T/F 251 25-08-2019 10:00:00 18.78333 C 13.62 g/m*3 18.78 C 0 km/h
252 25-08-2019 11:00:00 21.64167 C 14.72 g/m*3 21.64 C 1.46667 km/h
253 25-08-2019 12:00:00 24.54167 C 15.7 g/m*3 24.54 C 3.33333 km/h
254 25-08-2019 13:00:00 26.76667 C 15.98 g/m*3 26.77 C 3.33333 km/h
255 25-08-2019 14:00:00 28.375 C 15.82 g/m*3 28.38 C 4.28333 km/h
256 25-08-2019 15:00:00 30.28333 C 15.83 g/m*3 30.28 C 5.5 km/h
257 25-08-2019 16:00:00 31.18333 C 16.05 g/m*3 31.18 C 6.05833 km/h
258 25-08-2019 17:00:00 32.3 C 16.12 g/m*3 32.3 C 3.875 km/h
259 25-08-2019 18:00:00 30.05 C 16.09 g/m*3 30.05 C 4.425 km/h
260 25-08-2019 19:00:00 27.125 C 16.41 g/m*3 27.13 C 0.13333 km/h
261 25-08-2019 20:00:00 24.31667 C 15.82 g/m*3 24.32 C 0.13333 km/h
262 25-08-2019 21:00:00 22.98333 C 15.85 g/m*3 22.98 C 0 km/h
263 25-08-2019 22:00:00 21.19167 C 15.27 g/m*3 21.19 C 0 km/h
264 25-08-2019 23:00:00 20.10833 C 14.86 g/m*3 20.11 C 0 km/h
265 26-08-2019 00:00:00 19.475 C 14.76 g/m*3 19.48 C 0 km/h
266 26-08-2019 01:00:00 19.14167 C 14.65 g/m*3 19.14 C 0 km/h
267 26-08-2019 02:00:00 18.53333 C 14.39 g/m*3 18.53 C 0.13333 km/h
268 26-08-2019 03:00:00 18.025 C 14.1 g/m*3 18.02 C 0 km/h
269 26-08-2019 04:00:00 17.41667 C 13.8 g/m*3 17.42 C 0 km/h
270 26-08-2019 05:00:00 17.14167 C 13.74 g/m*3 17.14 C 0.13333 km/h
271 26-08-2019 06:00:00 16.76667 C 13.46 g/m*3 16.77 C 0 km/h
272 26-08-2019 07:00:00 16.71667 C 13.55 g/m*3 16.72 C 0 km/h
273 26-08-2019 08:00:00 17.475 C 14.29 g/m*3 17.48 C 0 km/h
274 26-08-2019 09:00:00 18.55 C 15.21 g/m*3 18.55 C 0 km/h
275 26-08-2019 10:00:00 20.15833 C 16.12 g/m*3 20.16 C 0.13333 km/h
Sensor: Nr:Datum:Temp:Abs-Feuchte:Windchill:Wind:
Aussen-T/F 276 26-08-2019 11:00:00 22.95 C 17.15 g/m*3 22.95 C 0.93333 km/h
277 26-08-2019 12:00:00 25.70833 C 17.45 g/m*3 25.71 C 1.86667 km/h
278 26-08-2019 13:00:00 28.3 C 16.68 g/m*3 28.3 C 5.075 km/h
279 26-08-2019 14:00:00 30.01667 C 15.99 g/m*3 30.02 C 5.08333 km/h
280 26-08-2019 15:00:00 30.85833 C 16.04 g/m*3 30.86 C 4.95 km/h
281 26-08-2019 16:00:00 28.55 C 16.58 g/m*3 28.55 C 2 km/h
282 26-08-2019 17:00:00 27.475 C 17.77 g/m*3 27.48 C 0 km/h
283 26-08-2019 18:00:00 27.10833 C 18.14 g/m*3 27.11 C 0 km/h
284 26-08-2019 19:00:00 28.06667 C 18.01 g/m*3 28.07 C 0 km/h
285 26-08-2019 20:00:00 24.69167 C 16.65 g/m*3 24.69 C 0 km/h
286 26-08-2019 21:00:00 22.45 C 16.03 g/m*3 22.45 C 0 km/h
287 26-08-2019 22:00:00 21.09167 C 15.61 g/m*3 21.09 C 0 km/h
288 26-08-2019 23:00:00 20.175 C 15.34 g/m*3 20.18 C 0.13333 km/h
289 27-08-2019 00:00:00 19.40833 C 15.01 g/m*3 19.41 C 0 km/h
290 27-08-2019 01:00:00 19.01667 C 15.01 g/m*3 19.02 C 0 km/h
291 27-08-2019 02:00:00 18.39167 C 14.59 g/m*3 18.39 C 0 km/h
292 27-08-2019 03:00:00 17.91667 C 14.38 g/m*3 17.92 C 0.13333 km/h
293 27-08-2019 04:00:00 17.55833 C 14.1 g/m*3 17.56 C 0 km/h
294 27-08-2019 05:00:00 17.15833 C 13.88 g/m*3 17.16 C 0 km/h
295 27-08-2019 06:00:00 16.79167 C 13.62 g/m*3 16.79 C 0 km/h
296 27-08-2019 07:00:00 16.85 C 13.77 g/m*3 16.85 C 0 km/h
297 27-08-2019 08:00:00 17.325 C 14.24 g/m*3 17.33 C 0 km/h
298 27-08-2019 09:00:00 18.4 C 15.26 g/m*3 18.4 C 0 km/h
299 27-08-2019 10:00:00 19.78333 C 16.4 g/m*3 19.78 C 0 km/h
300 27-08-2019 11:00:00 22.275 C 17.8 g/m*3 22.28 C 0 km/h
Sensor: Nr:Datum:Temp:Abs-Feuchte:Windchill:Wind:
Aussen-T/F 301 27-08-2019 12:00:00 25.41667 C 17.97 g/m*3 25.42 C 0 km/h
302 27-08-2019 13:00:00 28.99167 C 16.36 g/m*3 28.99 C 1.06667 km/h
303 27-08-2019 14:00:00 30.54167 C 15.38 g/m*3 30.54 C 2 km/h
304 27-08-2019 15:00:00 31.89167 C 14.46 g/m*3 31.89 C 4.95833 km/h
305 27-08-2019 16:00:00 33.23333 C 15.02 g/m*3 33.23 C 4.28333 km/h
306 27-08-2019 17:00:00 32.29167 C 16.29 g/m*3 32.29 C 1.46667 km/h
307 27-08-2019 18:00:00 29.55833 C 16.9 g/m*3 29.56 C 1.2 km/h
308 27-08-2019 19:00:00 27.7 C 17.08 g/m*3 27.7 C 5.23333 km/h
309 27-08-2019 20:00:00 23.50833 C 17.31 g/m*3 23.51 C 0.53333 km/h
310 27-08-2019 21:00:00 22.09167 C 16.5 g/m*3 22.09 C 0.4 km/h
311 27-08-2019 22:00:00 21.14167 C 15.96 g/m*3 21.14 C 0 km/h
312 27-08-2019 23:00:00 20.43333 C 15.63 g/m*3 20.43 C 0.13333 km/h
313 28-08-2019 00:00:00 19.9 C 15.48 g/m*3 19.9 C 0.4 km/h
314 28-08-2019 01:00:00 19.61667 C 15.5 g/m*3 19.62 C 0 km/h
315 28-08-2019 02:00:00 19.24167 C 15.32 g/m*3 19.24 C 0 km/h
316 28-08-2019 03:00:00 18.71667 C 14.98 g/m*3 18.72 C 0.4 km/h
317 28-08-2019 04:00:00 18.33333 C 14.71 g/m*3 18.33 C 0 km/h
318 28-08-2019 05:00:00 17.96667 C 14.47 g/m*3 17.97 C 0 km/h
319 28-08-2019 06:00:00 18.01667 C 14.62 g/m*3 18.02 C 0 km/h
320 28-08-2019 07:00:00 17.85833 C 14.51 g/m*3 17.86 C 0 km/h
321 28-08-2019 08:00:00 18.64167 C 15.28 g/m*3 18.64 C 0.93333 km/h
322 28-08-2019 09:00:00 19.75833 C 15.89 g/m*3 19.76 C 2.8 km/h
323 28-08-2019 10:00:00 22.45 C 15.49 g/m*3 22.45 C 7.4 km/h
324 28-08-2019 11:00:00 23.975 C 15.57 g/m*3 23.98 C 4.40833 km/h
325 28-08-2019 12:00:00 24.49167 C 15.85 g/m*3 24.49 C 4.025 km/h
Sensor: Nr:Datum:Temp:Abs-Feuchte:Windchill:Wind:
Aussen-T/F 326 28-08-2019 13:00:00 26.54167 C 14.76 g/m*3 26.54 C 7.66667 km/h
327 28-08-2019 14:00:00 29.44167 C 14.81 g/m*3 29.44 C 9.29167 km/h
328 28-08-2019 15:00:00 30.35833 C 13.68 g/m*3 30.36 C 11.43333 km/h
329 28-08-2019 16:00:00 31.55833 C 13.63 g/m*3 31.56 C 11.29167 km/h
330 28-08-2019 17:00:00 31.80833 C 14.03 g/m*3 31.81 C 7.39167 km/h
331 28-08-2019 18:00:00 31.18333 C 14.79 g/m*3 31.18 C 4.96667 km/h
332 28-08-2019 19:00:00 27.875 C 14.09 g/m*3 27.88 C 0.53333 km/h
333 28-08-2019 20:00:00 25.59167 C 13.46 g/m*3 25.59 C 0.4 km/h
334 28-08-2019 21:00:00 24.2 C 13.75 g/m*3 24.2 C 0.53333 km/h
335 28-08-2019 22:00:00 22.43333 C 13.94 g/m*3 22.43 C 0 km/h
336 28-08-2019 23:00:00 21.38333 C 13.92 g/m*3 21.38 C 0 km/h
337 29-08-2019 00:00:00 20.775 C 13.89 g/m*3 20.78 C 0 km/h
338 29-08-2019 01:00:00 20.10833 C 13.75 g/m*3 20.11 C 0 km/h
339 29-08-2019 02:00:00 19.2 C 13.55 g/m*3 19.2 C 0 km/h
340 29-08-2019 03:00:00 18.225 C 13.21 g/m*3 18.23 C 0 km/h
341 29-08-2019 04:00:00 17.53333 C 13.15 g/m*3 17.53 C 0 km/h
342 29-08-2019 05:00:00 17.78333 C 13.63 g/m*3 17.78 C 0 km/h
343 29-08-2019 06:00:00 18.34167 C 14.08 g/m*3 18.34 C 0.53333 km/h
344 29-08-2019 07:00:00 19.04167 C 14.58 g/m*3 19.04 C 2.4 km/h
345 29-08-2019 08:00:00 19.89167 C 14.95 g/m*3 19.89 C 3.06667 km/h
346 29-08-2019 09:00:00 20.7 C 15.27 g/m*3 20.7 C 2.4 km/h
347 29-08-2019 10:00:00 21.175 C 16.01 g/m*3 21.18 C 0.4 km/h
348 29-08-2019 11:00:00 22.13333 C 16.14 g/m*3 22.13 C 2.94167 km/h
349 29-08-2019 12:00:00 23.29167 C 16.23 g/m*3 23.29 C 5.075 km/h
350 29-08-2019 13:00:00 25.45 C 16.23 g/m*3 25.45 C 8.475 km/h
Sensor: Nr:Datum:Temp:Abs-Feuchte:Windchill:Wind:
Aussen-T/F 351 29-08-2019 14:00:00 26.78333 C 16.49 g/m*3 26.78 C 7.925 km/h
352 29-08-2019 15:00:00 27.53333 C 16.59 g/m*3 27.53 C 9.41667 km/h
353 29-08-2019 16:00:00 27.875 C 16.18 g/m*3 27.88 C 9.40833 km/h
354 29-08-2019 17:00:00 27.28333 C 15.75 g/m*3 27.28 C 8.74167 km/h
355 29-08-2019 18:00:00 26.44167 C 15.18 g/m*3 26.44 C 8.325 km/h
356 29-08-2019 19:00:00 24.73333 C 14.66 g/m*3 24.73 C 4.675 km/h
357 29-08-2019 20:00:00 22.80833 C 14.37 g/m*3 22.81 C 1.2 km/h
358 29-08-2019 21:00:00 20.89167 C 13.97 g/m*3 20.89 C 0.4 km/h
359 29-08-2019 22:00:00 20.525 C 14.05 g/m*3 20.53 C 0.13333 km/h
360 29-08-2019 23:00:00 20.48333 C 14.15 g/m*3 20.48 C 0.26667 km/h
361 30-08-2019 00:00:00 20.30833 C 13.9 g/m*3 20.31 C 2.4 km/h
362 30-08-2019 01:00:00 19.18333 C 13.66 g/m*3 19.18 C 0 km/h
363 30-08-2019 02:00:00 18.2 C 13.38 g/m*3 18.2 C 0 km/h
364 30-08-2019 03:00:00 17.48333 C 13.17 g/m*3 17.48 C 0 km/h
365 30-08-2019 04:00:00 16.65833 C 12.77 g/m*3 16.66 C 0 km/h
366 30-08-2019 05:00:00 15.975 C 12.62 g/m*3 15.98 C 0.13333 km/h
367 30-08-2019 06:00:00 15.91667 C 12.64 g/m*3 15.92 C 0.13333 km/h
368 30-08-2019 07:00:00 15.41667 C 12.32 g/m*3 15.42 C 0 km/h
369 30-08-2019 08:00:00 16.09167 C 12.94 g/m*3 16.09 C 0.26667 km/h
370 30-08-2019 09:00:00 17.96667 C 13.59 g/m*3 17.97 C 1.06667 km/h
371 30-08-2019 10:00:00 19.41667 C 13.65 g/m*3 19.42 C 1.2 km/h
372 30-08-2019 11:00:00 20.825 C 13.78 g/m*3 20.83 C 1.46667 km/h
373 30-08-2019 12:00:00 22.16667 C 14.24 g/m*3 22.17 C 3.86667 km/h
374 30-08-2019 13:00:00 23.59167 C 14.51 g/m*3 23.59 C 4.84167 km/h
375 30-08-2019 14:00:00 25 C 14 g/m*3 25 C 6.01667 km/h
Sensor: Nr:Datum:Temp:Abs-Feuchte:Windchill:Wind:
Aussen-T/F 376 30-08-2019 15:00:00 26.16667 C 12.59 g/m*3 26.17 C 5.75833 km/h
377 30-08-2019 16:00:00 27.98333 C 12.41 g/m*3 27.98 C 5.49167 km/h
378 30-08-2019 17:00:00 29.66667 C 11.27 g/m*3 29.67 C 3.73333 km/h
379 30-08-2019 18:00:00 29.54167 C 11.12 g/m*3 29.54 C 6.29167 km/h
380 30-08-2019 19:00:00 27.175 C 12.24 g/m*3 27.18 C 2.13333 km/h
381 30-08-2019 20:00:00 23 C 11.42 g/m*3 23 C 0.26667 km/h
382 30-08-2019 21:00:00 20.38333 C 11.5 g/m*3 20.38 C 0 km/h
383 30-08-2019 22:00:00 18.64167 C 11.58 g/m*3 18.64 C 0 km/h
384 30-08-2019 23:00:00 17.38333 C 11.44 g/m*3 17.38 C 0 km/h
385 31-08-2019 00:00:00 16.65 C 11.48 g/m*3 16.65 C 0 km/h
386 31-08-2019 01:00:00 15.825 C 11.35 g/m*3 15.83 C 0 km/h
387 31-08-2019 02:00:00 15.21667 C 11.21 g/m*3 15.22 C 0 km/h
388 31-08-2019 03:00:00 14.75 C 11.18 g/m*3 14.75 C 0 km/h
389 31-08-2019 04:00:00 14.31667 C 11.09 g/m*3 14.32 C 0 km/h
390 31-08-2019 05:00:00 14.15 C 11.15 g/m*3 14.15 C 0 km/h
391 31-08-2019 06:00:00 14.1 C 11.17 g/m*3 14.1 C 0 km/h
392 31-08-2019 07:00:00 14.10833 C 11.25 g/m*3 14.11 C 0 km/h
393 31-08-2019 08:00:00 14.76667 C 11.71 g/m*3 14.77 C 0 km/h
394 31-08-2019 09:00:00 15.89167 C 12.49 g/m*3 15.89 C 0 km/h
395 31-08-2019 10:00:00 17.8 C 13.51 g/m*3 17.8 C 0 km/h
396 31-08-2019 11:00:00 20.6 C 14.54 g/m*3 20.6 C 0 km/h
397 31-08-2019 12:00:00 23.625 C 15.57 g/m*3 23.63 C 0.675 km/h
398 31-08-2019 13:00:00 28.49167 C 15.25 g/m*3 28.49 C 7.24167 km/h
399 31-08-2019 14:00:00 30.36667 C 14.64 g/m*3 30.37 C 6.83333 km/h
400 31-08-2019 15:00:00 31.43333 C 14.19 g/m*3 31.43 C 8.2 km/h
Sensor: Nr:Datum:Temp:Abs-Feuchte:Windchill:Wind:
Aussen-T/F 401 31-08-2019 16:00:00 32.48333 C 14.66 g/m*3 32.48 C 6.16667 km/h
402 31-08-2019 17:00:00 33.89167 C 14.86 g/m*3 33.89 C 8.05 km/h
403 31-08-2019 18:00:00 33.71667 C 14.79 g/m*3 33.72 C 6.43333 km/h
404 31-08-2019 19:00:00 31.13333 C 15.74 g/m*3 31.13 C 0.8 km/h
405 31-08-2019 20:00:00 25.89167 C 14.52 g/m*3 25.89 C 0.4 km/h
406 31-08-2019 21:00:00 24.875 C 14.17 g/m*3 24.88 C 4.95833 km/h
407 31-08-2019 22:00:00 24.58333 C 15.85 g/m*3 24.58 C 4.81667 km/h
408 31-08-2019 23:00:00 20.69167 C 15.76 g/m*3 20.69 C 1.73333 km/h
409 01-09-2019 00:00:00 19.66667 C 15.46 g/m*3 19.67 C 0.66667 km/h
410 01-09-2019 01:00:00 19.34167 C 15.12 g/m*3 19.34 C 0.53333 km/h
411 01-09-2019 02:00:00 19.10833 C 14.09 g/m*3 19.11 C 0 km/h
412 01-09-2019 03:00:00 18.325 C 13.17 g/m*3 18.33 C 1.33333 km/h
413 01-09-2019 04:00:00 17.88333 C 12.23 g/m*3 17.88 C 2.66667 km/h
414 01-09-2019 05:00:00 17.84167 C 12.03 g/m*3 17.84 C 4.81667 km/h
415 01-09-2019 06:00:00 17.30833 C 11.73 g/m*3 17.31 C 2.80833 km/h
416 01-09-2019 07:00:00 16.1 C 11.74 g/m*3 16.1 C 0.53333 km/h
417 01-09-2019 08:00:00 17.48333 C 12.3 g/m*3 17.48 C 4.28333 km/h
418 01-09-2019 09:00:00 18.13333 C 12.46 g/m*3 18.13 C 5.75 km/h
419 01-09-2019 10:00:00 19.10833 C 12.55 g/m*3 19.11 C 7.65 km/h
420 01-09-2019 11:00:00 20.025 C 12.85 g/m*3 20.02 C 8.05833 km/h
421 01-09-2019 12:00:00 20.05 C 12.97 g/m*3 20.05 C 10.08333 km/h
422 01-09-2019 13:00:00 19.69167 C 13.22 g/m*3 19.69 C 11.29167 km/h
423 01-09-2019 14:00:00 20.075 C 13.13 g/m*3 20.08 C 8.04167 km/h
424 01-09-2019 15:00:00 20.61667 C 12.84 g/m*3 20.62 C 8.05 km/h
425 01-09-2019 16:00:00 20.38333 C 12.02 g/m*3 20.38 C 11.01667 km/h
Sensor: Nr:Datum:Temp:Abs-Feuchte:Windchill:Wind:
Aussen-T/F 426 01-09-2019 17:00:00 19.975 C 11.29 g/m*3 19.98 C 10.49167 km/h
427 01-09-2019 18:00:00 20.75833 C 10.94 g/m*3 20.76 C 10.1 km/h
428 01-09-2019 19:00:00 20.60833 C 10.37 g/m*3 20.61 C 6.725 km/h
429 01-09-2019 20:00:00 18.38333 C 10.45 g/m*3 18.38 C 1.475 km/h
430 01-09-2019 21:00:00 16.68333 C 10.27 g/m*3 16.68 C 0 km/h
431 01-09-2019 22:00:00 16.39167 C 9.96 g/m*3 16.39 C 0 km/h
432 01-09-2019 23:00:00 15.59167 C 9.97 g/m*3 15.59 C 0 km/h
433 02-09-2019 00:00:00 14.44167 C 9.36 g/m*3 14.44 C 0 km/h
434 02-09-2019 01:00:00 13.29167 C 8.99 g/m*3 13.29 C 0 km/h
435 02-09-2019 02:00:00 13.3 C 9.27 g/m*3 13.3 C 0 km/h
436 02-09-2019 03:00:00 13.025 C 9.37 g/m*3 13.03 C 0 km/h
437 02-09-2019 04:00:00 12 C 8.94 g/m*3 12 C 0.4 km/h
438 02-09-2019 05:00:00 11.21667 C 8.72 g/m*3 11.22 C 0 km/h
439 02-09-2019 06:00:00 10.15 C 8.45 g/m*3 10.15 C 0 km/h
440 02-09-2019 07:00:00 9.73333 C 8.47 g/m*3 9.73 C 0.53333 km/h
441 02-09-2019 08:00:00 10.03333 C 8.75 g/m*3 10.03 C 0 km/h
442 02-09-2019 09:00:00 10.83333 C 9.17 g/m*3 10.83 C 0 km/h
443 02-09-2019 10:00:00 12.85833 C 9.9 g/m*3 12.86 C 0.8 km/h
444 02-09-2019 11:00:00 16.2 C 9.16 g/m*3 16.2 C 7.93333 km/h
445 02-09-2019 12:00:00 17.53333 C 8.44 g/m*3 17.53 C 8.74167 km/h
446 02-09-2019 13:00:00 18.70833 C 7.96 g/m*3 18.71 C 9.95833 km/h
447 02-09-2019 14:00:00 19.83333 C 7.92 g/m*3 19.83 C 9.28333 km/h
448 02-09-2019 15:00:00 20.175 C 7.9 g/m*3 20.18 C 7.90833 km/h
449 02-09-2019 16:00:00 21.80833 C 7.98 g/m*3 21.81 C 9.68333 km/h
450 02-09-2019 17:00:00 23.09167 C 7.83 g/m*3 23.09 C 6.70833 km/h
Sensor: Nr:Datum:Temp:Abs-Feuchte:Windchill:Wind:
Aussen-T/F 451 02-09-2019 18:00:00 22.99167 C 7.67 g/m*3 22.99 C 5.48333 km/h
452 02-09-2019 19:00:00 20.575 C 8.35 g/m*3 20.58 C 1.2 km/h
453 02-09-2019 20:00:00 16.9 C 8.1 g/m*3 16.9 C 0.93333 km/h
454 02-09-2019 21:00:00 15.39167 C 7.97 g/m*3 15.39 C 0.26667 km/h
455 02-09-2019 22:00:00 13.475 C 8.19 g/m*3 13.48 C 0 km/h
456 02-09-2019 23:00:00 12.98333 C 8.24 g/m*3 12.98 C 0 km/h
457 03-09-2019 00:00:00 12.39167 C 8.17 g/m*3 12.39 C 0 km/h
458 03-09-2019 01:00:00 12.125 C 8.22 g/m*3 12.13 C 0 km/h
459 03-09-2019 02:00:00 10.89167 C 7.86 g/m*3 10.89 C 0 km/h
460 03-09-2019 03:00:00 10.175 C 7.75 g/m*3 10.18 C 0 km/h
461 03-09-2019 04:00:00 10.08333 C 7.92 g/m*3 10.08 C 0 km/h
462 03-09-2019 05:00:00 9.45 C 7.72 g/m*3 9.45 C 0 km/h
463 03-09-2019 06:00:00 8.91667 C 7.64 g/m*3 8.92 C 0 km/h
464 03-09-2019 07:00:00 8.65833 C 7.66 g/m*3 8.66 C 0.13333 km/h
465 03-09-2019 08:00:00 9.08333 C 7.95 g/m*3 9.08 C 0 km/h
466 03-09-2019 09:00:00 10.375 C 8.56 g/m*3 10.38 C 0.26667 km/h
467 03-09-2019 10:00:00 13.225 C 9.38 g/m*3 13.23 C 1.46667 km/h
468 03-09-2019 11:00:00 17.34167 C 9.34 g/m*3 17.34 C 5.90833 km/h
469 03-09-2019 12:00:00 19.95833 C 9.22 g/m*3 19.96 C 8.18333 km/h
470 03-09-2019 13:00:00 21.25 C 9.23 g/m*3 21.25 C 11.55833 km/h
471 03-09-2019 14:00:00 22.64167 C 9.16 g/m*3 22.64 C 10.35 km/h
472 03-09-2019 15:00:00 23.75 C 9.83 g/m*3 23.75 C 10.20833 km/h
473 03-09-2019 16:00:00 23.58333 C 10.59 g/m*3 23.58 C 10.75 km/h
474 03-09-2019 17:00:00 23.65 C 10.86 g/m*3 23.65 C 11.7 km/h
475 03-09-2019 18:00:00 23.225 C 10.95 g/m*3 23.23 C 10.63333 km/h
Sensor: Nr:Datum:Temp:Abs-Feuchte:Windchill:Wind:
Aussen-T/F 476 03-09-2019 19:00:00 21.11667 C 10.84 g/m*3 21.12 C 7.91667 km/h
477 03-09-2019 20:00:00 18.86667 C 10.66 g/m*3 18.87 C 2.40833 km/h
478 03-09-2019 21:00:00 16.325 C 10.42 g/m*3 16.33 C 0 km/h
479 03-09-2019 22:00:00 15.33333 C 10.37 g/m*3 15.33 C 0.13333 km/h
480 03-09-2019 23:00:00 14.05 C 10.08 g/m*3 14.05 C 0 km/h
481 04-09-2019 00:00:00 13.05 C 9.9 g/m*3 13.05 C 0 km/h
482 04-09-2019 01:00:00 12.35 C 9.74 g/m*3 12.35 C 0 km/h
483 04-09-2019 02:00:00 11.85833 C 9.58 g/m*3 11.86 C 0 km/h
484 04-09-2019 03:00:00 11.325 C 9.39 g/m*3 11.33 C 0 km/h
485 04-09-2019 04:00:00 10.74167 C 9.12 g/m*3 10.74 C 0 km/h
486 04-09-2019 05:00:00 10.36667 C 9 g/m*3 10.37 C 0 km/h
487 04-09-2019 06:00:00 10.15833 C 8.95 g/m*3 10.16 C 0 km/h
488 04-09-2019 07:00:00 10.09167 C 8.96 g/m*3 10.09 C 0 km/h
489 04-09-2019 08:00:00 10.675 C 9.35 g/m*3 10.68 C 0.4 km/h
490 04-09-2019 09:00:00 13.11667 C 10.54 g/m*3 13.12 C 4.26667 km/h
491 04-09-2019 10:00:00 14.875 C 10.87 g/m*3 14.88 C 3.73333 km/h
492 04-09-2019 11:00:00 18.09167 C 11.22 g/m*3 18.09 C 11.68333 km/h
493 04-09-2019 12:00:00 19.78333 C 11.25 g/m*3 19.78 C 12.1 km/h
494 04-09-2019 13:00:00 21.16667 C 11.47 g/m*3 21.17 C 12.63333 km/h
495 04-09-2019 14:00:00 22.59167 C 11.56 g/m*3 22.59 C 14.63333 km/h
496 04-09-2019 15:00:00 23.85 C 11.54 g/m*3 23.85 C 11.01667 km/h
497 04-09-2019 16:00:00 25.11667 C 11.74 g/m*3 25.12 C 11.825 km/h
498 04-09-2019 17:00:00 26.875 C 11.46 g/m*3 26.88 C 10.35 km/h
499 04-09-2019 18:00:00 25.04167 C 10.84 g/m*3 25.04 C 14.49167 km/h
500 04-09-2019 19:00:00 23.58333 C 11.1 g/m*3 23.58 C 9.65833 km/h
Sensor: Nr:Datum:Temp:Abs-Feuchte:Windchill:Wind:
Aussen-T/F 501 04-09-2019 20:00:00 19.81667 C 11.87 g/m*3 19.82 C 9.50833 km/h
502 04-09-2019 21:00:00 17.625 C 12.77 g/m*3 17.63 C 0.53333 km/h
503 04-09-2019 22:00:00 16.28333 C 12.52 g/m*3 16.28 C 0.53333 km/h
504 04-09-2019 23:00:00 15.64167 C 12.12 g/m*3 15.64 C 0.4 km/h
505 05-09-2019 00:00:00 15.6 C 12.1 g/m*3 15.6 C 0 km/h
506 05-09-2019 01:00:00 15.41667 C 11.73 g/m*3 15.42 C 1.33333 km/h
507 05-09-2019 02:00:00 14.29167 C 10.66 g/m*3 14.29 C 1.06667 km/h
508 05-09-2019 03:00:00 13.975 C 10.44 g/m*3 13.98 C 1.6 km/h
509 05-09-2019 04:00:00 14.075 C 10.3 g/m*3 14.08 C 3.06667 km/h
510 05-09-2019 05:00:00 13.48333 C 9.83 g/m*3 13.48 C 3.875 km/h
511 05-09-2019 06:00:00 12.56667 C 9.49 g/m*3 12.57 C 4.13333 km/h
512 05-09-2019 07:00:00 12.20833 C 9.38 g/m*3 12.21 C 5.49167 km/h
513 05-09-2019 08:00:00 12.58333 C 9.44 g/m*3 12.58 C 8.75833 km/h
514 05-09-2019 09:00:00 13.59167 C 9.67 g/m*3 13.59 C 7.65833 km/h
515 05-09-2019 10:00:00 15.475 C 10.21 g/m*3 15.48 C 9.95 km/h
516 05-09-2019 11:00:00 16.775 C 10.05 g/m*3 16.77 C 14.24167 km/h
517 05-09-2019 12:00:00 17.09167 C 9.8 g/m*3 17.09 C 10.48333 km/h
518 05-09-2019 13:00:00 18.1 C 9.41 g/m*3 18.1 C 10.225 km/h
519 05-09-2019 14:00:00 18.09167 C 9.72 g/m*3 18.09 C 13.03333 km/h
520 05-09-2019 15:00:00 18.5 C 9.11 g/m*3 18.5 C 11.15833 km/h
521 05-09-2019 16:00:00 18.91667 C 9.07 g/m*3 18.92 C 13.16667 km/h
522 05-09-2019 17:00:00 17.225 C 9.36 g/m*3 17.23 C 15.43333 km/h
523 05-09-2019 18:00:00 16.4 C 9.44 g/m*3 16.4 C 8.59167 km/h
524 05-09-2019 19:00:00 16.46667 C 9.02 g/m*3 16.47 C 6.325 km/h
525 05-09-2019 20:00:00 15.70833 C 9.25 g/m*3 15.71 C 6.71667 km/h
Sensor: Nr:Datum:Temp:Abs-Feuchte:Windchill:Wind:
Aussen-T/F 526 05-09-2019 21:00:00 14.93333 C 8.97 g/m*3 14.93 C 5.35833 km/h
527 05-09-2019 22:00:00 14.49167 C 9.01 g/m*3 14.49 C 2.53333 km/h
528 05-09-2019 23:00:00 13.94167 C 8.89 g/m*3 13.94 C 1.875 km/h
529 06-09-2019 00:00:00 12.025 C 8.52 g/m*3 12.03 C 0.4 km/h
530 06-09-2019 01:00:00 11.23333 C 8.41 g/m*3 11.23 C 1.73333 km/h
531 06-09-2019 02:00:00 10.40833 C 8.34 g/m*3 10.41 C 0 km/h
532 06-09-2019 03:00:00 9.875 C 8.21 g/m*3 9.88 C 0.13333 km/h
533 06-09-2019 04:00:00 9.00833 C 7.89 g/m*3 9.01 C 0 km/h
534 06-09-2019 05:00:00 8.075 C 7.6 g/m*3 8.07 C 0 km/h
535 06-09-2019 06:00:00 7.56667 C 7.46 g/m*3 7.57 C 0 km/h
536 06-09-2019 07:00:00 7.31667 C 7.41 g/m*3 7.32 C 0 km/h
537 06-09-2019 08:00:00 7.85 C 7.77 g/m*3 7.85 C 0 km/h
538 06-09-2019 09:00:00 8.75 C 8.25 g/m*3 8.75 C 0 km/h
539 06-09-2019 10:00:00 10.175 C 9.03 g/m*3 10.18 C 0.13333 km/h
540 06-09-2019 11:00:00 12.55833 C 9.18 g/m*3 12.56 C 1.73333 km/h
541 06-09-2019 12:00:00 15.03333 C 8.28 g/m*3 15.03 C 4.00833 km/h
542 06-09-2019 13:00:00 16.51667 C 8.14 g/m*3 16.52 C 4.4 km/h
543 06-09-2019 14:00:00 18.3 C 7.75 g/m*3 18.3 C 8.325 km/h
544 06-09-2019 15:00:00 19.475 C 7.53 g/m*3 19.48 C 9.26667 km/h
545 06-09-2019 16:00:00 20.7 C 7.17 g/m*3 20.7 C 7.24167 km/h
546 06-09-2019 17:00:00 22.36667 C 7.38 g/m*3 22.37 C 7.79167 km/h
547 06-09-2019 18:00:00 22.25 C 7.74 g/m*3 22.25 C 6.975 km/h
548 06-09-2019 19:00:00 19.41667 C 8.07 g/m*3 19.42 C 0.8 km/h
549 06-09-2019 20:00:00 16.04167 C 7.71 g/m*3 16.04 C 0 km/h
550 06-09-2019 21:00:00 14.65 C 7.6 g/m*3 14.65 C 0 km/h
Sensor: Nr:Datum:Temp:Abs-Feuchte:Windchill:Wind:
Aussen-T/F 551 06-09-2019 22:00:00 12.74167 C 7.65 g/m*3 12.74 C 0.26667 km/h
552 06-09-2019 23:00:00 12.69167 C 7.95 g/m*3 12.69 C 2 km/h
553 07-09-2019 00:00:00 12.25833 C 7.99 g/m*3 12.26 C 0.93333 km/h
554 07-09-2019 01:00:00 12.41667 C 8.06 g/m*3 12.42 C 1.73333 km/h
555 07-09-2019 02:00:00 12.19167 C 8.09 g/m*3 12.19 C 1.73333 km/h
556 07-09-2019 03:00:00 12.375 C 8.15 g/m*3 12.38 C 3.33333 km/h
557 07-09-2019 04:00:00 12.69167 C 8.26 g/m*3 12.69 C 3.89167 km/h
558 07-09-2019 05:00:00 12.64167 C 8.27 g/m*3 12.64 C 1.075 km/h
559 07-09-2019 06:00:00 12.29167 C 8.35 g/m*3 12.29 C 0 km/h
560 07-09-2019 07:00:00 11.96667 C 9.01 g/m*3 11.97 C 0.13333 km/h
561 07-09-2019 08:00:00 11.78333 C 9.52 g/m*3 11.78 C 0.13333 km/h
562 07-09-2019 09:00:00 11.80833 C 9.78 g/m*3 11.81 C 0 km/h
563 07-09-2019 10:00:00 12.225 C 10.16 g/m*3 12.23 C 0 km/h
564 07-09-2019 11:00:00 12.80833 C 10.52 g/m*3 12.81 C 0.4 km/h
565 07-09-2019 12:00:00 13.475 C 10.93 g/m*3 13.48 C 1.06667 km/h
566 07-09-2019 13:00:00 14.19167 C 11.31 g/m*3 14.19 C 1.06667 km/h
567 07-09-2019 14:00:00 14.46667 C 11.38 g/m*3 14.47 C 1.73333 km/h
568 07-09-2019 15:00:00 14.93333 C 11.53 g/m*3 14.93 C 3.73333 km/h
569 07-09-2019 16:00:00 15.25 C 11.63 g/m*3 15.25 C 0.93333 km/h
570 07-09-2019 17:00:00 15.30833 C 11.66 g/m*3 15.31 C 3.21667 km/h
571 07-09-2019 18:00:00 14.29167 C 11.14 g/m*3 14.29 C 0.93333 km/h
572 07-09-2019 19:00:00 13.34167 C 10.59 g/m*3 13.34 C 0.66667 km/h
573 07-09-2019 20:00:00 12.64167 C 10.32 g/m*3 12.64 C 0.13333 km/h
574 07-09-2019 21:00:00 12.00833 C 9.95 g/m*3 12.01 C 0 km/h
575 07-09-2019 22:00:00 11.8 C 9.94 g/m*3 11.8 C 0 km/h
Sensor: Nr:Datum:Temp:Abs-Feuchte:Windchill:Wind:
Aussen-T/F 576 07-09-2019 23:00:00 11.725 C 9.95 g/m*3 11.73 C 0 km/h
577 08-09-2019 00:00:00 11.7 C 9.94 g/m*3 11.7 C 0 km/h
578 08-09-2019 01:00:00 11.75833 C 10.04 g/m*3 11.76 C 0 km/h
579 08-09-2019 02:00:00 11.29167 C 9.74 g/m*3 11.29 C 0 km/h
580 08-09-2019 03:00:00 11.3 C 9.79 g/m*3 11.3 C 0 km/h
581 08-09-2019 04:00:00 11.7 C 10.08 g/m*3 11.7 C 0 km/h
582 08-09-2019 05:00:00 11.90833 C 10.17 g/m*3 11.91 C 0 km/h
583 08-09-2019 06:00:00 12.075 C 10.36 g/m*3 12.08 C 0.13333 km/h
584 08-09-2019 07:00:00 12.20833 C 10.41 g/m*3 12.21 C 0.4 km/h
585 08-09-2019 08:00:00 12.31667 C 10.43 g/m*3 12.32 C 1.46667 km/h
586 08-09-2019 09:00:00 12.325 C 10.38 g/m*3 12.33 C 4.13333 km/h
587 08-09-2019 10:00:00 12.575 C 10.57 g/m*3 12.58 C 0 km/h
588 08-09-2019 11:00:00 12.625 C 10.64 g/m*3 12.63 C 0.4 km/h
589 08-09-2019 12:00:00 12.81667 C 10.75 g/m*3 12.82 C 2.53333 km/h
590 08-09-2019 13:00:00 13.94167 C 11.24 g/m*3 13.94 C 1.6 km/h
591 08-09-2019 14:00:00 14.875 C 11.24 g/m*3 14.88 C 3.6 km/h
592 08-09-2019 15:00:00 15.73333 C 11.27 g/m*3 15.73 C 1.6 km/h
593 08-09-2019 16:00:00 15.65833 C 11.32 g/m*3 15.66 C 1.46667 km/h
594 08-09-2019 17:00:00 13.49167 C 10.83 g/m*3 13.49 C 2.53333 km/h
595 08-09-2019 18:00:00 12.8 C 10.56 g/m*3 12.8 C 0.8 km/h
596 08-09-2019 19:00:00 12.96667 C 10.8 g/m*3 12.97 C 0 km/h
597 08-09-2019 20:00:00 12.56667 C 10.5 g/m*3 12.57 C 3.35 km/h
598 08-09-2019 21:00:00 12.1 C 10.23 g/m*3 12.1 C 0.53333 km/h
599 08-09-2019 22:00:00 11.81667 C 10.11 g/m*3 11.82 C 0 km/h
600 08-09-2019 23:00:00 11.71667 C 10.05 g/m*3 11.72 C 0 km/h
Sensor: Nr:Datum:Temp:Abs-Feuchte:Windchill:Wind:
Aussen-T/F 601 09-09-2019 00:00:00 11.45 C 9.88 g/m*3 11.45 C 0 km/h
602 09-09-2019 01:00:00 11.26667 C 9.78 g/m*3 11.27 C 0.26667 km/h
603 09-09-2019 02:00:00 11.29167 C 9.87 g/m*3 11.29 C 0 km/h
604 09-09-2019 03:00:00 11.36667 C 9.94 g/m*3 11.37 C 0 km/h
605 09-09-2019 04:00:00 11.36667 C 9.94 g/m*3 11.37 C 0 km/h
606 09-09-2019 05:00:00 11.29167 C 9.89 g/m*3 11.29 C 0 km/h
607 09-09-2019 06:00:00 11.3 C 9.89 g/m*3 11.3 C 0 km/h
608 09-09-2019 07:00:00 11.275 C 9.88 g/m*3 11.28 C 0 km/h
609 09-09-2019 08:00:00 11.39167 C 9.95 g/m*3 11.39 C 0 km/h
610 09-09-2019 09:00:00 12.01667 C 10.35 g/m*3 12.02 C 0.26667 km/h
611 09-09-2019 10:00:00 12.23333 C 10.49 g/m*3 12.23 C 0.13333 km/h
612 09-09-2019 11:00:00 12.55833 C 10.62 g/m*3 12.56 C 2.66667 km/h
613 09-09-2019 12:00:00 13.15 C 10.48 g/m*3 13.15 C 1.73333 km/h
614 09-09-2019 13:00:00 14.2 C 10.57 g/m*3 14.2 C 2.4 km/h
615 09-09-2019 14:00:00 14.81667 C 10.11 g/m*3 14.82 C 1.73333 km/h
616 09-09-2019 15:00:00 15.175 C 10.39 g/m*3 15.18 C 0.8 km/h
617 09-09-2019 16:00:00 15.475 C 10.21 g/m*3 15.48 C 1.06667 km/h
618 09-09-2019 17:00:00 15.74167 C 9.89 g/m*3 15.74 C 1.33333 km/h
619 09-09-2019 18:00:00 16.33333 C 10.25 g/m*3 16.33 C 1.46667 km/h
620 09-09-2019 19:00:00 14.35 C 10.11 g/m*3 14.35 C 0.53333 km/h
621 09-09-2019 20:00:00 12.00833 C 9.36 g/m*3 12.01 C 0.4 km/h
622 09-09-2019 21:00:00 10.79167 C 8.96 g/m*3 10.79 C 0.13333 km/h
623 09-09-2019 22:00:00 10.05 C 8.74 g/m*3 10.05 C 0 km/h
624 09-09-2019 23:00:00 9.30833 C 8.44 g/m*3 9.31 C 0 km/h
625 10-09-2019 00:00:00 8.75833 C 8.22 g/m*3 8.76 C 0 km/h
Sensor: Nr:Datum:Temp:Abs-Feuchte:Windchill:Wind:
Aussen-T/F 626 10-09-2019 01:00:00 8.44167 C 8.09 g/m*3 8.44 C 0 km/h
627 10-09-2019 02:00:00 8.3 C 8.07 g/m*3 8.3 C 0 km/h
628 10-09-2019 03:00:00 8.625 C 8.26 g/m*3 8.63 C 0.53333 km/h
629 10-09-2019 04:00:00 8.65 C 8.28 g/m*3 8.65 C 0.66667 km/h
630 10-09-2019 05:00:00 8.55833 C 8.24 g/m*3 8.56 C 0.26667 km/h
631 10-09-2019 06:00:00 8.2 C 8.1 g/m*3 8.2 C 0.8 km/h
632 10-09-2019 07:00:00 8.225 C 8.14 g/m*3 8.23 C 0.13333 km/h
633 10-09-2019 08:00:00 8.21667 C 8.13 g/m*3 8.22 C 2.26667 km/h
634 10-09-2019 09:00:00 8.45833 C 8.26 g/m*3 8.46 C 2.13333 km/h
635 10-09-2019 10:00:00 9.05 C 8.58 g/m*3 9.05 C 1.33333 km/h
636 10-09-2019 11:00:00 9.94167 C 9.08 g/m*3 9.94 C 2.26667 km/h
637 10-09-2019 12:00:00 11.78333 C 9.92 g/m*3 11.78 C 0.4 km/h
638 10-09-2019 13:00:00 14.85833 C 9.92 g/m*3 14.86 C 1.6 km/h
639 10-09-2019 14:00:00 17.25 C 9.44 g/m*3 17.25 C 3.60833 km/h
640 10-09-2019 15:00:00 18.43333 C 9.19 g/m*3 18.43 C 5.36667 km/h
641 10-09-2019 16:00:00 19.65 C 8.8 g/m*3 19.65 C 8.20833 km/h
642 10-09-2019 17:00:00 18.38333 C 10.55 g/m*3 18.38 C 0.8 km/h
643 10-09-2019 18:00:00 18.33333 C 10.97 g/m*3 18.33 C 0 km/h
644 10-09-2019 19:00:00 16.4 C 10.1 g/m*3 16.4 C 0.13333 km/h
645 10-09-2019 20:00:00 13.775 C 8.93 g/m*3 13.78 C 0 km/h
646 10-09-2019 21:00:00 12.03333 C 8.86 g/m*3 12.03 C 0 km/h
647 10-09-2019 22:00:00 10.66667 C 8.52 g/m*3 10.67 C 0 km/h
648 10-09-2019 23:00:00 9.78333 C 8.23 g/m*3 9.78 C 0 km/h
649 11-09-2019 00:00:00 9.2 C 8.04 g/m*3 9.2 C 0 km/h
650 11-09-2019 01:00:00 8.61667 C 7.86 g/m*3 8.62 C 0 km/h
Sensor: Nr:Datum:Temp:Abs-Feuchte:Windchill:Wind:
Aussen-T/F 651 11-09-2019 02:00:00 8.04167 C 7.69 g/m*3 8.04 C 0.13333 km/h
652 11-09-2019 03:00:00 7.64167 C 7.55 g/m*3 7.64 C 0 km/h
653 11-09-2019 04:00:00 7.26667 C 7.41 g/m*3 7.27 C 0 km/h
654 11-09-2019 05:00:00 6.90833 C 7.3 g/m*3 6.91 C 0 km/h
655 11-09-2019 06:00:00 6.65833 C 7.2 g/m*3 6.66 C 0 km/h
656 11-09-2019 07:00:00 6.55 C 7.2 g/m*3 6.55 C 0.675 km/h
657 11-09-2019 08:00:00 7.99167 C 7.97 g/m*3 7.99 C 1.60833 km/h
658 11-09-2019 09:00:00 9.51667 C 8.59 g/m*3 9.52 C 2.8 km/h
659 11-09-2019 10:00:00 10.85 C 9.29 g/m*3 10.85 C 0 km/h
660 11-09-2019 11:00:00 13.10833 C 10.13 g/m*3 13.11 C 1.6 km/h
661 11-09-2019 12:00:00 17.29167 C 9.85 g/m*3 17.29 C 9.41667 km/h
662 11-09-2019 13:00:00 19.9 C 9.95 g/m*3 19.9 C 12.75833 km/h
663 11-09-2019 14:00:00 20.58333 C 9.88 g/m*3 20.58 C 16.5 km/h
664 11-09-2019 15:00:00 20.53333 C 10.07 g/m*3 20.53 C 10.225 km/h
665 11-09-2019 16:00:00 20.03333 C 11.17 g/m*3 20.03 C 4.825 km/h
666 11-09-2019 17:00:00 19.16667 C 10.86 g/m*3 19.17 C 8.45833 km/h
667 11-09-2019 18:00:00 18.35833 C 10.7 g/m*3 18.36 C 3.75833 km/h
668 11-09-2019 19:00:00 17.26667 C 10.41 g/m*3 17.27 C 3.20833 km/h
669 11-09-2019 20:00:00 16.50833 C 10.64 g/m*3 16.51 C 0.93333 km/h
670 11-09-2019 21:00:00 16.275 C 10.82 g/m*3 16.27 C 0.93333 km/h
671 11-09-2019 22:00:00 16.41667 C 11.06 g/m*3 16.42 C 0.93333 km/h
672 11-09-2019 23:00:00 15.7 C 11.15 g/m*3 15.7 C 0.93333 km/h
673 12-09-2019 00:00:00 15.51667 C 10.97 g/m*3 15.52 C 1.86667 km/h
674 12-09-2019 01:00:00 16.14167 C 11.09 g/m*3 16.14 C 1.74167 km/h
675 12-09-2019 02:00:00 17.23333 C 10.81 g/m*3 17.23 C 6.975 km/h
Sensor: Nr:Datum:Temp:Abs-Feuchte:Windchill:Wind:
Aussen-T/F 676 12-09-2019 03:00:00 17.24167 C 11 g/m*3 17.24 C 6.70833 km/h
677 12-09-2019 04:00:00 17.05 C 11.08 g/m*3 17.05 C 2.93333 km/h
678 12-09-2019 05:00:00 16.975 C 11.25 g/m*3 16.98 C 8.31667 km/h
679 12-09-2019 06:00:00 16.9 C 11.4 g/m*3 16.9 C 5.75833 km/h
680 12-09-2019 07:00:00 16.24167 C 11.53 g/m*3 16.24 C 0.8 km/h
681 12-09-2019 08:00:00 16.83333 C 12.06 g/m*3 16.83 C 5.76667 km/h
682 12-09-2019 09:00:00 17.40833 C 12.53 g/m*3 17.41 C 9.025 km/h
683 12-09-2019 10:00:00 18.21667 C 13.08 g/m*3 18.22 C 11.15833 km/h
684 12-09-2019 11:00:00 19.21667 C 13.52 g/m*3 19.22 C 9.01667 km/h
685 12-09-2019 12:00:00 20.25833 C 13.93 g/m*3 20.26 C 10.34167 km/h
686 12-09-2019 13:00:00 20.9 C 14.27 g/m*3 20.9 C 7.79167 km/h
687 12-09-2019 14:00:00 21.38333 C 14.69 g/m*3 21.38 C 1.6 km/h
688 12-09-2019 15:00:00 22.25833 C 14.77 g/m*3 22.26 C 4.025 km/h
689 12-09-2019 16:00:00 22.95 C 14.67 g/m*3 22.95 C 7.91667 km/h
690 12-09-2019 17:00:00 24.44167 C 14.46 g/m*3 24.44 C 11.83333 km/h
691 12-09-2019 18:00:00 24.95833 C 14.66 g/m*3 24.96 C 6.56667 km/h
692 12-09-2019 19:00:00 22.86667 C 14.23 g/m*3 22.87 C 0.53333 km/h
693 12-09-2019 20:00:00 19.11667 C 13.29 g/m*3 19.12 C 0.4 km/h
694 12-09-2019 21:00:00 18.225 C 13.19 g/m*3 18.23 C 0.26667 km/h
695 12-09-2019 22:00:00 18.35 C 13.17 g/m*3 18.35 C 0.4 km/h
696 12-09-2019 23:00:00 17.06667 C 12.6 g/m*3 17.07 C 0 km/h
697 13-09-2019 00:00:00 15.98333 C 12.26 g/m*3 15.98 C 0.93333 km/h
698 13-09-2019 01:00:00 15.55 C 12.18 g/m*3 15.55 C 3.6 km/h
699 13-09-2019 02:00:00 15.25 C 12.05 g/m*3 15.25 C 1.46667 km/h
700 13-09-2019 03:00:00 15.1 C 12.07 g/m*3 15.1 C 1.06667 km/h
Sensor: Nr:Datum:Temp:Abs-Feuchte:Windchill:Wind:
Aussen-T/F 701 13-09-2019 04:00:00 15.575 C 12.4 g/m*3 15.58 C 2.93333 km/h
702 13-09-2019 05:00:00 16.19167 C 12.55 g/m*3 16.19 C 6.84167 km/h
703 13-09-2019 06:00:00 16.25833 C 12.58 g/m*3 16.26 C 4.3 km/h
704 13-09-2019 07:00:00 16.64167 C 12.75 g/m*3 16.64 C 2.94167 km/h
705 13-09-2019 08:00:00 16.85833 C 13.01 g/m*3 16.86 C 0.8 km/h
706 13-09-2019 09:00:00 17.49167 C 13.31 g/m*3 17.49 C 2 km/h
707 13-09-2019 10:00:00 18.51667 C 13.63 g/m*3 18.52 C 0.8 km/h
708 13-09-2019 11:00:00 19.6 C 13.91 g/m*3 19.6 C 2.8 km/h
709 13-09-2019 12:00:00 20.35 C 14.02 g/m*3 20.35 C 1.2 km/h
710 13-09-2019 13:00:00 20.60833 C 13.82 g/m*3 20.61 C 4.675 km/h
711 13-09-2019 14:00:00 21.16667 C 14.03 g/m*3 21.17 C 6.15833 km/h
712 13-09-2019 15:00:00 20.85833 C 14.13 g/m*3 20.86 C 12.76667 km/h
713 13-09-2019 16:00:00 19.325 C 14.49 g/m*3 19.33 C 5.90833 km/h
714 13-09-2019 17:00:00 19.20833 C 14.74 g/m*3 19.21 C 0 km/h
715 13-09-2019 18:00:00 20 C 15.42 g/m*3 20 C 0 km/h
716 13-09-2019 19:00:00 19.48333 C 14.46 g/m*3 19.48 C 0 km/h
717 13-09-2019 20:00:00 17.60833 C 13.73 g/m*3 17.61 C 0.26667 km/h
718 13-09-2019 21:00:00 16.95 C 13.39 g/m*3 16.95 C 0 km/h
719 13-09-2019 22:00:00 16.25833 C 12.87 g/m*3 16.26 C 0 km/h
720 13-09-2019 23:00:00 15.48333 C 12.38 g/m*3 15.48 C 0 km/h
721 14-09-2019 00:00:00 15.39167 C 12.41 g/m*3 15.39 C 0 km/h
722 14-09-2019 01:00:00 14.63333 C 11.86 g/m*3 14.63 C 0 km/h
723 14-09-2019 02:00:00 13.525 C 11.07 g/m*3 13.53 C 0 km/h
724 14-09-2019 03:00:00 12.70833 C 10.58 g/m*3 12.71 C 0 km/h
725 14-09-2019 04:00:00 12.00833 C 10.18 g/m*3 12.01 C 0 km/h
Sensor: Nr:Datum:Temp:Abs-Feuchte:Windchill:Wind:
Aussen-T/F 726 14-09-2019 05:00:00 11.31667 C 9.79 g/m*3 11.32 C 0 km/h
727 14-09-2019 06:00:00 10.78333 C 9.48 g/m*3 10.78 C 0 km/h
728 14-09-2019 07:00:00 10.4 C 9.25 g/m*3 10.4 C 0 km/h
729 14-09-2019 08:00:00 10.40833 C 9.26 g/m*3 10.41 C 0 km/h
730 14-09-2019 09:00:00 11.00833 C 9.71 g/m*3 11.01 C 0.13333 km/h
731 14-09-2019 10:00:00 12.25833 C 10.51 g/m*3 12.26 C 0.26667 km/h
732 14-09-2019 11:00:00 13.69167 C 11.26 g/m*3 13.69 C 0.26667 km/h
733 14-09-2019 12:00:00 16.14167 C 11.54 g/m*3 16.14 C 0.8 km/h
734 14-09-2019 13:00:00 18.675 C 11.2 g/m*3 18.68 C 3.74167 km/h
735 14-09-2019 14:00:00 20.43333 C 11.02 g/m*3 20.43 C 4.95 km/h
736 14-09-2019 15:00:00 21.74167 C 10.66 g/m*3 21.74 C 5.35833 km/h
737 14-09-2019 16:00:00 22.44167 C 10.43 g/m*3 22.44 C 4.3 km/h
738 14-09-2019 17:00:00 24.14167 C 10.29 g/m*3 24.14 C 4.81667 km/h
739 14-09-2019 18:00:00 23.6 C 11.63 g/m*3 23.6 C 0 km/h
740 14-09-2019 19:00:00 19.45833 C 10.87 g/m*3 19.46 C 0.13333 km/h
741 14-09-2019 20:00:00 16.95833 C 10.12 g/m*3 16.96 C 0 km/h
742 14-09-2019 21:00:00 15.96667 C 10.01 g/m*3 15.97 C 0 km/h
743 14-09-2019 22:00:00 13.8 C 9.68 g/m*3 13.8 C 0 km/h
744 14-09-2019 23:00:00 12.48333 C 9.38 g/m*3 12.48 C 0 km/h
745 15-09-2019 00:00:00 11.65 C 9.12 g/m*3 11.65 C 0 km/h
746 15-09-2019 01:00:00 10.825 C 8.89 g/m*3 10.83 C 0 km/h
747 15-09-2019 02:00:00 10.375 C 8.83 g/m*3 10.38 C 0 km/h
748 15-09-2019 03:00:00 10.16667 C 8.79 g/m*3 10.17 C 0.13333 km/h
749 15-09-2019 04:00:00 9.75833 C 8.61 g/m*3 9.76 C 0.13333 km/h
750 15-09-2019 05:00:00 9.31667 C 8.46 g/m*3 9.32 C 0 km/h
Sensor: Nr:Datum:Temp:Abs-Feuchte:Windchill:Wind:
Aussen-T/F 751 15-09-2019 06:00:00 8.76667 C 8.17 g/m*3 8.77 C 0 km/h
752 15-09-2019 07:00:00 8.775 C 8.26 g/m*3 8.78 C 0.53333 km/h
753 15-09-2019 08:00:00 9.29167 C 8.62 g/m*3 9.29 C 0.53333 km/h
754 15-09-2019 09:00:00 10.03333 C 9.04 g/m*3 10.03 C 0 km/h
755 15-09-2019 10:00:00 11.35833 C 9.83 g/m*3 11.36 C 0 km/h
756 15-09-2019 11:00:00 13.71667 C 11.23 g/m*3 13.72 C 0 km/h
757 15-09-2019 12:00:00 16.96667 C 12.32 g/m*3 16.97 C 0 km/h
758 15-09-2019 13:00:00 20.45833 C 12.4 g/m*3 20.46 C 0 km/h
759 15-09-2019 14:00:00 22.79167 C 12.41 g/m*3 22.79 C 0.53333 km/h
760 15-09-2019 15:00:00 24.05 C 12.35 g/m*3 24.05 C 0.53333 km/h
761 15-09-2019 16:00:00 24.65833 C 11.93 g/m*3 24.66 C 2.66667 km/h
762 15-09-2019 17:00:00 25.84167 C 11.52 g/m*3 25.84 C 1.6 km/h
763 15-09-2019 18:00:00 26.43333 C 11.47 g/m*3 26.43 C 0.4 km/h
764 15-09-2019 19:00:00 21.96667 C 11.11 g/m*3 21.97 C 0 km/h
765 15-09-2019 20:00:00 18.225 C 9.86 g/m*3 18.23 C 0 km/h
766 15-09-2019 21:00:00 16.76667 C 9.56 g/m*3 16.77 C 0 km/h
767 15-09-2019 22:00:00 14.475 C 9.48 g/m*3 14.48 C 0 km/h
768 15-09-2019 23:00:00 12.99167 C 9.21 g/m*3 12.99 C 0 km/h
769 16-09-2019 00:00:00 12.55 C 9.24 g/m*3 12.55 C 0 km/h
770 16-09-2019 01:00:00 12.25833 C 9.26 g/m*3 12.26 C 0.53333 km/h
771 16-09-2019 02:00:00 11.41667 C 9.02 g/m*3 11.42 C 0.26667 km/h
772 16-09-2019 03:00:00 11.11667 C 9.09 g/m*3 11.12 C 0.4 km/h
773 16-09-2019 04:00:00 11.45833 C 9.31 g/m*3 11.46 C 0.66667 km/h
774 16-09-2019 05:00:00 11.51667 C 9.27 g/m*3 11.52 C 0.4 km/h
775 16-09-2019 06:00:00 11.23333 C 9.22 g/m*3 11.23 C 0 km/h
Sensor: Nr:Datum:Temp:Abs-Feuchte:Windchill:Wind:
Aussen-T/F 776 16-09-2019 07:00:00 11.31667 C 9.35 g/m*3 11.32 C 0.13333 km/h
777 16-09-2019 08:00:00 12.075 C 9.65 g/m*3 12.08 C 1.2 km/h
778 16-09-2019 09:00:00 13.4 C 10.02 g/m*3 13.4 C 1.06667 km/h
779 16-09-2019 10:00:00 14.99167 C 10.52 g/m*3 14.99 C 0.93333 km/h
780 16-09-2019 11:00:00 17.41667 C 11.29 g/m*3 17.42 C 1.33333 km/h
781 16-09-2019 12:00:00 19.64167 C 11.69 g/m*3 19.64 C 4.40833 km/h
782 16-09-2019 13:00:00 21.18333 C 11.4 g/m*3 21.18 C 5.9 km/h
783 16-09-2019 14:00:00 22.05 C 11.19 g/m*3 22.05 C 4.26667 km/h
784 16-09-2019 15:00:00 22.075 C 11.53 g/m*3 22.08 C 4.275 km/h
785 16-09-2019 16:00:00 22.10833 C 10.87 g/m*3 22.11 C 7.65 km/h
786 16-09-2019 17:00:00 21.8 C 11.67 g/m*3 21.8 C 7.525 km/h
787 16-09-2019 18:00:00 20.725 C 11.4 g/m*3 20.73 C 4.95 km/h
788 16-09-2019 19:00:00 19.71667 C 11.57 g/m*3 19.72 C 8.46667 km/h
789 16-09-2019 20:00:00 17.64167 C 12.45 g/m*3 17.64 C 2.275 km/h
790 16-09-2019 21:00:00 16.74167 C 12.53 g/m*3 16.74 C 1.46667 km/h
791 16-09-2019 22:00:00 16.43333 C 12.39 g/m*3 16.43 C 4.825 km/h
792 16-09-2019 23:00:00 15.4 C 12.03 g/m*3 15.4 C 4.14167 km/h
793 17-09-2019 00:00:00 15.05833 C 11.74 g/m*3 15.06 C 1.73333 km/h
794 17-09-2019 01:00:00 14.81667 C 11.42 g/m*3 14.82 C 4 km/h
795 17-09-2019 02:00:00 14.66667 C 11.26 g/m*3 14.67 C 3.475 km/h
796 17-09-2019 03:00:00 14.54167 C 11.1 g/m*3 14.54 C 1.46667 km/h
797 17-09-2019 04:00:00 14.30833 C 11.03 g/m*3 14.31 C 0.4 km/h
798 17-09-2019 05:00:00 14.16667 C 11 g/m*3 14.17 C 0.53333 km/h
799 17-09-2019 06:00:00 14.1 C 10.95 g/m*3 14.1 C 3.74167 km/h
800 17-09-2019 07:00:00 14.01667 C 10.81 g/m*3 14.02 C 1.86667 km/h
Sensor: Nr:Datum:Temp:Abs-Feuchte:Windchill:Wind:
Aussen-T/F 801 17-09-2019 08:00:00 14 C 10.57 g/m*3 14 C 4.00833 km/h
802 17-09-2019 09:00:00 14.04167 C 10.08 g/m*3 14.04 C 8.33333 km/h
803 17-09-2019 10:00:00 14.925 C 9.51 g/m*3 14.93 C 11.29167 km/h
804 17-09-2019 11:00:00 15.73333 C 9.52 g/m*3 15.73 C 11.56667 km/h
805 17-09-2019 12:00:00 16.125 C 9.35 g/m*3 16.13 C 13.83333 km/h
806 17-09-2019 13:00:00 16.625 C 9.11 g/m*3 16.63 C 13.43333 km/h
807 17-09-2019 14:00:00 17.44167 C 9.01 g/m*3 17.44 C 13.43333 km/h
808 17-09-2019 15:00:00 17.66667 C 8.72 g/m*3 17.67 C 12.1 km/h
809 17-09-2019 16:00:00 18.05833 C 8.61 g/m*3 18.06 C 12.76667 km/h
810 17-09-2019 17:00:00 18.125 C 8.63 g/m*3 18.13 C 11.41667 km/h
811 17-09-2019 18:00:00 18.45 C 8.52 g/m*3 18.45 C 13.43333 km/h
812 17-09-2019 19:00:00 17.3 C 8.79 g/m*3 17.3 C 5.775 km/h
813 17-09-2019 20:00:00 16.71667 C 8.94 g/m*3 16.72 C 6.03333 km/h
814 17-09-2019 21:00:00 16.00833 C 8.74 g/m*3 16.01 C 12.36667 km/h
815 17-09-2019 22:00:00 14.55833 C 7.86 g/m*3 14.56 C 11.7 km/h
816 17-09-2019 23:00:00 13.40833 C 7.65 g/m*3 13.41 C 6.45 km/h
817 18-09-2019 00:00:00 11.80833 C 7.43 g/m*3 11.81 C 3.86667 km/h
818 18-09-2019 01:00:00 10.83333 C 7.47 g/m*3 10.83 C 2.8 km/h
819 18-09-2019 02:00:00 9.26667 C 7.32 g/m*3 9.27 C 0 km/h
820 18-09-2019 03:00:00 8.25 C 7.19 g/m*3 8.25 C 0 km/h
821 18-09-2019 04:00:00 7.425 C 7.05 g/m*3 7.43 C 0 km/h
822 18-09-2019 05:00:00 6.76667 C 6.89 g/m*3 6.77 C 0 km/h
823 18-09-2019 06:00:00 6.08333 C 6.7 g/m*3 6.08 C 0 km/h
824 18-09-2019 07:00:00 5.8 C 6.67 g/m*3 5.8 C 0 km/h
825 18-09-2019 08:00:00 6.10833 C 6.87 g/m*3 6.11 C 0 km/h
Sensor: Nr:Datum:Temp:Abs-Feuchte:Windchill:Wind:
Aussen-T/F 826 18-09-2019 09:00:00 7.01667 C 7.37 g/m*3 7.02 C 0 km/h
827 18-09-2019 10:00:00 8.375 C 8.05 g/m*3 8.38 C 0 km/h
828 18-09-2019 11:00:00 10.625 C 8.65 g/m*3 10.63 C 1.33333 km/h
829 18-09-2019 12:00:00 13.6 C 8.4 g/m*3 13.6 C 5.61667 km/h
830 18-09-2019 13:00:00 15.1 C 7.76 g/m*3 15.1 C 9 km/h
831 18-09-2019 14:00:00 16.25 C 7.43 g/m*3 16.25 C 9.54167 km/h
832 18-09-2019 15:00:00 17.00833 C 7.27 g/m*3 17.01 C 8.86667 km/h
833 18-09-2019 16:00:00 17.225 C 7.48 g/m*3 17.23 C 9.95 km/h
834 18-09-2019 17:00:00 18.14167 C 7.1 g/m*3 18.14 C 11.56667 km/h
835 18-09-2019 18:00:00 18.08333 C 6.92 g/m*3 18.08 C 8.58333 km/h
836 18-09-2019 19:00:00 15.75 C 7.28 g/m*3 15.75 C 1.06667 km/h
837 18-09-2019 20:00:00 12.30833 C 7.28 g/m*3 12.31 C 0 km/h
838 18-09-2019 21:00:00 11.525 C 7.45 g/m*3 11.53 C 0 km/h
839 18-09-2019 22:00:00 10.68333 C 7.43 g/m*3 10.68 C 0 km/h
840 18-09-2019 23:00:00 9.85833 C 7.44 g/m*3 9.86 C 0 km/h
841 19-09-2019 00:00:00 9.16667 C 7.4 g/m*3 9.17 C 0 km/h
842 19-09-2019 01:00:00 8.5 C 7.23 g/m*3 8.5 C 0 km/h
843 19-09-2019 02:00:00 7.20833 C 6.97 g/m*3 7.21 C 0 km/h
844 19-09-2019 03:00:00 6.58333 C 6.86 g/m*3 6.58 C 0 km/h
845 19-09-2019 04:00:00 6.08333 C 6.73 g/m*3 6.08 C 0 km/h
846 19-09-2019 05:00:00 5.65833 C 6.6 g/m*3 5.66 C 0 km/h
847 19-09-2019 06:00:00 5.26667 C 6.48 g/m*3 5.27 C 0 km/h
848 19-09-2019 07:00:00 5.14167 C 6.45 g/m*3 5.14 C 0 km/h
849 19-09-2019 08:00:00 5.33333 C 6.59 g/m*3 5.33 C 0 km/h
850 19-09-2019 09:00:00 6.31667 C 7.08 g/m*3 6.32 C 0 km/h
Sensor: Nr:Datum:Temp:Abs-Feuchte:Windchill:Wind:
Aussen-T/F 851 19-09-2019 10:00:00 7.725 C 7.8 g/m*3 7.73 C 0 km/h
852 19-09-2019 11:00:00 9.70833 C 8.42 g/m*3 9.71 C 0.4 km/h
853 19-09-2019 12:00:00 13.33333 C 7.53 g/m*3 13.33 C 10.35833 km/h
854 19-09-2019 13:00:00 14.46667 C 7.05 g/m*3 14.47 C 6.3 km/h
855 19-09-2019 14:00:00 15.7 C 6.76 g/m*3 15.7 C 7.38333 km/h
856 19-09-2019 15:00:00 16.48333 C 6.7 g/m*3 16.48 C 9.54167 km/h
857 19-09-2019 16:00:00 17.08333 C 6.67 g/m*3 17.08 C 9.28333 km/h
858 19-09-2019 17:00:00 18.04167 C 6.51 g/m*3 18.04 C 8.59167 km/h
859 19-09-2019 18:00:00 18.01667 C 6.64 g/m*3 18.02 C 4.96667 km/h
860 19-09-2019 19:00:00 15.00833 C 7.05 g/m*3 15.01 C 0 km/h
861 19-09-2019 20:00:00 11.975 C 6.78 g/m*3 11.98 C 0 km/h
862 19-09-2019 21:00:00 10.525 C 6.78 g/m*3 10.53 C 0 km/h
863 19-09-2019 22:00:00 9.59167 C 6.78 g/m*3 9.59 C 0 km/h
864 19-09-2019 23:00:00 8.45 C 6.65 g/m*3 8.45 C 0 km/h
865 20-09-2019 00:00:00 7.625 C 6.46 g/m*3 7.63 C 0 km/h
866 20-09-2019 01:00:00 7.05 C 6.42 g/m*3 7.05 C 0 km/h
867 20-09-2019 02:00:00 6.21667 C 6.27 g/m*3 6.22 C 0 km/h
868 20-09-2019 03:00:00 5.75 C 6.19 g/m*3 5.75 C 0 km/h
869 20-09-2019 04:00:00 5.15 C 6.09 g/m*3 5.15 C 0 km/h
870 20-09-2019 05:00:00 4.69167 C 6.03 g/m*3 4.69 C 0 km/h
871 20-09-2019 06:00:00 4.325 C 5.97 g/m*3 4.33 C 0 km/h
872 20-09-2019 07:00:00 4.125 C 5.96 g/m*3 4.13 C 0 km/h
873 20-09-2019 08:00:00 4.65 C 6.24 g/m*3 4.65 C 0 km/h
874 20-09-2019 09:00:00 5.625 C 6.69 g/m*3 5.63 C 0 km/h
875 20-09-2019 10:00:00 7.39167 C 7.47 g/m*3 7.39 C 0 km/h
Sensor: Nr:Datum:Temp:Abs-Feuchte:Windchill:Wind:
Aussen-T/F 876 20-09-2019 11:00:00 10 C 8.1 g/m*3 10 C 0 km/h
877 20-09-2019 12:00:00 13.41667 C 7.68 g/m*3 13.42 C 4.95833 km/h
878 20-09-2019 13:00:00 15.83333 C 7.25 g/m*3 15.83 C 5.21667 km/h
879 20-09-2019 14:00:00 17.63333 C 7.14 g/m*3 17.63 C 7.11667 km/h
880 20-09-2019 15:00:00 18.525 C 6.89 g/m*3 18.52 C 7.925 km/h
881 20-09-2019 16:00:00 19.26667 C 7.01 g/m*3 19.27 C 9.28333 km/h
882 20-09-2019 17:00:00 20.33333 C 7.02 g/m*3 20.33 C 8.59167 km/h
883 20-09-2019 18:00:00 20.525 C 7.17 g/m*3 20.53 C 4.55 km/h
884 20-09-2019 19:00:00 15.85 C 7.09 g/m*3 15.85 C 0.8 km/h
885 20-09-2019 20:00:00 13.7 C 6.96 g/m*3 13.7 C 1.33333 km/h
886 20-09-2019 21:00:00 11.68333 C 7.14 g/m*3 11.68 C 0 km/h
887 20-09-2019 22:00:00 9.525 C 6.97 g/m*3 9.53 C 0 km/h
888 20-09-2019 23:00:00 8.425 C 6.87 g/m*3 8.43 C 0 km/h
889 21-09-2019 00:00:00 7.44167 C 6.69 g/m*3 7.44 C 0 km/h
890 21-09-2019 01:00:00 6.85 C 6.55 g/m*3 6.85 C 0 km/h
891 21-09-2019 02:00:00 6.34167 C 6.4 g/m*3 6.34 C 0 km/h
892 21-09-2019 03:00:00 5.80833 C 6.27 g/m*3 5.81 C 0 km/h
893 21-09-2019 04:00:00 5.45833 C 6.24 g/m*3 5.46 C 0 km/h
894 21-09-2019 05:00:00 5.275 C 6.25 g/m*3 5.28 C 0 km/h
895 21-09-2019 06:00:00 4.80833 C 6.1 g/m*3 4.81 C 0 km/h
896 21-09-2019 07:00:00 4.60833 C 6.09 g/m*3 4.61 C 0 km/h
897 21-09-2019 08:00:00 4.725 C 6.21 g/m*3 4.72 C 0 km/h
898 21-09-2019 09:00:00 5.79167 C 6.72 g/m*3 5.79 C 0 km/h
899 21-09-2019 10:00:00 8.225 C 7.58 g/m*3 8.23 C 0 km/h
900 21-09-2019 11:00:00 11.40833 C 8.4 g/m*3 11.41 C 0 km/h
Sensor: Nr:Datum:Temp:Abs-Feuchte:Windchill:Wind:
Aussen-T/F 901 21-09-2019 12:00:00 14.95 C 8.6 g/m*3 14.95 C 0.66667 km/h
902 21-09-2019 13:00:00 18.2 C 7.78 g/m*3 18.2 C 4 km/h
903 21-09-2019 14:00:00 21.43333 C 6.23 g/m*3 21.43 C 7.24167 km/h
904 21-09-2019 15:00:00 22.63333 C 6.11 g/m*3 22.63 C 7.925 km/h
905 21-09-2019 16:00:00 23.23333 C 6.53 g/m*3 23.23 C 7.375 km/h
906 21-09-2019 17:00:00 24.65833 C 7.13 g/m*3 24.66 C 5.09167 km/h
907 21-09-2019 18:00:00 22.74167 C 7.97 g/m*3 22.74 C 0.66667 km/h
908 21-09-2019 19:00:00 18.49167 C 7.54 g/m*3 18.49 C 1.6 km/h
909 21-09-2019 20:00:00 16.16667 C 7.62 g/m*3 16.17 C 0.66667 km/h
910 21-09-2019 21:00:00 13.66667 C 7.8 g/m*3 13.67 C 0 km/h
911 21-09-2019 22:00:00 11.99167 C 7.62 g/m*3 11.99 C 0 km/h
912 21-09-2019 23:00:00 10.88333 C 7.52 g/m*3 10.88 C 0 km/h
913 22-09-2019 00:00:00 9.825 C 7.43 g/m*3 9.82 C 0 km/h
914 22-09-2019 01:00:00 9.08333 C 7.39 g/m*3 9.08 C 0 km/h
915 22-09-2019 02:00:00 8.425 C 7.24 g/m*3 8.43 C 0 km/h
916 22-09-2019 03:00:00 7.96667 C 7.23 g/m*3 7.97 C 0 km/h
917 22-09-2019 04:00:00 7.39167 C 7.07 g/m*3 7.39 C 0 km/h
918 22-09-2019 05:00:00 7.06667 C 7.06 g/m*3 7.07 C 0 km/h
919 22-09-2019 06:00:00 6.99167 C 7.12 g/m*3 6.99 C 0 km/h
920 22-09-2019 07:00:00 6.93333 C 7.14 g/m*3 6.93 C 0 km/h
921 22-09-2019 08:00:00 7.55833 C 7.47 g/m*3 7.56 C 0 km/h
922 22-09-2019 09:00:00 8.63333 C 8.02 g/m*3 8.63 C 0 km/h
923 22-09-2019 10:00:00 11.05 C 9.19 g/m*3 11.05 C 0 km/h
924 22-09-2019 11:00:00 14.83333 C 10.13 g/m*3 14.83 C 0 km/h
925 22-09-2019 12:00:00 17.68333 C 10.99 g/m*3 17.68 C 0 km/h
Sensor: Nr:Datum:Temp:Abs-Feuchte:Windchill:Wind:
Aussen-T/F 926 22-09-2019 13:00:00 20.70833 C 11.63 g/m*3 20.71 C 0.26667 km/h
927 22-09-2019 14:00:00 24.05 C 11.64 g/m*3 24.05 C 2.93333 km/h
928 22-09-2019 15:00:00 24.85 C 11.36 g/m*3 24.85 C 3.86667 km/h
929 22-09-2019 16:00:00 24.73333 C 12.25 g/m*3 24.73 C 0.8 km/h
930 22-09-2019 17:00:00 23.48333 C 12.59 g/m*3 23.48 C 0 km/h
931 22-09-2019 18:00:00 21.74167 C 12.24 g/m*3 21.74 C 0 km/h
932 22-09-2019 19:00:00 20.33333 C 11.45 g/m*3 20.33 C 0 km/h
933 22-09-2019 20:00:00 19.075 C 10.9 g/m*3 19.08 C 2 km/h
934 22-09-2019 21:00:00 18.175 C 10.66 g/m*3 18.18 C 1.46667 km/h
935 22-09-2019 22:00:00 18.3 C 10.92 g/m*3 18.3 C 0.13333 km/h
936 22-09-2019 23:00:00 17.80833 C 11.4 g/m*3 17.81 C 0 km/h
937 23-09-2019 00:00:00 17.55833 C 12.04 g/m*3 17.56 C 2.80833 km/h
938 23-09-2019 01:00:00 18.375 C 12.81 g/m*3 18.38 C 3.33333 km/h
939 23-09-2019 02:00:00 18.10833 C 12.21 g/m*3 18.11 C 9.26667 km/h
940 23-09-2019 03:00:00 17.2 C 12.06 g/m*3 17.2 C 4.95 km/h
941 23-09-2019 04:00:00 16.05833 C 11.82 g/m*3 16.06 C 0.93333 km/h
942 23-09-2019 05:00:00 15.14167 C 11.8 g/m*3 15.14 C 1.86667 km/h
943 23-09-2019 06:00:00 14.43333 C 11.53 g/m*3 14.43 C 0.26667 km/h
944 23-09-2019 07:00:00 14.23333 C 11.52 g/m*3 14.23 C 0 km/h
945 23-09-2019 08:00:00 14.25 C 11.64 g/m*3 14.25 C 0 km/h
946 23-09-2019 09:00:00 14.74167 C 12.1 g/m*3 14.74 C 0 km/h
947 23-09-2019 10:00:00 15.425 C 12.63 g/m*3 15.43 C 0.4 km/h
948 23-09-2019 11:00:00 16.26667 C 13.08 g/m*3 16.27 C 2.8 km/h
949 23-09-2019 12:00:00 17.06667 C 13.18 g/m*3 17.07 C 8.06667 km/h
950 23-09-2019 13:00:00 18.2 C 12.67 g/m*3 18.2 C 10.49167 km/h
Sensor: Nr:Datum:Temp:Abs-Feuchte:Windchill:Wind:
Aussen-T/F 951 23-09-2019 14:00:00 19.425 C 11.89 g/m*3 19.43 C 13.3 km/h
952 23-09-2019 15:00:00 19.61667 C 11.63 g/m*3 19.62 C 12.36667 km/h
953 23-09-2019 16:00:00 19.94167 C 11.61 g/m*3 19.94 C 14.36667 km/h
954 23-09-2019 17:00:00 20.24167 C 11.57 g/m*3 20.24 C 12.49167 km/h
955 23-09-2019 18:00:00 18.46667 C 11.71 g/m*3 18.47 C 1.2 km/h
956 23-09-2019 19:00:00 16 C 11.16 g/m*3 16 C 0.13333 km/h
957 23-09-2019 20:00:00 14.34167 C 10.75 g/m*3 14.34 C 0 km/h
958 23-09-2019 21:00:00 13.96667 C 10.85 g/m*3 13.97 C 0 km/h
959 23-09-2019 22:00:00 13.9 C 11.03 g/m*3 13.9 C 0 km/h
960 23-09-2019 23:00:00 14.11667 C 11.21 g/m*3 14.12 C 0 km/h
961 24-09-2019 00:00:00 14.33333 C 11.37 g/m*3 14.33 C 0 km/h
962 24-09-2019 01:00:00 13.95 C 11.01 g/m*3 13.95 C 0 km/h
963 24-09-2019 02:00:00 12.66667 C 10.28 g/m*3 12.67 C 0 km/h
964 24-09-2019 03:00:00 11.96667 C 9.98 g/m*3 11.97 C 0 km/h
965 24-09-2019 04:00:00 11.50833 C 9.77 g/m*3 11.51 C 0 km/h
966 24-09-2019 05:00:00 10.675 C 9.31 g/m*3 10.68 C 0 km/h
967 24-09-2019 06:00:00 10.25 C 9.1 g/m*3 10.25 C 0 km/h
968 24-09-2019 07:00:00 9.89167 C 8.94 g/m*3 9.89 C 0 km/h
969 24-09-2019 08:00:00 10.65 C 9.44 g/m*3 10.65 C 0 km/h
970 24-09-2019 09:00:00 11.35833 C 9.93 g/m*3 11.36 C 0.8 km/h
971 24-09-2019 10:00:00 12.49167 C 10.66 g/m*3 12.49 C 0 km/h
972 24-09-2019 11:00:00 14.48333 C 11.78 g/m*3 14.48 C 0.93333 km/h
973 24-09-2019 12:00:00 17.53333 C 12.03 g/m*3 17.53 C 3.88333 km/h
974 24-09-2019 13:00:00 18.59167 C 11.6 g/m*3 18.59 C 6.44167 km/h
975 24-09-2019 14:00:00 19.21667 C 11.33 g/m*3 19.22 C 1.60833 km/h
Sensor: Nr:Datum:Temp:Abs-Feuchte:Windchill:Wind:
Aussen-T/F 976 24-09-2019 15:00:00 18.63333 C 11.3 g/m*3 18.63 C 0.66667 km/h
977 24-09-2019 16:00:00 17.70833 C 12.37 g/m*3 17.71 C 0.93333 km/h
978 24-09-2019 17:00:00 16.95 C 12.96 g/m*3 16.95 C 0 km/h
979 24-09-2019 18:00:00 16.125 C 12.64 g/m*3 16.13 C 0 km/h
980 24-09-2019 19:00:00 15.1 C 12.01 g/m*3 15.1 C 0 km/h
981 24-09-2019 20:00:00 14.01667 C 11.37 g/m*3 14.02 C 0 km/h
982 24-09-2019 21:00:00 13.65 C 11.21 g/m*3 13.65 C 0 km/h
983 24-09-2019 22:00:00 13.64167 C 11.29 g/m*3 13.64 C 0 km/h
984 24-09-2019 23:00:00 13.775 C 11.42 g/m*3 13.78 C 0 km/h
985 25-09-2019 00:00:00 13.99167 C 11.57 g/m*3 13.99 C 0.13333 km/h
986 25-09-2019 01:00:00 14.13333 C 11.72 g/m*3 14.13 C 1.34167 km/h
987 25-09-2019 02:00:00 14.49167 C 11.93 g/m*3 14.49 C 3.35 km/h
988 25-09-2019 03:00:00 14.6 C 12.01 g/m*3 14.6 C 0.4 km/h
989 25-09-2019 04:00:00 14.55833 C 11.98 g/m*3 14.56 C 0.53333 km/h
990 25-09-2019 05:00:00 14.01667 C 11.59 g/m*3 14.02 C 1.33333 km/h
991 25-09-2019 06:00:00 13.64167 C 11.33 g/m*3 13.64 C 0.93333 km/h
992 25-09-2019 07:00:00 13.61667 C 11.33 g/m*3 13.62 C 0.8 km/h
993 25-09-2019 08:00:00 13.75 C 11.51 g/m*3 13.75 C 0 km/h
994 25-09-2019 09:00:00 14.33333 C 11.94 g/m*3 14.33 C 1.33333 km/h
995 25-09-2019 10:00:00 14.90833 C 12.03 g/m*3 14.91 C 8.475 km/h
996 25-09-2019 11:00:00 16.225 C 11.94 g/m*3 16.23 C 13.69167 km/h
997 25-09-2019 12:00:00 16.875 C 11.57 g/m*3 16.88 C 10.35833 km/h
998 25-09-2019 13:00:00 17.38333 C 11.46 g/m*3 17.38 C 11.81667 km/h
999 25-09-2019 14:00:00 17.38333 C 11.57 g/m*3 17.38 C 10.35833 km/h
1000 25-09-2019 15:00:00 16.325 C 12.4 g/m*3 16.33 C 4.8 km/h
Sensor: Nr:Datum:Temp:Abs-Feuchte:Windchill:Wind:
Aussen-T/F 1001 25-09-2019 16:00:00 17.08333 C 12.36 g/m*3 17.08 C 7.38333 km/h
1002 25-09-2019 17:00:00 17.53333 C 12.19 g/m*3 17.53 C 7.24167 km/h
1003 25-09-2019 18:00:00 16.775 C 11.91 g/m*3 16.77 C 2.54167 km/h
1004 25-09-2019 19:00:00 15.625 C 11.72 g/m*3 15.63 C 0.53333 km/h
1005 25-09-2019 20:00:00 15.10833 C 11.76 g/m*3 15.11 C 0 km/h
1006 25-09-2019 21:00:00 14.71667 C 11.69 g/m*3 14.72 C 0.13333 km/h
1007 25-09-2019 22:00:00 14.7 C 11.8 g/m*3 14.7 C 0 km/h
1008 25-09-2019 23:00:00 14.65833 C 11.93 g/m*3 14.66 C 0 km/h
1009 26-09-2019 00:00:00 14.55833 C 11.86 g/m*3 14.56 C 0.26667 km/h
1010 26-09-2019 01:00:00 14.23333 C 11.65 g/m*3 14.23 C 0 km/h
1011 26-09-2019 02:00:00 14.13333 C 11.67 g/m*3 14.13 C 0 km/h
1012 26-09-2019 03:00:00 13.60833 C 11.29 g/m*3 13.61 C 0 km/h
1013 26-09-2019 04:00:00 13.25833 C 11.08 g/m*3 13.26 C 0 km/h
1014 26-09-2019 05:00:00 13.90833 C 11.6 g/m*3 13.91 C 2.01667 km/h
1015 26-09-2019 06:00:00 14.125 C 11.78 g/m*3 14.13 C 0.53333 km/h
1016 26-09-2019 07:00:00 14.35833 C 11.84 g/m*3 14.36 C 0.13333 km/h
1017 26-09-2019 08:00:00 14.74167 C 12.12 g/m*3 14.74 C 0.26667 km/h
1018 26-09-2019 09:00:00 15.10833 C 12.35 g/m*3 15.11 C 0.4 km/h
1019 26-09-2019 10:00:00 15.86667 C 12.91 g/m*3 15.87 C 0.13333 km/h
1020 26-09-2019 11:00:00 16.59167 C 13.37 g/m*3 16.59 C 0.93333 km/h
1021 26-09-2019 12:00:00 17.61667 C 13.75 g/m*3 17.62 C 5.225 km/h
1022 26-09-2019 13:00:00 17.775 C 13.9 g/m*3 17.77 C 1.06667 km/h
1023 26-09-2019 14:00:00 17.51667 C 13.84 g/m*3 17.52 C 0.93333 km/h
1024 26-09-2019 15:00:00 18.05833 C 14.13 g/m*3 18.06 C 1.2 km/h
1025 26-09-2019 16:00:00 18.83333 C 14.32 g/m*3 18.83 C 4.15 km/h
Sensor: Nr:Datum:Temp:Abs-Feuchte:Windchill:Wind:
Aussen-T/F 1026 26-09-2019 17:00:00 18.91667 C 14.2 g/m*3 18.92 C 4.675 km/h
1027 26-09-2019 18:00:00 18.71667 C 14.24 g/m*3 18.72 C 2.68333 km/h
1028 26-09-2019 19:00:00 18.04167 C 13.99 g/m*3 18.04 C 2.01667 km/h
1029 26-09-2019 20:00:00 17.39167 C 13.29 g/m*3 17.39 C 6.03333 km/h
1030 26-09-2019 21:00:00 17.36667 C 13.16 g/m*3 17.37 C 5.5 km/h
1031 26-09-2019 22:00:00 17.725 C 13.08 g/m*3 17.73 C 10.23333 km/h
1032 26-09-2019 23:00:00 17.81667 C 12.99 g/m*3 17.82 C 7.5 km/h
1033 27-09-2019 00:00:00 17.98333 C 12.86 g/m*3 17.98 C 6.975 km/h
1034 27-09-2019 01:00:00 18.05 C 12.68 g/m*3 18.05 C 10.20833 km/h
1035 27-09-2019 02:00:00 17.96667 C 12.58 g/m*3 17.97 C 9.68333 km/h
1036 27-09-2019 03:00:00 16.71667 C 12.82 g/m*3 16.72 C 6.18333 km/h
1037 27-09-2019 04:00:00 16.29167 C 12.83 g/m*3 16.29 C 2.95 km/h
1038 27-09-2019 05:00:00 16.16667 C 12.81 g/m*3 16.17 C 2.13333 km/h
1039 27-09-2019 06:00:00 15.78333 C 12.67 g/m*3 15.78 C 2.15 km/h
1040 27-09-2019 07:00:00 14.41667 C 11.71 g/m*3 14.42 C 2.28333 km/h
1041 27-09-2019 08:00:00 14.1 C 11.62 g/m*3 14.1 C 0.66667 km/h
1042 27-09-2019 09:00:00 13.99167 C 11.57 g/m*3 13.99 C 3.75 km/h
1043 27-09-2019 10:00:00 14.69167 C 12.02 g/m*3 14.69 C 6.58333 km/h
1044 27-09-2019 11:00:00 15.35 C 12.16 g/m*3 15.35 C 6.7 km/h
1045 27-09-2019 12:00:00 15.96667 C 12.11 g/m*3 15.97 C 11.29167 km/h
1046 27-09-2019 13:00:00 17.29167 C 11.95 g/m*3 17.29 C 12.9 km/h
1047 27-09-2019 14:00:00 18.15833 C 11.77 g/m*3 18.16 C 14.9 km/h
1048 27-09-2019 15:00:00 18.21667 C 11.79 g/m*3 18.22 C 13.83333 km/h
1049 27-09-2019 16:00:00 17.96667 C 11.79 g/m*3 17.97 C 12.1 km/h
1050 27-09-2019 17:00:00 18.98333 C 11.78 g/m*3 18.98 C 12.36667 km/h
Sensor: Nr:Datum:Temp:Abs-Feuchte:Windchill:Wind:
Aussen-T/F 1051 27-09-2019 18:00:00 18.01667 C 11.54 g/m*3 18.02 C 10.75833 km/h
1052 27-09-2019 19:00:00 16.05833 C 11.25 g/m*3 16.06 C 3.75833 km/h
1053 27-09-2019 20:00:00 15.13333 C 11.37 g/m*3 15.13 C 0.26667 km/h
1054 27-09-2019 21:00:00 14.275 C 11.06 g/m*3 14.28 C 0.26667 km/h
1055 27-09-2019 22:00:00 13.83333 C 11.04 g/m*3 13.83 C 0 km/h
1056 27-09-2019 23:00:00 13.5 C 10.98 g/m*3 13.5 C 0 km/h
1057 28-09-2019 00:00:00 12.875 C 10.64 g/m*3 12.88 C 0.66667 km/h
1058 28-09-2019 01:00:00 12.90833 C 10.72 g/m*3 12.91 C 3.21667 km/h
1059 28-09-2019 02:00:00 14.21667 C 11.16 g/m*3 14.22 C 9.13333 km/h
1060 28-09-2019 03:00:00 14.825 C 11.33 g/m*3 14.83 C 6.45 km/h
1061 28-09-2019 04:00:00 14.04167 C 11.17 g/m*3 14.04 C 5.63333 km/h
1062 28-09-2019 05:00:00 13.95 C 11.05 g/m*3 13.95 C 6.84167 km/h
1063 28-09-2019 06:00:00 14.4 C 11.21 g/m*3 14.4 C 9.4 km/h
1064 28-09-2019 07:00:00 14.1 C 11.28 g/m*3 14.1 C 1.875 km/h
1065 28-09-2019 08:00:00 13.89167 C 11.18 g/m*3 13.89 C 7.94167 km/h
1066 28-09-2019 09:00:00 14.35833 C 11.11 g/m*3 14.36 C 12.225 km/h
1067 28-09-2019 10:00:00 15.4 C 11.21 g/m*3 15.4 C 12.75833 km/h
1068 28-09-2019 11:00:00 16.30833 C 11.15 g/m*3 16.31 C 17.43333 km/h
1069 28-09-2019 12:00:00 16.85 C 11.27 g/m*3 16.85 C 13.16667 km/h
1070 28-09-2019 13:00:00 17.21667 C 11.3 g/m*3 17.22 C 17.3 km/h
1071 28-09-2019 14:00:00 17.49167 C 11.4 g/m*3 17.49 C 17.3 km/h
1072 28-09-2019 15:00:00 17.16667 C 11.3 g/m*3 17.17 C 15.43333 km/h
1073 28-09-2019 16:00:00 17.35833 C 11.48 g/m*3 17.36 C 14.23333 km/h
1074 28-09-2019 17:00:00 17.71667 C 11.43 g/m*3 17.72 C 15.96667 km/h
1075 28-09-2019 18:00:00 17.14167 C 11.18 g/m*3 17.14 C 11.025 km/h
Sensor: Nr:Datum:Temp:Abs-Feuchte:Windchill:Wind:
Aussen-T/F 1076 28-09-2019 19:00:00 15.7 C 10.78 g/m*3 15.7 C 8.99167 km/h
1077 28-09-2019 20:00:00 15.24167 C 10.7 g/m*3 15.24 C 5.89167 km/h
1078 28-09-2019 21:00:00 14.975 C 10.58 g/m*3 14.98 C 7.79167 km/h
1079 28-09-2019 22:00:00 15.13333 C 10.51 g/m*3 15.13 C 9.53333 km/h
1080 28-09-2019 23:00:00 14.15 C 10.33 g/m*3 14.15 C 4.55 km/h
1081 29-09-2019 00:00:00 13.875 C 10.33 g/m*3 13.88 C 2.81667 km/h
1082 29-09-2019 01:00:00 13.95 C 10.4 g/m*3 13.95 C 0.66667 km/h
1083 29-09-2019 02:00:00 13.65 C 10.49 g/m*3 13.65 C 0 km/h
1084 29-09-2019 03:00:00 13.48333 C 10.54 g/m*3 13.48 C 0 km/h
1085 29-09-2019 04:00:00 13.525 C 10.66 g/m*3 13.53 C 0 km/h
1086 29-09-2019 05:00:00 13.81667 C 10.66 g/m*3 13.82 C 0.26667 km/h
1087 29-09-2019 06:00:00 13.94167 C 10.43 g/m*3 13.94 C 0.93333 km/h
1088 29-09-2019 07:00:00 14.025 C 10.46 g/m*3 14.03 C 1.33333 km/h
1089 29-09-2019 08:00:00 14.95833 C 10.59 g/m*3 14.96 C 5.75833 km/h
1090 29-09-2019 09:00:00 16.53333 C 10.83 g/m*3 16.53 C 13.69167 km/h
1091 29-09-2019 10:00:00 17.45833 C 10.94 g/m*3 17.46 C 19.175 km/h
1092 29-09-2019 11:00:00 17.74167 C 11 g/m*3 17.74 C 17.84167 km/h
1093 29-09-2019 12:00:00 18.25833 C 11.19 g/m*3 18.26 C 17.16667 km/h
1094 29-09-2019 13:00:00 18.1 C 11.15 g/m*3 18.1 C 13.03333 km/h
1095 29-09-2019 14:00:00 18.61667 C 10.9 g/m*3 18.62 C 21.325 km/h
1096 29-09-2019 15:00:00 18.21667 C 11.38 g/m*3 18.22 C 17.44167 km/h
1097 29-09-2019 16:00:00 17.10833 C 11.91 g/m*3 17.11 C 13.025 km/h
1098 29-09-2019 17:00:00 17 C 11.93 g/m*3 17 C 12.35833 km/h
1099 29-09-2019 18:00:00 17.5 C 12.36 g/m*3 17.5 C 12.1 km/h
1100 29-09-2019 19:00:00 17.70833 C 12.54 g/m*3 17.71 C 15.56667 km/h
Sensor: Nr:Datum:Temp:Abs-Feuchte:Windchill:Wind:
Aussen-T/F 1101 29-09-2019 20:00:00 17.275 C 12.96 g/m*3 17.27 C 5.9 km/h
1102 29-09-2019 21:00:00 16.79167 C 13.17 g/m*3 16.79 C 5.63333 km/h
1103 29-09-2019 22:00:00 16.91667 C 13.29 g/m*3 16.92 C 12.08333 km/h
1104 29-09-2019 23:00:00 16.61667 C 13 g/m*3 16.62 C 14.49167 km/h
1105 30-09-2019 00:00:00 15.65 C 11.66 g/m*3 15.65 C 18.11667 km/h
1106 30-09-2019 01:00:00 15.34167 C 11.27 g/m*3 15.34 C 18.225 km/h
1107 30-09-2019 02:00:00 15.15833 C 11.2 g/m*3 15.16 C 17.03333 km/h
1108 30-09-2019 03:00:00 15.25833 C 11.31 g/m*3 15.26 C 15.3 km/h
1109 30-09-2019 04:00:00 15.04167 C 11.38 g/m*3 15.04 C 11.95 km/h
1110 30-09-2019 05:00:00 13.75833 C 10.95 g/m*3 13.76 C 9.925 km/h
1111 30-09-2019 06:00:00 13.19167 C 10.65 g/m*3 13.19 C 9.93333 km/h
1112 30-09-2019 07:00:00 13.08333 C 10.34 g/m*3 13.08 C 10.08333 km/h
1113 30-09-2019 08:00:00 13.29167 C 10.07 g/m*3 13.29 C 12.1 km/h
1114 30-09-2019 09:00:00 13.94167 C 10 g/m*3 13.94 C 13.3 km/h
1115 30-09-2019 10:00:00 14.45 C 10.08 g/m*3 14.45 C 14.5 km/h
1116 30-09-2019 11:00:00 15.13333 C 10.09 g/m*3 15.13 C 15.16667 km/h
1117 30-09-2019 12:00:00 15.71667 C 9.81 g/m*3 15.72 C 16.76667 km/h
1118 30-09-2019 13:00:00 16.40833 C 9.68 g/m*3 16.41 C 15.56667 km/h
1119 30-09-2019 14:00:00 17.10833 C 9.71 g/m*3 17.11 C 14.23333 km/h
1120 30-09-2019 15:00:00 17.75833 C 9.83 g/m*3 17.76 C 14.63333 km/h
1121 30-09-2019 16:00:00 18.45833 C 9.85 g/m*3 18.46 C 14.36667 km/h
1122 30-09-2019 17:00:00 18.45 C 9.54 g/m*3 18.45 C 12.1 km/h
1123 30-09-2019 18:00:00 17.69167 C 10.24 g/m*3 17.69 C 3.34167 km/h
1124 30-09-2019 19:00:00 14.83333 C 10.22 g/m*3 14.83 C 0.4 km/h
1125 30-09-2019 20:00:00 14.20833 C 10.42 g/m*3 14.21 C 3.34167 km/h
Sensor: Nr:Datum:Temp:Abs-Feuchte:Windchill:Wind:
Aussen-T/F 1126 30-09-2019 21:00:00 14.69167 C 10.71 g/m*3 14.69 C 3.74167 km/h
1127 30-09-2019 22:00:00 14.68333 C 10.7 g/m*3 14.68 C 3.6 km/h
1128 30-09-2019 23:00:00 14.23333 C 10.44 g/m*3 14.23 C 1.06667 km/h
1129 01-10-2019 00:00:00 14.33333 C 10.41 g/m*3 14.33 C 0.4 km/h
1130 01-10-2019 01:00:00 14.025 C 10.47 g/m*3 14.03 C 1.2 km/h
1131 01-10-2019 02:00:00 13.60833 C 10.24 g/m*3 13.61 C 0 km/h
1132 01-10-2019 03:00:00 12.65 C 9.88 g/m*3 12.65 C 0 km/h
1133 01-10-2019 04:00:00 13.275 C 10.3 g/m*3 13.28 C 3.48333 km/h
1134 01-10-2019 05:00:00 14.40833 C 10.55 g/m*3 14.41 C 7.8 km/h
1135 01-10-2019 06:00:00 15.00833 C 10.98 g/m*3 15.01 C 11.55833 km/h
1136 01-10-2019 07:00:00 15.375 C 11.38 g/m*3 15.38 C 15.56667 km/h
1137 01-10-2019 08:00:00 15.5 C 11.54 g/m*3 15.5 C 14.1 km/h
1138 01-10-2019 09:00:00 16.125 C 11.82 g/m*3 16.13 C 13.7 km/h
1139 01-10-2019 10:00:00 17.09167 C 12.35 g/m*3 17.09 C 14.9 km/h
1140 01-10-2019 11:00:00 17.53333 C 12.69 g/m*3 17.53 C 14.63333 km/h
1141 01-10-2019 12:00:00 17.36667 C 13.11 g/m*3 17.37 C 12.225 km/h
1142 01-10-2019 13:00:00 18.575 C 12.46 g/m*3 18.58 C 9.41667 km/h
1143 01-10-2019 14:00:00 18.35833 C 13.01 g/m*3 18.36 C 8.34167 km/h
1144 01-10-2019 15:00:00 19.08333 C 13.57 g/m*3 19.08 C 11.425 km/h
1145 01-10-2019 16:00:00 18.26667 C 13.78 g/m*3 18.27 C 5.775 km/h
1146 01-10-2019 17:00:00 17.6 C 13.95 g/m*3 17.6 C 0.66667 km/h
1147 01-10-2019 18:00:00 16.725 C 13.21 g/m*3 16.73 C 1.2 km/h
1148 01-10-2019 19:00:00 16.19167 C 12.98 g/m*3 16.19 C 0 km/h
1149 01-10-2019 20:00:00 15.875 C 12.82 g/m*3 15.88 C 0.66667 km/h
1150 01-10-2019 21:00:00 15.85 C 12.85 g/m*3 15.85 C 1.46667 km/h
Sensor: Nr:Datum:Temp:Abs-Feuchte:Windchill:Wind:
Aussen-T/F 1151 01-10-2019 22:00:00 15.5 C 12.56 g/m*3 15.5 C 1.60833 km/h
1152 01-10-2019 23:00:00 15.225 C 12.35 g/m*3 15.23 C 3.06667 km/h
1153 02-10-2019 00:00:00 15.15833 C 12.3 g/m*3 15.16 C 3.35833 km/h
1154 02-10-2019 01:00:00 15.20833 C 12.24 g/m*3 15.21 C 4.14167 km/h
1155 02-10-2019 02:00:00 14.975 C 12 g/m*3 14.98 C 1.2 km/h
1156 02-10-2019 03:00:00 14.95833 C 11.96 g/m*3 14.96 C 7.26667 km/h
1157 02-10-2019 04:00:00 15.08333 C 11.86 g/m*3 15.08 C 4.55 km/h
1158 02-10-2019 05:00:00 14.69167 C 11.66 g/m*3 14.69 C 3.48333 km/h
1159 02-10-2019 06:00:00 13.59167 C 10.82 g/m*3 13.59 C 10.2 km/h
1160 02-10-2019 07:00:00 11.80833 C 9.71 g/m*3 11.81 C 11.3 km/h
1161 02-10-2019 08:00:00 10.74167 C 9.16 g/m*3 9.02 C 13.43333 km/h
1162 02-10-2019 09:00:00 10.46667 C 8.8 g/m*3 9.65 C 7.51667 km/h
1163 02-10-2019 10:00:00 10.86667 C 8.73 g/m*3 10.04 C 7.91667 km/h
1164 02-10-2019 11:00:00 11.33333 C 8.56 g/m*3 11.33 C 11.01667 km/h
1165 02-10-2019 12:00:00 11.86667 C 8.52 g/m*3 11.87 C 9.125 km/h
1166 02-10-2019 13:00:00 12.65833 C 8.48 g/m*3 12.66 C 9.54167 km/h
1167 02-10-2019 14:00:00 13.49167 C 8.19 g/m*3 13.49 C 9.55833 km/h
1168 02-10-2019 15:00:00 13.66667 C 7.87 g/m*3 13.67 C 11.825 km/h
1169 02-10-2019 16:00:00 13.8 C 7.37 g/m*3 13.8 C 14.1 km/h
1170 02-10-2019 17:00:00 14.26667 C 7.55 g/m*3 14.27 C 12.21667 km/h
1171 02-10-2019 18:00:00 12.9 C 7.68 g/m*3 12.9 C 10.89167 km/h
1172 02-10-2019 19:00:00 11.325 C 7.61 g/m*3 11.33 C 5.76667 km/h
1173 02-10-2019 20:00:00 10.04167 C 7.5 g/m*3 10.04 C 4.825 km/h
1174 02-10-2019 21:00:00 9.875 C 7.51 g/m*3 9.88 C 3.20833 km/h
1175 02-10-2019 22:00:00 8.61667 C 7.37 g/m*3 8.62 C 0.66667 km/h
Sensor: Nr:Datum:Temp:Abs-Feuchte:Windchill:Wind:
Aussen-T/F 1176 02-10-2019 23:00:00 8.48333 C 7.43 g/m*3 8.48 C 3.875 km/h
1177 03-10-2019 00:00:00 9.33333 C 7.66 g/m*3 9.33 C 4.41667 km/h
1178 03-10-2019 01:00:00 9.25833 C 7.75 g/m*3 9.26 C 4.68333 km/h
1179 03-10-2019 02:00:00 9.21667 C 7.73 g/m*3 9.22 C 3.73333 km/h
1180 03-10-2019 03:00:00 8.525 C 7.52 g/m*3 8.53 C 1.86667 km/h
1181 03-10-2019 04:00:00 7.63333 C 7.29 g/m*3 7.63 C 1.33333 km/h
1182 03-10-2019 05:00:00 7.94167 C 7.49 g/m*3 7.94 C 4.41667 km/h
1183 03-10-2019 06:00:00 7.45 C 7.26 g/m*3 7.45 C 1.2 km/h
1184 03-10-2019 07:00:00 7.2 C 7.29 g/m*3 7.2 C 1.6 km/h
1185 03-10-2019 08:00:00 7.74167 C 7.49 g/m*3 7.74 C 4.96667 km/h
1186 03-10-2019 09:00:00 9.34167 C 7.9 g/m*3 8.53 C 6.70833 km/h
1187 03-10-2019 10:00:00 10.36667 C 8.23 g/m*3 9.45 C 7.925 km/h
1188 03-10-2019 11:00:00 12.23333 C 8.75 g/m*3 12.23 C 8.725 km/h
1189 03-10-2019 12:00:00 12.55833 C 9.02 g/m*3 12.56 C 6.16667 km/h
1190 03-10-2019 13:00:00 12.225 C 9.57 g/m*3 12.23 C 0.13333 km/h
1191 03-10-2019 14:00:00 11.68333 C 9.65 g/m*3 11.68 C 0.8 km/h
1192 03-10-2019 15:00:00 11.88333 C 10.01 g/m*3 11.88 C 0.8 km/h
1193 03-10-2019 16:00:00 12.15833 C 10.02 g/m*3 12.16 C 2.41667 km/h
1194 03-10-2019 17:00:00 11.75833 C 9.81 g/m*3 11.76 C 0 km/h
1195 03-10-2019 18:00:00 10.81667 C 9.3 g/m*3 10.82 C 1.06667 km/h
1196 03-10-2019 19:00:00 9.90833 C 8.84 g/m*3 9.91 C 0.8 km/h
1197 03-10-2019 20:00:00 9.36667 C 8.58 g/m*3 9.37 C 0 km/h
1198 03-10-2019 21:00:00 9.00833 C 8.45 g/m*3 9.01 C 0 km/h
1199 03-10-2019 22:00:00 8.625 C 8.26 g/m*3 8.63 C 0 km/h
1200 03-10-2019 23:00:00 8.375 C 8.13 g/m*3 8.38 C 0 km/h
Sensor: Nr:Datum:Temp:Abs-Feuchte:Windchill:Wind:
Aussen-T/F 1201 04-10-2019 00:00:00 8.38333 C 8.14 g/m*3 8.38 C 0 km/h
1202 04-10-2019 01:00:00 8.21667 C 8.07 g/m*3 8.22 C 0.13333 km/h
1203 04-10-2019 02:00:00 8.19167 C 8.08 g/m*3 8.19 C 0 km/h
1204 04-10-2019 03:00:00 8.05833 C 8.04 g/m*3 8.06 C 0 km/h
1205 04-10-2019 04:00:00 7.71667 C 7.86 g/m*3 7.72 C 0 km/h
1206 04-10-2019 05:00:00 7.90833 C 7.97 g/m*3 7.91 C 0 km/h
1207 04-10-2019 06:00:00 7.96667 C 8 g/m*3 7.97 C 0.93333 km/h
1208 04-10-2019 07:00:00 8.13333 C 8.09 g/m*3 8.13 C 2.68333 km/h
1209 04-10-2019 08:00:00 8.45833 C 8.26 g/m*3 8.46 C 1.06667 km/h
1210 04-10-2019 09:00:00 8.70833 C 8.39 g/m*3 8.71 C 0.8 km/h
1211 04-10-2019 10:00:00 9.125 C 8.61 g/m*3 9.13 C 3.875 km/h
1212 04-10-2019 11:00:00 9.75833 C 8.88 g/m*3 9.26 C 5.75833 km/h
1213 04-10-2019 12:00:00 10.65 C 9.33 g/m*3 10.65 C 3.06667 km/h
1214 04-10-2019 13:00:00 11.25833 C 9.61 g/m*3 11.26 C 2 km/h
1215 04-10-2019 14:00:00 13.03333 C 10.33 g/m*3 13.03 C 7.53333 km/h
1216 04-10-2019 15:00:00 13.81667 C 10.48 g/m*3 13.82 C 6.98333 km/h
1217 04-10-2019 16:00:00 14.05833 C 10.83 g/m*3 14.06 C 1.875 km/h
1218 04-10-2019 17:00:00 13.36667 C 10.78 g/m*3 13.37 C 2.13333 km/h
1219 04-10-2019 18:00:00 12.35833 C 10.26 g/m*3 12.36 C 1.46667 km/h
1220 04-10-2019 19:00:00 11.70833 C 9.98 g/m*3 11.71 C 1.06667 km/h
1221 04-10-2019 20:00:00 11.63333 C 10 g/m*3 11.63 C 2.53333 km/h
1222 04-10-2019 21:00:00 11.65833 C 10.01 g/m*3 11.66 C 5.775 km/h
1223 04-10-2019 22:00:00 11.69167 C 9.97 g/m*3 11.69 C 4.29167 km/h
1224 04-10-2019 23:00:00 11.71667 C 9.99 g/m*3 11.72 C 5.9 km/h
1225 05-10-2019 00:00:00 11.96667 C 9.86 g/m*3 11.97 C 7.10833 km/h
Sensor: Nr:Datum:Temp:Abs-Feuchte:Windchill:Wind:
Aussen-T/F 1226 05-10-2019 01:00:00 12.09167 C 9.86 g/m*3 12.09 C 6.85833 km/h
1227 05-10-2019 02:00:00 12.225 C 9.8 g/m*3 12.23 C 7.64167 km/h
1228 05-10-2019 03:00:00 12.3 C 9.94 g/m*3 12.3 C 3.20833 km/h
1229 05-10-2019 04:00:00 11.55 C 9.64 g/m*3 11.55 C 5.90833 km/h
1230 05-10-2019 05:00:00 10.75833 C 9.21 g/m*3 10.24 C 6.44167 km/h
1231 05-10-2019 06:00:00 10.20833 C 8.93 g/m*3 10.21 C 2.275 km/h
1232 05-10-2019 07:00:00 9.98333 C 8.77 g/m*3 9.98 C 3.6 km/h
1233 05-10-2019 08:00:00 9.81667 C 8.54 g/m*3 9.82 C 2.26667 km/h
1234 05-10-2019 09:00:00 10.18333 C 8.62 g/m*3 10.18 C 4.94167 km/h
1235 05-10-2019 10:00:00 10.55833 C 8.61 g/m*3 9.6 C 8.325 km/h
1236 05-10-2019 11:00:00 10.70833 C 8.11 g/m*3 9.72 C 8.60833 km/h
1237 05-10-2019 12:00:00 11.2 C 8.17 g/m*3 11.2 C 6.575 km/h
1238 05-10-2019 13:00:00 11.9 C 8.22 g/m*3 11.9 C 4.26667 km/h
1239 05-10-2019 14:00:00 11.89167 C 8.27 g/m*3 11.89 C 2.40833 km/h
1240 05-10-2019 15:00:00 12.23333 C 8.36 g/m*3 12.23 C 0.93333 km/h
1241 05-10-2019 16:00:00 12.3 C 8.75 g/m*3 12.3 C 0.66667 km/h
1242 05-10-2019 17:00:00 12.06667 C 9 g/m*3 12.07 C 0.13333 km/h
1243 05-10-2019 18:00:00 11.125 C 8.64 g/m*3 11.13 C 0 km/h
1244 05-10-2019 19:00:00 9.50833 C 7.87 g/m*3 9.51 C 0.4 km/h
1245 05-10-2019 20:00:00 8.35833 C 7.46 g/m*3 8.36 C 1.33333 km/h
1246 05-10-2019 21:00:00 7.875 C 7.44 g/m*3 7.88 C 0 km/h
1247 05-10-2019 22:00:00 7.43333 C 7.44 g/m*3 7.43 C 0 km/h
1248 05-10-2019 23:00:00 7.35 C 7.45 g/m*3 7.35 C 0 km/h
1249 06-10-2019 00:00:00 7.13333 C 7.36 g/m*3 7.13 C 0 km/h
1250 06-10-2019 01:00:00 6.55 C 7.11 g/m*3 6.55 C 0 km/h
Sensor: Nr:Datum:Temp:Abs-Feuchte:Windchill:Wind:
Aussen-T/F 1251 06-10-2019 02:00:00 6.7 C 7.26 g/m*3 6.7 C 0 km/h
1252 06-10-2019 03:00:00 7.05833 C 7.47 g/m*3 7.06 C 0 km/h
1253 06-10-2019 04:00:00 7.2 C 7.54 g/m*3 7.2 C 0 km/h
1254 06-10-2019 05:00:00 7.18333 C 7.53 g/m*3 7.18 C 0 km/h
1255 06-10-2019 06:00:00 7.38333 C 7.63 g/m*3 7.38 C 0 km/h
1256 06-10-2019 07:00:00 7.65833 C 7.76 g/m*3 7.66 C 0 km/h
1257 06-10-2019 08:00:00 7.84167 C 7.86 g/m*3 7.84 C 0 km/h
1258 06-10-2019 09:00:00 8.31667 C 8.1 g/m*3 8.32 C 0 km/h
1259 06-10-2019 10:00:00 8.63333 C 8.22 g/m*3 8.63 C 0.8 km/h
1260 06-10-2019 11:00:00 8.55833 C 8.21 g/m*3 8.56 C 3.6 km/h
1261 06-10-2019 12:00:00 8.78333 C 8.35 g/m*3 8.78 C 0.26667 km/h
1262 06-10-2019 13:00:00 9.06667 C 8.5 g/m*3 9.07 C 0.66667 km/h
1263 06-10-2019 14:00:00 9.25 C 8.6 g/m*3 9.25 C 1.06667 km/h
1264 06-10-2019 15:00:00 9.45833 C 8.72 g/m*3 9.46 C 0.53333 km/h
1265 06-10-2019 16:00:00 9.61667 C 8.8 g/m*3 9.62 C 1.86667 km/h
1266 06-10-2019 17:00:00 9.51667 C 8.75 g/m*3 9.52 C 0.53333 km/h
1267 06-10-2019 18:00:00 9.325 C 8.64 g/m*3 9.32 C 3.225 km/h
1268 06-10-2019 19:00:00 9.15 C 8.57 g/m*3 9.15 C 3.60833 km/h
1269 06-10-2019 20:00:00 9.1 C 8.61 g/m*3 9.1 C 0.4 km/h
1270 06-10-2019 21:00:00 9.04167 C 8.57 g/m*3 9.04 C 1.74167 km/h
1271 06-10-2019 22:00:00 8.81667 C 8.45 g/m*3 8.82 C 1.875 km/h
1272 06-10-2019 23:00:00 8.83333 C 8.46 g/m*3 8.83 C 0 km/h
1273 07-10-2019 00:00:00 8.9 C 8.5 g/m*3 8.9 C 0.26667 km/h
1274 07-10-2019 01:00:00 8.725 C 8.4 g/m*3 8.73 C 2.95 km/h
1275 07-10-2019 02:00:00 8.69167 C 8.38 g/m*3 8.69 C 0.13333 km/h
Sensor: Nr:Datum:Temp:Abs-Feuchte:Windchill:Wind:
Aussen-T/F 1276 07-10-2019 03:00:00 8.60833 C 8.34 g/m*3 8.61 C 1.33333 km/h
1277 07-10-2019 04:00:00 8.7 C 8.39 g/m*3 8.7 C 0 km/h
1278 07-10-2019 05:00:00 8.64167 C 8.36 g/m*3 8.64 C 1.86667 km/h
1279 07-10-2019 06:00:00 8.6 C 8.34 g/m*3 8.6 C 0.13333 km/h
1280 07-10-2019 07:00:00 8.6 C 8.34 g/m*3 8.6 C 0 km/h
1281 07-10-2019 08:00:00 8.66667 C 8.37 g/m*3 8.67 C 0 km/h
1282 07-10-2019 09:00:00 8.83333 C 8.46 g/m*3 8.83 C 0.26667 km/h
1283 07-10-2019 10:00:00 9.08333 C 8.6 g/m*3 9.08 C 1.06667 km/h
1284 07-10-2019 11:00:00 9.65 C 8.88 g/m*3 9.65 C 3.34167 km/h
1285 07-10-2019 12:00:00 10.51667 C 9.05 g/m*3 10.52 C 2.4 km/h
1286 07-10-2019 13:00:00 10.84167 C 9 g/m*3 10.84 C 2.675 km/h
1287 07-10-2019 14:00:00 11.46667 C 9.1 g/m*3 11.47 C 5.89167 km/h
1288 07-10-2019 15:00:00 12.225 C 9.43 g/m*3 12.23 C 1.86667 km/h
1289 07-10-2019 16:00:00 12.29167 C 9.53 g/m*3 12.29 C 1.33333 km/h
1290 07-10-2019 17:00:00 12.3 C 9.56 g/m*3 12.3 C 2.4 km/h
1291 07-10-2019 18:00:00 11.86667 C 9.56 g/m*3 11.87 C 0.53333 km/h
1292 07-10-2019 19:00:00 11.09167 C 9.35 g/m*3 11.09 C 0 km/h
1293 07-10-2019 20:00:00 10.725 C 9.32 g/m*3 10.73 C 0 km/h
1294 07-10-2019 21:00:00 10.975 C 9.58 g/m*3 10.98 C 0 km/h
1295 07-10-2019 22:00:00 11.1 C 9.67 g/m*3 11.1 C 0.26667 km/h
1296 07-10-2019 23:00:00 11.1 C 9.67 g/m*3 11.1 C 0.26667 km/h
1297 08-10-2019 00:00:00 11.11667 C 9.75 g/m*3 11.12 C 0.53333 km/h
1298 08-10-2019 01:00:00 11.25 C 9.79 g/m*3 11.25 C 1.33333 km/h
1299 08-10-2019 02:00:00 11.44167 C 9.88 g/m*3 11.44 C 0.93333 km/h
1300 08-10-2019 03:00:00 11.75833 C 10.05 g/m*3 11.76 C 3.75833 km/h
Sensor: Nr:Datum:Temp:Abs-Feuchte:Windchill:Wind:
Aussen-T/F 1301 08-10-2019 04:00:00 11.9 C 10.03 g/m*3 11.9 C 3.61667 km/h
1302 08-10-2019 05:00:00 12.31667 C 10 g/m*3 12.32 C 8.46667 km/h
1303 08-10-2019 06:00:00 12.18333 C 9.96 g/m*3 12.18 C 4.3 km/h
1304 08-10-2019 07:00:00 11.79167 C 9.97 g/m*3 11.79 C 2.53333 km/h
1305 08-10-2019 08:00:00 11.825 C 10.1 g/m*3 11.83 C 5.775 km/h
1306 08-10-2019 09:00:00 12.03333 C 10.25 g/m*3 12.03 C 10.05833 km/h
1307 08-10-2019 10:00:00 12.49167 C 10.45 g/m*3 12.49 C 12.76667 km/h
1308 08-10-2019 11:00:00 13.5 C 10.89 g/m*3 13.5 C 13.7 km/h
1309 08-10-2019 12:00:00 13.85833 C 10.95 g/m*3 13.86 C 14.36667 km/h
1310 08-10-2019 13:00:00 14.225 C 11.19 g/m*3 14.23 C 9.93333 km/h
1311 08-10-2019 14:00:00 14.6 C 11.43 g/m*3 14.6 C 10.075 km/h
1312 08-10-2019 15:00:00 14.48333 C 11.47 g/m*3 14.48 C 9.55 km/h
1313 08-10-2019 16:00:00 14.225 C 11.56 g/m*3 14.23 C 6.70833 km/h
1314 08-10-2019 17:00:00 14.05833 C 11.55 g/m*3 14.06 C 3.61667 km/h
1315 08-10-2019 18:00:00 13.86667 C 11.49 g/m*3 13.87 C 3.09167 km/h
1316 08-10-2019 19:00:00 13.79167 C 11.43 g/m*3 13.79 C 1.875 km/h
1317 08-10-2019 20:00:00 13.55 C 11.3 g/m*3 13.55 C 0.53333 km/h
1318 08-10-2019 21:00:00 13.225 C 11.14 g/m*3 13.23 C 0.13333 km/h
1319 08-10-2019 22:00:00 12.825 C 10.88 g/m*3 12.83 C 0 km/h
1320 08-10-2019 23:00:00 11.68333 C 10.05 g/m*3 11.68 C 0.53333 km/h
1321 09-10-2019 00:00:00 10.78333 C 9.56 g/m*3 10.78 C 0.13333 km/h
1322 09-10-2019 01:00:00 10.34167 C 9.31 g/m*3 10.34 C 0.13333 km/h
1323 09-10-2019 02:00:00 10.35 C 9.33 g/m*3 10.35 C 1.2 km/h
1324 09-10-2019 03:00:00 10.625 C 9.52 g/m*3 10.63 C 3.35833 km/h
1325 09-10-2019 04:00:00 10.98333 C 9.72 g/m*3 10.77 C 5.36667 km/h
Sensor: Nr:Datum:Temp:Abs-Feuchte:Windchill:Wind:
Aussen-T/F 1326 09-10-2019 05:00:00 10.79167 C 9.58 g/m*3 10.59 C 5.225 km/h
1327 09-10-2019 06:00:00 10.925 C 9.66 g/m*3 10.37 C 6.69167 km/h
1328 09-10-2019 07:00:00 10.64167 C 9.4 g/m*3 10.64 C 4.54167 km/h
1329 09-10-2019 08:00:00 10.73333 C 9.48 g/m*3 10.73 C 4.95833 km/h
1330 09-10-2019 09:00:00 11.2 C 9.76 g/m*3 11.2 C 5.36667 km/h
1331 09-10-2019 10:00:00 12.55 C 10.19 g/m*3 12.55 C 7.38333 km/h
1332 09-10-2019 11:00:00 13.55833 C 10.43 g/m*3 13.56 C 3.46667 km/h
1333 09-10-2019 12:00:00 13.90833 C 10.64 g/m*3 13.91 C 5.225 km/h
1334 09-10-2019 13:00:00 13.59167 C 10.87 g/m*3 13.59 C 1.34167 km/h
1335 09-10-2019 14:00:00 12.925 C 10.43 g/m*3 12.93 C 3.74167 km/h
1336 09-10-2019 15:00:00 12.28333 C 10.09 g/m*3 12.28 C 9.01667 km/h
1337 09-10-2019 16:00:00 12.775 C 10.02 g/m*3 12.78 C 8.86667 km/h
1338 09-10-2019 17:00:00 12.975 C 9.81 g/m*3 12.98 C 10.20833 km/h
1339 09-10-2019 18:00:00 12.525 C 9.54 g/m*3 12.53 C 11.28333 km/h
1340 09-10-2019 19:00:00 11.84167 C 9.37 g/m*3 11.84 C 9.675 km/h
1341 09-10-2019 20:00:00 11.20833 C 9.09 g/m*3 11.21 C 6.3 km/h
1342 09-10-2019 21:00:00 11.06667 C 9.07 g/m*3 11.07 C 8.2 km/h
1343 09-10-2019 22:00:00 11.10833 C 8.69 g/m*3 11.11 C 14.23333 km/h
1344 09-10-2019 23:00:00 10.8 C 8.53 g/m*3 9.33 C 11.7 km/h
1345 10-10-2019 00:00:00 10.375 C 8.45 g/m*3 8.64 C 12.89167 km/h
1346 10-10-2019 01:00:00 10.15833 C 8.49 g/m*3 9.61 C 6.15833 km/h
1347 10-10-2019 02:00:00 10.39167 C 8.71 g/m*3 10.39 C 4.825 km/h
1348 10-10-2019 03:00:00 10.68333 C 8.93 g/m*3 10.68 C 4.81667 km/h
1349 10-10-2019 04:00:00 10.56667 C 8.95 g/m*3 9.64 C 8.18333 km/h
1350 10-10-2019 05:00:00 10.40833 C 9.02 g/m*3 10.41 C 3.2 km/h
Sensor: Nr:Datum:Temp:Abs-Feuchte:Windchill:Wind:
Aussen-T/F 1351 10-10-2019 06:00:00 10.44167 C 9.05 g/m*3 10.11 C 5.49167 km/h
1352 10-10-2019 07:00:00 10.09167 C 8.79 g/m*3 9.37 C 6.84167 km/h
1353 10-10-2019 08:00:00 9.81667 C 8.56 g/m*3 8.93 C 7.375 km/h
1354 10-10-2019 09:00:00 10.675 C 8.79 g/m*3 9.59 C 9.13333 km/h
1355 10-10-2019 10:00:00 11.29167 C 8.88 g/m*3 11.29 C 11.825 km/h
1356 10-10-2019 11:00:00 12.33333 C 9.13 g/m*3 12.33 C 12.89167 km/h
1357 10-10-2019 12:00:00 13.35 C 9.1 g/m*3 13.35 C 14.1 km/h
1358 10-10-2019 13:00:00 14.28333 C 8.73 g/m*3 14.28 C 16.5 km/h
1359 10-10-2019 14:00:00 14.53333 C 9.12 g/m*3 14.53 C 12.20833 km/h
1360 10-10-2019 15:00:00 15.09167 C 9.33 g/m*3 15.09 C 12.76667 km/h
1361 10-10-2019 16:00:00 15.37778 C 9.32 g/m*3 15.38 C 12.01111 km/h
1362 10-10-2019 17:00:00 13.83333 C 9.62 g/m*3 13.83 C 9.675 km/h
1363 10-10-2019 18:00:00 13.18333 C 9.53 g/m*3 13.18 C 4.15 km/h
1364 10-10-2019 19:00:00 11.68333 C 9.19 g/m*3 11.68 C 3.475 km/h
1365 10-10-2019 20:00:00 11.69167 C 9.23 g/m*3 11.69 C 4.95 km/h
1366 10-10-2019 21:00:00 10.88333 C 9 g/m*3 10.88 C 0.26667 km/h
1367 10-10-2019 22:00:00 10.18333 C 8.9 g/m*3 10.18 C 0.13333 km/h
1368 10-10-2019 23:00:00 9.8 C 8.77 g/m*3 9.8 C 0.93333 km/h
1369 11-10-2019 00:00:00 9.575 C 8.73 g/m*3 9.57 C 1.06667 km/h
1370 11-10-2019 01:00:00 9.19167 C 8.52 g/m*3 9.19 C 0.8 km/h
1371 11-10-2019 02:00:00 8.83333 C 8.36 g/m*3 8.83 C 0 km/h
1372 11-10-2019 03:00:00 8.98333 C 8.48 g/m*3 8.98 C 1.74167 km/h
1373 11-10-2019 04:00:00 9.49167 C 8.72 g/m*3 9.49 C 3.86667 km/h
1374 11-10-2019 05:00:00 9.45833 C 8.62 g/m*3 9.46 C 2.40833 km/h
1375 11-10-2019 06:00:00 9.43333 C 8.6 g/m*3 9.43 C 0.4 km/h
Sensor: Nr:Datum:Temp:Abs-Feuchte:Windchill:Wind:
Aussen-T/F 1376 11-10-2019 07:00:00 9.91667 C 8.89 g/m*3 9.92 C 1.60833 km/h
1377 11-10-2019 08:00:00 10.98333 C 9.5 g/m*3 10.98 C 2.80833 km/h
1378 11-10-2019 09:00:00 12.425 C 10.21 g/m*3 12.43 C 3.21667 km/h
1379 11-10-2019 10:00:00 13.35833 C 10.58 g/m*3 13.36 C 3.34167 km/h
1380 11-10-2019 11:00:00 14.85833 C 10.83 g/m*3 14.86 C 11.68333 km/h
1381 11-10-2019 12:00:00 15.85 C 10.72 g/m*3 15.85 C 16.1 km/h
1382 11-10-2019 13:00:00 16.39167 C 10.82 g/m*3 16.39 C 11.15 km/h
1383 11-10-2019 14:00:00 16.29167 C 10.86 g/m*3 16.29 C 11.275 km/h
1384 11-10-2019 15:00:00 16.56667 C 10.9 g/m*3 16.57 C 11.03333 km/h
1385 11-10-2019 16:00:00 16.6 C 11.02 g/m*3 16.6 C 10.61667 km/h
1386 11-10-2019 17:00:00 16.66667 C 11.09 g/m*3 16.67 C 9 km/h
1387 11-10-2019 18:00:00 16.04167 C 11.1 g/m*3 16.04 C 4.03333 km/h
1388 11-10-2019 19:00:00 14.19167 C 10.81 g/m*3 14.19 C 0.4 km/h
1389 11-10-2019 20:00:00 13.55833 C 10.81 g/m*3 13.56 C 0 km/h
1390 11-10-2019 21:00:00 12.80833 C 10.44 g/m*3 12.81 C 0 km/h
1391 11-10-2019 22:00:00 12.075 C 10.11 g/m*3 12.08 C 0 km/h
1392 11-10-2019 23:00:00 11.81667 C 10.03 g/m*3 11.82 C 0 km/h
1393 12-10-2019 00:00:00 11.11667 C 9.59 g/m*3 11.12 C 0 km/h
1394 12-10-2019 01:00:00 10.63333 C 9.39 g/m*3 10.63 C 0 km/h
1395 12-10-2019 02:00:00 10.30833 C 9.2 g/m*3 10.31 C 0.13333 km/h
1396 12-10-2019 03:00:00 9.95833 C 9 g/m*3 9.96 C 0 km/h
1397 12-10-2019 04:00:00 10.01667 C 9.12 g/m*3 10.02 C 0 km/h
1398 12-10-2019 05:00:00 9.58333 C 8.84 g/m*3 9.58 C 0 km/h
1399 12-10-2019 06:00:00 8.89167 C 8.49 g/m*3 8.89 C 0 km/h
1400 12-10-2019 07:00:00 8.74167 C 8.41 g/m*3 8.74 C 0 km/h
Sensor: Nr:Datum:Temp:Abs-Feuchte:Windchill:Wind:
Aussen-T/F 1401 12-10-2019 08:00:00 8.86667 C 8.48 g/m*3 8.87 C 0 km/h
1402 12-10-2019 09:00:00 9.28333 C 8.73 g/m*3 9.28 C 0.93333 km/h
1403 12-10-2019 10:00:00 11.75 C 10.28 g/m*3 11.75 C 5.225 km/h
1404 12-10-2019 11:00:00 14.25 C 11.36 g/m*3 14.25 C 9.80833 km/h
1405 12-10-2019 12:00:00 16.45 C 11.47 g/m*3 16.45 C 7.79167 km/h
1406 12-10-2019 13:00:00 17.975 C 11.63 g/m*3 17.98 C 11.825 km/h
1407 12-10-2019 14:00:00 19.40833 C 11.8 g/m*3 19.41 C 13.56667 km/h
1408 12-10-2019 15:00:00 19.93333 C 11.86 g/m*3 19.93 C 14.76667 km/h
1409 12-10-2019 16:00:00 19.6 C 12.11 g/m*3 19.6 C 13.7 km/h
1410 12-10-2019 17:00:00 18.85 C 12.1 g/m*3 18.85 C 9.26667 km/h
1411 12-10-2019 18:00:00 17.225 C 12.21 g/m*3 17.23 C 0.26667 km/h
1412 12-10-2019 19:00:00 15.61667 C 11.8 g/m*3 15.62 C 0 km/h
1413 12-10-2019 20:00:00 14.93333 C 11.5 g/m*3 14.93 C 0 km/h
1414 12-10-2019 21:00:00 14.51667 C 11.56 g/m*3 14.52 C 1.6 km/h
1415 12-10-2019 22:00:00 14.925 C 11.72 g/m*3 14.93 C 0.26667 km/h
1416 12-10-2019 23:00:00 14.375 C 11.54 g/m*3 14.38 C 0 km/h
1417 13-10-2019 00:00:00 13.65 C 11.13 g/m*3 13.65 C 0.13333 km/h
1418 13-10-2019 01:00:00 13.11667 C 10.87 g/m*3 13.12 C 0 km/h
1419 13-10-2019 02:00:00 13.30833 C 11.14 g/m*3 13.31 C 0 km/h
1420 13-10-2019 03:00:00 13.40833 C 11.18 g/m*3 13.41 C 0 km/h
1421 13-10-2019 04:00:00 13 C 10.94 g/m*3 13 C 0.26667 km/h
1422 13-10-2019 05:00:00 13.54167 C 11.37 g/m*3 13.54 C 0 km/h
1423 13-10-2019 06:00:00 13.79167 C 11.55 g/m*3 13.79 C 0 km/h
1424 13-10-2019 07:00:00 13.76667 C 11.53 g/m*3 13.77 C 0 km/h
1425 13-10-2019 08:00:00 13.11667 C 11.08 g/m*3 13.12 C 0.4 km/h
Sensor: Nr:Datum:Temp:Abs-Feuchte:Windchill:Wind:
Aussen-T/F 1426 13-10-2019 09:00:00 13.46667 C 11.38 g/m*3 13.47 C 0 km/h
1427 13-10-2019 10:00:00 14.23333 C 11.98 g/m*3 14.23 C 0 km/h
1428 13-10-2019 11:00:00 15.63333 C 13.06 g/m*3 15.63 C 1.2 km/h
1429 13-10-2019 12:00:00 17.325 C 14.43 g/m*3 17.33 C 2.14167 km/h
1430 13-10-2019 13:00:00 19.45833 C 15.3 g/m*3 19.46 C 2.00833 km/h
1431 13-10-2019 14:00:00 21.65833 C 14.76 g/m*3 21.66 C 4.54167 km/h
1432 13-10-2019 15:00:00 22.03333 C 14.76 g/m*3 22.03 C 4.025 km/h
1433 13-10-2019 16:00:00 21.96667 C 14.92 g/m*3 21.97 C 2.54167 km/h
1434 13-10-2019 17:00:00 21.125 C 14.87 g/m*3 21.13 C 0.93333 km/h
1435 13-10-2019 18:00:00 19.51667 C 14.41 g/m*3 19.52 C 0.8 km/h
1436 13-10-2019 19:00:00 18.45 C 13.93 g/m*3 18.45 C 0.4 km/h
1437 13-10-2019 20:00:00 18.11667 C 13.66 g/m*3 18.12 C 0.26667 km/h
1438 13-10-2019 21:00:00 17.41667 C 13.24 g/m*3 17.42 C 0.26667 km/h
1439 13-10-2019 22:00:00 17.06667 C 12.86 g/m*3 17.07 C 0.13333 km/h
1440 13-10-2019 23:00:00 16.56667 C 12.52 g/m*3 16.57 C 0.26667 km/h
1441 14-10-2019 00:00:00 15.825 C 12.14 g/m*3 15.83 C 0 km/h
1442 14-10-2019 01:00:00 15.41667 C 11.97 g/m*3 15.42 C 0 km/h
1443 14-10-2019 02:00:00 14.91667 C 11.73 g/m*3 14.92 C 0 km/h
1444 14-10-2019 03:00:00 14.14167 C 11.33 g/m*3 14.14 C 0.26667 km/h
1445 14-10-2019 04:00:00 13.45833 C 11 g/m*3 13.46 C 0 km/h
1446 14-10-2019 05:00:00 13.36667 C 11.08 g/m*3 13.37 C 0.26667 km/h
1447 14-10-2019 06:00:00 12.9 C 10.73 g/m*3 12.9 C 0 km/h
1448 14-10-2019 07:00:00 12.75 C 10.7 g/m*3 12.75 C 1.2 km/h
1449 14-10-2019 08:00:00 12.88333 C 10.81 g/m*3 12.88 C 0 km/h
1450 14-10-2019 09:00:00 13.24167 C 11.07 g/m*3 13.24 C 0 km/h
Sensor: Nr:Datum:Temp:Abs-Feuchte:Windchill:Wind:
Aussen-T/F 1451 14-10-2019 10:00:00 13.64167 C 11.39 g/m*3 13.64 C 0 km/h
1452 14-10-2019 11:00:00 14.90833 C 12.37 g/m*3 14.91 C 0 km/h
1453 14-10-2019 12:00:00 16.49167 C 13.51 g/m*3 16.49 C 0 km/h
1454 14-10-2019 13:00:00 18.55833 C 14.17 g/m*3 18.56 C 1.73333 km/h
1455 14-10-2019 14:00:00 21.1 C 14.13 g/m*3 21.1 C 3.75 km/h
1456 14-10-2019 15:00:00 21.11667 C 13.92 g/m*3 21.12 C 2.675 km/h
1457 14-10-2019 16:00:00 20.775 C 13.38 g/m*3 20.78 C 2.81667 km/h
1458 14-10-2019 17:00:00 19.81667 C 13.44 g/m*3 19.82 C 0 km/h
1459 14-10-2019 18:00:00 18.93333 C 13.13 g/m*3 18.93 C 0.26667 km/h
1460 14-10-2019 19:00:00 17.43333 C 12.92 g/m*3 17.43 C 0.26667 km/h
1461 14-10-2019 20:00:00 16.71667 C 12.54 g/m*3 16.72 C 0.13333 km/h
1462 14-10-2019 21:00:00 15.88333 C 12.05 g/m*3 15.88 C 0 km/h
1463 14-10-2019 22:00:00 14.875 C 11.7 g/m*3 14.88 C 0.26667 km/h
1464 14-10-2019 23:00:00 15.075 C 11.86 g/m*3 15.08 C 0.26667 km/h
1465 15-10-2019 00:00:00 15.08333 C 11.86 g/m*3 15.08 C 0.13333 km/h
1466 15-10-2019 01:00:00 14.4 C 11.41 g/m*3 14.4 C 0.13333 km/h
1467 15-10-2019 02:00:00 13.43333 C 10.9 g/m*3 13.43 C 0 km/h
1468 15-10-2019 03:00:00 12.725 C 10.54 g/m*3 12.73 C 0 km/h
1469 15-10-2019 04:00:00 12.38333 C 10.41 g/m*3 12.38 C 0.8 km/h
1470 15-10-2019 05:00:00 11.95833 C 10.18 g/m*3 11.96 C 0 km/h
1471 15-10-2019 06:00:00 12.09167 C 10.35 g/m*3 12.09 C 0.26667 km/h
1472 15-10-2019 07:00:00 11.96667 C 10.24 g/m*3 11.97 C 0 km/h
1473 15-10-2019 08:00:00 11.79167 C 10.19 g/m*3 11.79 C 0 km/h
1474 15-10-2019 09:00:00 12.36667 C 10.58 g/m*3 12.37 C 0 km/h
1475 15-10-2019 10:00:00 13.25833 C 11.18 g/m*3 13.26 C 0.8 km/h
Sensor: Nr:Datum:Temp:Abs-Feuchte:Windchill:Wind:
Aussen-T/F 1476 15-10-2019 11:00:00 15.375 C 12.54 g/m*3 15.38 C 2.54167 km/h
1477 15-10-2019 12:00:00 17.68333 C 12.87 g/m*3 17.68 C 6.58333 km/h
1478 15-10-2019 13:00:00 18.10833 C 12.43 g/m*3 18.11 C 9 km/h
1479 15-10-2019 14:00:00 17.73333 C 12.25 g/m*3 17.73 C 7.11667 km/h
1480 15-10-2019 15:00:00 17.21667 C 12.02 g/m*3 17.22 C 5.625 km/h
1481 15-10-2019 16:00:00 16.65833 C 12.09 g/m*3 16.66 C 1.86667 km/h
1482 15-10-2019 17:00:00 16.28333 C 12.2 g/m*3 16.28 C 0.13333 km/h
1483 15-10-2019 18:00:00 15.11667 C 11.88 g/m*3 15.12 C 0.66667 km/h
1484 15-10-2019 19:00:00 14.29167 C 11.58 g/m*3 14.29 C 0 km/h
1485 15-10-2019 20:00:00 13.925 C 11.41 g/m*3 13.93 C 0 km/h
1486 15-10-2019 21:00:00 13.65 C 11.27 g/m*3 13.65 C 0 km/h
1487 15-10-2019 22:00:00 13.41667 C 11.17 g/m*3 13.42 C 2.275 km/h
1488 15-10-2019 23:00:00 12.925 C 10.73 g/m*3 12.93 C 7.39167 km/h
1489 16-10-2019 00:00:00 12.10833 C 10.18 g/m*3 12.11 C 3.48333 km/h
1490 16-10-2019 01:00:00 11.85833 C 10.11 g/m*3 11.86 C 0.13333 km/h
1491 16-10-2019 02:00:00 11.8 C 10.1 g/m*3 11.8 C 0.26667 km/h
1492 16-10-2019 03:00:00 11.775 C 10.09 g/m*3 11.78 C 4.425 km/h
1493 16-10-2019 04:00:00 11.625 C 9.99 g/m*3 11.63 C 2.675 km/h
1494 16-10-2019 05:00:00 11.425 C 9.87 g/m*3 11.43 C 1.33333 km/h
1495 16-10-2019 06:00:00 11.18333 C 9.63 g/m*3 11.18 C 6.975 km/h
1496 16-10-2019 07:00:00 10.95833 C 9.38 g/m*3 10.96 C 2.26667 km/h
1497 16-10-2019 08:00:00 10.65 C 9.2 g/m*3 10.65 C 2.81667 km/h
1498 16-10-2019 09:00:00 10.925 C 9.44 g/m*3 10.93 C 1.6 km/h
1499 16-10-2019 10:00:00 12.44167 C 9.99 g/m*3 12.44 C 3.2 km/h
1500 16-10-2019 11:00:00 13.79167 C 10.29 g/m*3 13.79 C 5.9 km/h
Sensor: Nr:Datum:Temp:Abs-Feuchte:Windchill:Wind:
Aussen-T/F 1501 16-10-2019 12:00:00 14.55 C 10.54 g/m*3 14.55 C 5.64167 km/h
1502 16-10-2019 13:00:00 14.08333 C 11.05 g/m*3 14.08 C 0.53333 km/h
1503 16-10-2019 14:00:00 13.51667 C 11.02 g/m*3 13.52 C 2.275 km/h
1504 16-10-2019 15:00:00 13.91667 C 11.37 g/m*3 13.92 C 1.73333 km/h
1505 16-10-2019 16:00:00 14.34167 C 11.6 g/m*3 14.34 C 2.4 km/h
1506 16-10-2019 17:00:00 14.36667 C 11.66 g/m*3 14.37 C 0.26667 km/h
1507 16-10-2019 18:00:00 13.90833 C 11.39 g/m*3 13.91 C 0.13333 km/h
1508 16-10-2019 19:00:00 13.53333 C 11.25 g/m*3 13.53 C 0 km/h
1509 16-10-2019 20:00:00 13.25 C 11.06 g/m*3 13.25 C 0.26667 km/h
1510 16-10-2019 21:00:00 12.71667 C 10.7 g/m*3 12.72 C 0.26667 km/h
1511 16-10-2019 22:00:00 12.55833 C 10.59 g/m*3 12.56 C 0.26667 km/h
1512 16-10-2019 23:00:00 12.4 C 10.53 g/m*3 12.4 C 0.66667 km/h
1513 17-10-2019 00:00:00 12.64167 C 10.65 g/m*3 12.64 C 0.26667 km/h
1514 17-10-2019 01:00:00 12.61667 C 10.63 g/m*3 12.62 C 0.26667 km/h
1515 17-10-2019 02:00:00 12.375 C 10.47 g/m*3 12.38 C 0.26667 km/h
1516 17-10-2019 03:00:00 12.76667 C 10.67 g/m*3 12.77 C 1.2 km/h
1517 17-10-2019 04:00:00 13.575 C 10.86 g/m*3 13.58 C 1.6 km/h
1518 17-10-2019 05:00:00 14.19167 C 10.9 g/m*3 14.19 C 3.20833 km/h
1519 17-10-2019 06:00:00 14.23333 C 10.88 g/m*3 14.23 C 4.00833 km/h
1520 17-10-2019 07:00:00 14.24167 C 10.97 g/m*3 14.24 C 2.68333 km/h
1521 17-10-2019 08:00:00 14.58333 C 10.96 g/m*3 14.58 C 6.85 km/h
1522 17-10-2019 09:00:00 15.36667 C 11.12 g/m*3 15.37 C 7.39167 km/h
1523 17-10-2019 10:00:00 15.86667 C 11.24 g/m*3 15.87 C 9.39167 km/h
1524 17-10-2019 11:00:00 16.65833 C 11.61 g/m*3 16.66 C 3.88333 km/h
1525 17-10-2019 12:00:00 16.65833 C 11.92 g/m*3 16.66 C 2.26667 km/h
Sensor: Nr:Datum:Temp:Abs-Feuchte:Windchill:Wind:
Aussen-T/F 1526 17-10-2019 13:00:00 16.81667 C 11.88 g/m*3 16.82 C 5.50833 km/h
1527 17-10-2019 14:00:00 16.84167 C 12.29 g/m*3 16.84 C 0.93333 km/h
1528 17-10-2019 15:00:00 16.63333 C 12.31 g/m*3 16.63 C 0.8 km/h
1529 17-10-2019 16:00:00 15.85 C 12.31 g/m*3 15.85 C 0.26667 km/h
1530 17-10-2019 17:00:00 15.14167 C 12.15 g/m*3 15.14 C 0.13333 km/h
1531 17-10-2019 18:00:00 14.61667 C 11.9 g/m*3 14.62 C 0.26667 km/h
1532 17-10-2019 19:00:00 14.15833 C 11.65 g/m*3 14.16 C 0 km/h
1533 17-10-2019 20:00:00 14.08333 C 11.64 g/m*3 14.08 C 0.4 km/h
1534 17-10-2019 21:00:00 13.9 C 11.6 g/m*3 13.9 C 0.53333 km/h
1535 17-10-2019 22:00:00 13.85 C 11.59 g/m*3 13.85 C 0.13333 km/h
1536 17-10-2019 23:00:00 13.89167 C 11.62 g/m*3 13.89 C 0.66667 km/h
1537 18-10-2019 00:00:00 13.825 C 11.58 g/m*3 13.83 C 0.93333 km/h
1538 18-10-2019 01:00:00 12.83333 C 10.88 g/m*3 12.83 C 0.4 km/h
1539 18-10-2019 02:00:00 12.125 C 10.42 g/m*3 12.13 C 0 km/h
1540 18-10-2019 03:00:00 11.58333 C 10.07 g/m*3 11.58 C 0.4 km/h
1541 18-10-2019 04:00:00 11.49167 C 10.01 g/m*3 11.49 C 0.26667 km/h
1542 18-10-2019 05:00:00 11.80833 C 10.25 g/m*3 11.81 C 0.66667 km/h
1543 18-10-2019 06:00:00 12.7 C 10.91 g/m*3 12.7 C 1.6 km/h
1544 18-10-2019 07:00:00 12.60833 C 10.81 g/m*3 12.61 C 0.13333 km/h
1545 18-10-2019 08:00:00 12.8 C 10.98 g/m*3 12.8 C 0.26667 km/h
1546 18-10-2019 09:00:00 13.4 C 11.39 g/m*3 13.4 C 0 km/h
1547 18-10-2019 10:00:00 14.38333 C 12.1 g/m*3 14.38 C 1.33333 km/h
1548 18-10-2019 11:00:00 14.66667 C 12.23 g/m*3 14.67 C 3.88333 km/h
1549 18-10-2019 12:00:00 15.46667 C 11.78 g/m*3 15.47 C 7.25 km/h
1550 18-10-2019 13:00:00 14.95833 C 10.73 g/m*3 14.96 C 15.175 km/h
Sensor: Nr:Datum:Temp:Abs-Feuchte:Windchill:Wind:
Aussen-T/F 1551 18-10-2019 14:00:00 12.91667 C 9.64 g/m*3 12.92 C 16.50833 km/h
1552 18-10-2019 15:00:00 13.8 C 9.6 g/m*3 13.8 C 12.89167 km/h
1553 18-10-2019 16:00:00 14.23333 C 9.29 g/m*3 14.23 C 15.425 km/h
1554 18-10-2019 17:00:00 14.40833 C 9.06 g/m*3 14.41 C 9.8 km/h
1555 18-10-2019 18:00:00 12.64167 C 8.93 g/m*3 12.64 C 2.41667 km/h
1556 18-10-2019 19:00:00 10.63333 C 8.68 g/m*3 10.63 C 0.26667 km/h
1557 18-10-2019 20:00:00 9.75833 C 8.5 g/m*3 9.76 C 0 km/h
1558 18-10-2019 21:00:00 9.20833 C 8.34 g/m*3 9.21 C 0 km/h
1559 18-10-2019 22:00:00 9.23333 C 8.49 g/m*3 9.23 C 0 km/h
1560 18-10-2019 23:00:00 9.14167 C 8.45 g/m*3 9.14 C 0 km/h
1561 19-10-2019 00:00:00 9.14167 C 8.47 g/m*3 9.14 C 0.66667 km/h
1562 19-10-2019 01:00:00 9.64167 C 8.68 g/m*3 9.64 C 0.4 km/h
1563 19-10-2019 02:00:00 9.65833 C 8.67 g/m*3 9.66 C 0 km/h
1564 19-10-2019 03:00:00 9.875 C 8.76 g/m*3 9.88 C 0 km/h
1565 19-10-2019 04:00:00 10.10833 C 8.89 g/m*3 10.11 C 0.53333 km/h
1566 19-10-2019 05:00:00 10.68333 C 9.21 g/m*3 10.68 C 0.93333 km/h
1567 19-10-2019 06:00:00 10.70833 C 9.19 g/m*3 10.71 C 0 km/h
1568 19-10-2019 07:00:00 10.64167 C 9.23 g/m*3 10.64 C 0 km/h
1569 19-10-2019 08:00:00 11.05 C 9.54 g/m*3 11.05 C 0.26667 km/h
1570 19-10-2019 09:00:00 11.875 C 9.97 g/m*3 11.88 C 0.4 km/h
1571 19-10-2019 10:00:00 13.025 C 10.3 g/m*3 13.03 C 1.2 km/h
1572 19-10-2019 11:00:00 13.825 C 10.9 g/m*3 13.83 C 3.35 km/h
1573 19-10-2019 12:00:00 15.40833 C 11.24 g/m*3 15.41 C 3.34167 km/h
1574 19-10-2019 13:00:00 16.2 C 11.32 g/m*3 16.2 C 4.95833 km/h
1575 19-10-2019 14:00:00 16.9 C 11.41 g/m*3 16.9 C 7.5 km/h
Sensor: Nr:Datum:Temp:Abs-Feuchte:Windchill:Wind:
Aussen-T/F 1576 19-10-2019 15:00:00 17.24167 C 11.33 g/m*3 17.24 C 6.30833 km/h
1577 19-10-2019 16:00:00 17.15 C 11.4 g/m*3 17.15 C 1.475 km/h
1578 19-10-2019 17:00:00 16.84167 C 11.6 g/m*3 16.84 C 2.00833 km/h
1579 19-10-2019 18:00:00 15.16364 C 11.61 g/m*3 15.16 C 0.87273 km/h
1580 19-10-2019 19:00:00 14.03333 C 11.32 g/m*3 14.03 C 0 km/h
1581 19-10-2019 20:00:00 13.625 C 11.19 g/m*3 13.63 C 0 km/h
1582 19-10-2019 21:00:00 13.43333 C 11.14 g/m*3 13.43 C 0.53333 km/h
1583 19-10-2019 22:00:00 13.21667 C 11.03 g/m*3 13.22 C 0 km/h
1584 19-10-2019 23:00:00 13.00833 C 10.89 g/m*3 13.01 C 0 km/h
1585 20-10-2019 00:00:00 13 C 10.96 g/m*3 13 C 0 km/h
1586 20-10-2019 01:00:00 13.13333 C 11.09 g/m*3 13.13 C 0 km/h
1587 20-10-2019 02:00:00 13.11667 C 11.08 g/m*3 13.12 C 0 km/h
1588 20-10-2019 03:00:00 13.1 C 11.07 g/m*3 13.1 C 0 km/h
1589 20-10-2019 04:00:00 13.16667 C 11.11 g/m*3 13.17 C 0 km/h
1590 20-10-2019 05:00:00 12.96667 C 10.98 g/m*3 12.97 C 0.26667 km/h
1591 20-10-2019 06:00:00 12.74167 C 10.83 g/m*3 12.74 C 0 km/h
1592 20-10-2019 07:00:00 12.65 C 10.76 g/m*3 12.65 C 0 km/h
1593 20-10-2019 08:00:00 12.70833 C 10.8 g/m*3 12.71 C 0 km/h
1594 20-10-2019 09:00:00 12.84167 C 10.96 g/m*3 12.84 C 0.13333 km/h
1595 20-10-2019 10:00:00 13.04167 C 11.1 g/m*3 13.04 C 0.13333 km/h
1596 20-10-2019 11:00:00 13.25833 C 11.26 g/m*3 13.26 C 0.53333 km/h
1597 20-10-2019 12:00:00 13.69167 C 11.6 g/m*3 13.69 C 0 km/h
1598 20-10-2019 13:00:00 13.96667 C 11.8 g/m*3 13.97 C 0.13333 km/h
1599 20-10-2019 14:00:00 14.275 C 12.02 g/m*3 14.28 C 0.53333 km/h
1600 20-10-2019 15:00:00 14.525 C 12.21 g/m*3 14.53 C 0 km/h
Sensor: Nr:Datum:Temp:Abs-Feuchte:Windchill:Wind:
Aussen-T/F 1601 20-10-2019 16:00:00 14.83333 C 12.44 g/m*3 14.83 C 0.26667 km/h
1602 20-10-2019 17:00:00 14.85 C 12.45 g/m*3 14.85 C 0 km/h
1603 20-10-2019 18:00:00 14.45833 C 12.16 g/m*3 14.46 C 0 km/h
1604 20-10-2019 19:00:00 14.20833 C 11.97 g/m*3 14.21 C 0 km/h
1605 20-10-2019 20:00:00 14.03333 C 11.85 g/m*3 14.03 C 0 km/h
1606 20-10-2019 21:00:00 14.05833 C 11.86 g/m*3 14.06 C 0.26667 km/h
1607 20-10-2019 22:00:00 13.90909 C 11.76 g/m*3 13.91 C 0 km/h
1608 20-10-2019 23:00:00 13.925 C 11.77 g/m*3 13.93 C 0.26667 km/h
1609 21-10-2019 00:00:00 14.24167 C 12 g/m*3 14.24 C 4.95833 km/h
1610 21-10-2019 01:00:00 14.14167 C 11.92 g/m*3 14.14 C 0 km/h
1611 21-10-2019 02:00:00 13.74167 C 11.63 g/m*3 13.74 C 0 km/h
1612 21-10-2019 03:00:00 13.66667 C 11.58 g/m*3 13.67 C 0 km/h
1613 21-10-2019 04:00:00 13.11667 C 11.19 g/m*3 13.12 C 0 km/h
1614 21-10-2019 05:00:00 13.21667 C 11.26 g/m*3 13.22 C 0.13333 km/h
1615 21-10-2019 06:00:00 13.60833 C 11.54 g/m*3 13.61 C 0 km/h
1616 21-10-2019 07:00:00 13.31667 C 11.33 g/m*3 13.32 C 0 km/h
1617 21-10-2019 08:00:00 12.70833 C 10.91 g/m*3 12.71 C 0 km/h
1618 21-10-2019 09:00:00 12.9 C 11.05 g/m*3 12.9 C 0 km/h
1619 21-10-2019 10:00:00 13.49167 C 11.49 g/m*3 13.49 C 0.4 km/h
1620 21-10-2019 11:00:00 14.00833 C 11.83 g/m*3 14.01 C 2 km/h
1621 21-10-2019 12:00:00 14.60833 C 12.29 g/m*3 14.61 C 3.35 km/h
1622 21-10-2019 13:00:00 15.91667 C 12.04 g/m*3 15.92 C 11.025 km/h
1623 21-10-2019 14:00:00 16.70833 C 11.69 g/m*3 16.71 C 6.31667 km/h
1624 21-10-2019 15:00:00 16.375 C 11.27 g/m*3 16.38 C 6.96667 km/h
1625 21-10-2019 16:00:00 15.86667 C 10.94 g/m*3 15.87 C 4.95 km/h
Sensor: Nr:Datum:Temp:Abs-Feuchte:Windchill:Wind:
Aussen-T/F 1626 21-10-2019 17:00:00 14.73333 C 10.79 g/m*3 14.73 C 1.60833 km/h
1627 21-10-2019 18:00:00 13.72727 C 10.33 g/m*3 13.73 C 0.87273 km/h
1628 21-10-2019 19:00:00 12.49167 C 9.92 g/m*3 12.49 C 0 km/h
1629 21-10-2019 20:00:00 11.75 C 9.69 g/m*3 11.75 C 0 km/h
1630 21-10-2019 21:00:00 11.38333 C 9.6 g/m*3 11.38 C 0 km/h
1631 21-10-2019 22:00:00 11.325 C 9.6 g/m*3 11.33 C 0 km/h
1632 21-10-2019 23:00:00 11.21667 C 9.52 g/m*3 11.22 C 0 km/h
1633 22-10-2019 00:00:00 10.825 C 9.36 g/m*3 10.83 C 0 km/h
1634 22-10-2019 01:00:00 11.01667 C 9.52 g/m*3 11.02 C 0.26667 km/h
1635 22-10-2019 02:00:00 10.94167 C 9.47 g/m*3 10.94 C 0 km/h
1636 22-10-2019 03:00:00 10.875 C 9.42 g/m*3 10.88 C 0 km/h
1637 22-10-2019 04:00:00 10.66667 C 9.29 g/m*3 10.67 C 0 km/h
1638 22-10-2019 05:00:00 10 C 8.92 g/m*3 10 C 0 km/h
1639 22-10-2019 06:00:00 10.1 C 9.08 g/m*3 10.1 C 0 km/h
1640 22-10-2019 07:00:00 9.975 C 8.95 g/m*3 9.98 C 0 km/h
1641 22-10-2019 08:00:00 9.875 C 8.95 g/m*3 9.88 C 0 km/h
1642 22-10-2019 09:00:00 10.44167 C 9.25 g/m*3 10.44 C 1.2 km/h
1643 22-10-2019 10:00:00 11.36667 C 9.62 g/m*3 11.37 C 3.6 km/h
1644 22-10-2019 11:00:00 12.78333 C 9.88 g/m*3 12.78 C 4.675 km/h
1645 22-10-2019 12:00:00 13.61667 C 10 g/m*3 13.62 C 1.06667 km/h
1646 22-10-2019 13:00:00 14.35714 C 10.15 g/m*3 14.36 C 1.82857 km/h
1647 22-10-2019 14:00:00 15.08333 C 9.99 g/m*3 15.08 C 3.2 km/h
1648 22-10-2019 15:00:00 14.68333 C 10.31 g/m*3 14.68 C 0.26667 km/h
1649 22-10-2019 16:00:00 13.78333 C 10.36 g/m*3 13.78 C 0 km/h
1650 22-10-2019 17:00:00 13.31667 C 10.17 g/m*3 13.32 C 0.13333 km/h
Sensor: Nr:Datum:Temp:Abs-Feuchte:Windchill:Wind:
Aussen-T/F 1651 22-10-2019 18:00:00 12.55 C 9.64 g/m*3 12.55 C 1.33333 km/h
1652 22-10-2019 19:00:00 11.74167 C 9.48 g/m*3 11.74 C 0 km/h
1653 22-10-2019 20:00:00 10.70833 C 9.16 g/m*3 10.71 C 0 km/h
1654 22-10-2019 21:00:00 10.125 C 8.96 g/m*3 10.13 C 0 km/h
1655 22-10-2019 22:00:00 10.20833 C 9.13 g/m*3 10.21 C 0 km/h
1656 22-10-2019 23:00:00 9.9 C 8.94 g/m*3 9.9 C 0 km/h
1657 23-10-2019 00:00:00 8.98333 C 8.43 g/m*3 8.98 C 0 km/h
1658 23-10-2019 01:00:00 8.61667 C 8.26 g/m*3 8.62 C 0 km/h
1659 23-10-2019 02:00:00 8.20833 C 8.04 g/m*3 8.21 C 0 km/h
1660 23-10-2019 03:00:00 8.00833 C 8 g/m*3 8.01 C 0 km/h
1661 23-10-2019 04:00:00 7.83333 C 7.93 g/m*3 7.83 C 0 km/h
1662 23-10-2019 05:00:00 8.16667 C 8.11 g/m*3 8.17 C 0 km/h
1663 23-10-2019 06:00:00 8.13333 C 8.09 g/m*3 8.13 C 0 km/h
1664 23-10-2019 07:00:00 7.95 C 7.99 g/m*3 7.95 C 0 km/h
1665 23-10-2019 08:00:00 7.86667 C 7.97 g/m*3 7.87 C 0.13333 km/h
1666 23-10-2019 09:00:00 8.70833 C 8.47 g/m*3 8.71 C 1.06667 km/h
1667 23-10-2019 10:00:00 9.60833 C 8.98 g/m*3 9.61 C 0.13333 km/h
1668 23-10-2019 11:00:00 10.98333 C 9.8 g/m*3 10.98 C 3.20833 km/h
1669 23-10-2019 12:00:00 11.825 C 10.16 g/m*3 11.83 C 7.11667 km/h
1670 23-10-2019 13:00:00 12.95833 C 10.43 g/m*3 12.96 C 5.50833 km/h
1671 23-10-2019 14:00:00 13.84167 C 10.72 g/m*3 13.84 C 6.975 km/h
1672 23-10-2019 15:00:00 14.3 C 10.94 g/m*3 14.3 C 3.34167 km/h
1673 23-10-2019 16:00:00 14.79167 C 11.3 g/m*3 14.79 C 0.93333 km/h
1674 23-10-2019 17:00:00 14.94167 C 11.51 g/m*3 14.94 C 0.13333 km/h
1675 23-10-2019 18:00:00 14.175 C 11.18 g/m*3 14.18 C 0 km/h
Sensor: Nr:Datum:Temp:Abs-Feuchte:Windchill:Wind:
Aussen-T/F 1676 23-10-2019 19:00:00 13.39167 C 10.86 g/m*3 13.39 C 0.13333 km/h
1677 23-10-2019 20:00:00 13.24167 C 10.86 g/m*3 13.24 C 0 km/h
1678 23-10-2019 21:00:00 13.19167 C 10.9 g/m*3 13.19 C 0 km/h
1679 23-10-2019 22:00:00 12.94167 C 10.73 g/m*3 12.94 C 0 km/h
1680 23-10-2019 23:00:00 12.76667 C 10.62 g/m*3 12.77 C 0 km/h
1681 24-10-2019 00:00:00 12.39167 C 10.44 g/m*3 12.39 C 0 km/h
1682 24-10-2019 01:00:00 12.15833 C 10.33 g/m*3 12.16 C 0.66667 km/h
1683 24-10-2019 02:00:00 12.25833 C 10.43 g/m*3 12.26 C 0 km/h
1684 24-10-2019 03:00:00 11.81667 C 10.11 g/m*3 11.82 C 0 km/h
1685 24-10-2019 04:00:00 11.59167 C 10.06 g/m*3 11.59 C 0 km/h
1686 24-10-2019 05:00:00 11.85 C 10.24 g/m*3 11.85 C 0.13333 km/h
1687 24-10-2019 06:00:00 11.89167 C 10.28 g/m*3 11.89 C 0.53333 km/h
1688 24-10-2019 07:00:00 12.33333 C 10.56 g/m*3 12.33 C 0.66667 km/h
1689 24-10-2019 08:00:00 12.49167 C 10.66 g/m*3 12.49 C 0.66667 km/h
1690 24-10-2019 09:00:00 13.01667 C 11.01 g/m*3 13.02 C 0 km/h
1691 24-10-2019 10:00:00 13.58333 C 11.38 g/m*3 13.58 C 0.93333 km/h
1692 24-10-2019 11:00:00 14.51667 C 11.65 g/m*3 14.52 C 0.53333 km/h
1693 24-10-2019 12:00:00 15.175 C 12 g/m*3 15.18 C 0 km/h
1694 24-10-2019 13:00:00 16.45833 C 12.57 g/m*3 16.46 C 1.74167 km/h
1695 24-10-2019 14:00:00 17.46667 C 12.93 g/m*3 17.47 C 0.66667 km/h
1696 24-10-2019 15:00:00 18.525 C 13.34 g/m*3 18.52 C 1.2 km/h
1697 24-10-2019 16:00:00 18.44167 C 12.48 g/m*3 18.44 C 4.01667 km/h
1698 24-10-2019 17:00:00 17.525 C 12.19 g/m*3 17.52 C 2.28333 km/h
1699 24-10-2019 18:00:00 15.70833 C 11.42 g/m*3 15.71 C 1.86667 km/h
1700 24-10-2019 19:00:00 14.69167 C 11.11 g/m*3 14.69 C 1.06667 km/h
Sensor: Nr:Datum:Temp:Abs-Feuchte:Windchill:Wind:
Aussen-T/F 1701 24-10-2019 20:00:00 13.85833 C 10.81 g/m*3 13.86 C 0.66667 km/h
1702 24-10-2019 21:00:00 13.54167 C 10.67 g/m*3 13.54 C 0.26667 km/h
1703 24-10-2019 22:00:00 13.075 C 10.53 g/m*3 13.08 C 0 km/h
1704 24-10-2019 23:00:00 13.18333 C 10.74 g/m*3 13.18 C 0 km/h
1705 25-10-2019 00:00:00 12.40833 C 10.23 g/m*3 12.41 C 0 km/h
1706 25-10-2019 01:00:00 11.95 C 10.09 g/m*3 11.95 C 0 km/h
1707 25-10-2019 02:00:00 11.49167 C 9.82 g/m*3 11.49 C 1.075 km/h
1708 25-10-2019 03:00:00 12.34167 C 10.22 g/m*3 12.34 C 1.875 km/h
1709 25-10-2019 04:00:00 12.88333 C 10.32 g/m*3 12.88 C 1.73333 km/h
1710 25-10-2019 05:00:00 12.65833 C 10.09 g/m*3 12.66 C 2.95 km/h
1711 25-10-2019 06:00:00 12.63333 C 10.2 g/m*3 12.63 C 1.86667 km/h
1712 25-10-2019 07:00:00 13.175 C 10.39 g/m*3 13.18 C 2.40833 km/h
1713 25-10-2019 08:00:00 12.68333 C 10.19 g/m*3 12.68 C 1.46667 km/h
1714 25-10-2019 09:00:00 12.93333 C 10.5 g/m*3 12.93 C 1.86667 km/h
1715 25-10-2019 10:00:00 13.775 C 10.6 g/m*3 13.78 C 6.30833 km/h
1716 25-10-2019 11:00:00 14.90833 C 10.52 g/m*3 14.91 C 9.40833 km/h
1717 25-10-2019 12:00:00 15.275 C 10.34 g/m*3 15.28 C 9.95833 km/h
1718 25-10-2019 13:00:00 16.19167 C 10.17 g/m*3 16.19 C 9.275 km/h
1719 25-10-2019 14:00:00 16.29167 C 10.24 g/m*3 16.29 C 7.525 km/h
1720 25-10-2019 15:00:00 16.43333 C 9.86 g/m*3 16.43 C 9.68333 km/h
1721 25-10-2019 16:00:00 16.05833 C 10 g/m*3 16.06 C 6.575 km/h
1722 25-10-2019 17:00:00 14.56667 C 10.21 g/m*3 14.57 C 0.66667 km/h
1723 25-10-2019 18:00:00 13.01667 C 9.81 g/m*3 13.02 C 0.8 km/h
1724 25-10-2019 19:00:00 11.99167 C 9.58 g/m*3 11.99 C 0.13333 km/h
1725 25-10-2019 20:00:00 11.45 C 9.4 g/m*3 11.45 C 0 km/h
Sensor: Nr:Datum:Temp:Abs-Feuchte:Windchill:Wind:
Aussen-T/F 1726 25-10-2019 21:00:00 11.025 C 9.26 g/m*3 11.03 C 0 km/h
1727 25-10-2019 22:00:00 11.3 C 9.56 g/m*3 11.3 C 0.53333 km/h
1728 25-10-2019 23:00:00 12.46667 C 10.12 g/m*3 12.47 C 1.6 km/h
1729 26-10-2019 00:00:00 13.48333 C 10.42 g/m*3 13.48 C 1.46667 km/h
1730 26-10-2019 01:00:00 13.675 C 10.41 g/m*3 13.68 C 1.2 km/h
1731 26-10-2019 02:00:00 13.53333 C 10.28 g/m*3 13.53 C 1.06667 km/h
1732 26-10-2019 03:00:00 12.26667 C 9.88 g/m*3 12.27 C 0.53333 km/h
1733 26-10-2019 04:00:00 11.59167 C 9.73 g/m*3 11.59 C 1.74167 km/h
1734 26-10-2019 05:00:00 12.29167 C 10.1 g/m*3 12.29 C 2.28333 km/h
1735 26-10-2019 06:00:00 11.86667 C 9.86 g/m*3 11.87 C 0.13333 km/h
1736 26-10-2019 07:00:00 11.1 C 9.47 g/m*3 11.1 C 0 km/h
1737 26-10-2019 08:00:00 10.15833 C 8.99 g/m*3 10.16 C 0 km/h
1738 26-10-2019 09:00:00 10.325 C 9.21 g/m*3 10.33 C 0 km/h
1739 26-10-2019 10:00:00 11.26667 C 9.84 g/m*3 11.27 C 0 km/h
1740 26-10-2019 11:00:00 12.475 C 10.63 g/m*3 12.48 C 0 km/h
1741 26-10-2019 12:00:00 13.81667 C 11.34 g/m*3 13.82 C 1.2 km/h
1742 26-10-2019 13:00:00 15.18333 C 11.66 g/m*3 15.18 C 0.93333 km/h
1743 26-10-2019 14:00:00 16.53333 C 11.97 g/m*3 16.53 C 2.26667 km/h
1744 26-10-2019 15:00:00 16.78333 C 12.09 g/m*3 16.78 C 0.66667 km/h
1745 26-10-2019 16:00:00 16.53333 C 12.06 g/m*3 16.53 C 1.06667 km/h
1746 26-10-2019 17:00:00 15.31667 C 11.43 g/m*3 15.32 C 1.6 km/h
1747 26-10-2019 18:00:00 13.925 C 10.7 g/m*3 13.93 C 0.53333 km/h
1748 26-10-2019 19:00:00 12.975 C 10.3 g/m*3 12.98 C 0.26667 km/h
1749 26-10-2019 20:00:00 12.86667 C 10.42 g/m*3 12.87 C 0.4 km/h
1750 26-10-2019 21:00:00 12.99167 C 10.44 g/m*3 12.99 C 0 km/h
Sensor: Nr:Datum:Temp:Abs-Feuchte:Windchill:Wind:
Aussen-T/F 1751 26-10-2019 22:00:00 12.64167 C 10.32 g/m*3 12.64 C 0 km/h
1752 26-10-2019 23:00:00 12.625 C 10.4 g/m*3 12.63 C 0.4 km/h
1753 27-10-2019 00:00:00 13.45833 C 10.54 g/m*3 13.46 C 3.35 km/h
1754 27-10-2019 01:00:00 13.74167 C 10.39 g/m*3 13.74 C 0.8 km/h
1755 27-10-2019 02:00:00 12.98333 C 10.14 g/m*3 12.98 C 2 km/h
1756 27-10-2019 04:00:00 12.17391 C 9.93 g/m*3 12.17 C 1.04348 km/h
1757 27-10-2019 05:00:00 12.87692 C 10.27 g/m*3 12.88 C 0.98462 km/h
1758 27-10-2019 06:00:00 14.125 C 10.45 g/m*3 14.13 C 7.10833 km/h
1759 27-10-2019 07:00:00 14.16667 C 10.64 g/m*3 14.17 C 9.66667 km/h
1760 27-10-2019 08:00:00 11.975 C 9.77 g/m*3 11.98 C 10.89167 km/h
1761 27-10-2019 09:00:00 10.425 C 8.96 g/m*3 9.15 C 9.93333 km/h
1762 27-10-2019 10:00:00 9.44167 C 8.49 g/m*3 9.44 C 1.6 km/h
1763 27-10-2019 11:00:00 9.75833 C 8.74 g/m*3 9.76 C 0.93333 km/h
1764 27-10-2019 12:00:00 10 C 8.87 g/m*3 10 C 0.4 km/h
1765 27-10-2019 13:00:00 9.9 C 8.84 g/m*3 9.9 C 0 km/h
1766 27-10-2019 14:00:00 9.53333 C 8.6 g/m*3 9.53 C 0.4 km/h
1767 27-10-2019 15:00:00 9.43333 C 8.61 g/m*3 9.43 C 0 km/h
1768 27-10-2019 16:00:00 9.16667 C 8.47 g/m*3 9.17 C 0 km/h
1769 27-10-2019 17:00:00 8.55 C 8.17 g/m*3 8.55 C 0 km/h
1770 27-10-2019 18:00:00 8.35 C 8.12 g/m*3 8.35 C 0 km/h
1771 27-10-2019 19:00:00 8.275 C 8.08 g/m*3 8.28 C 0 km/h
1772 27-10-2019 20:00:00 7.50833 C 7.69 g/m*3 7.51 C 0 km/h
1773 27-10-2019 21:00:00 6.91667 C 7.4 g/m*3 6.92 C 0.4 km/h
1774 27-10-2019 22:00:00 5.925 C 6.93 g/m*3 5.93 C 0 km/h
1775 27-10-2019 23:00:00 5.125 C 6.6 g/m*3 5.13 C 0.26667 km/h
Sensor: Nr:Datum:Temp:Abs-Feuchte:Windchill:Wind:
Aussen-T/F 1776 28-10-2019 00:00:00 5.325 C 6.73 g/m*3 5.33 C 0.13333 km/h
1777 28-10-2019 01:00:00 5.8 C 6.95 g/m*3 5.8 C 0.13333 km/h
1778 28-10-2019 02:00:00 5.59167 C 6.85 g/m*3 5.59 C 0 km/h
1779 28-10-2019 03:00:00 5.44167 C 6.79 g/m*3 5.44 C 0.26667 km/h
1780 28-10-2019 04:00:00 5.30833 C 6.73 g/m*3 5.31 C 0 km/h
1781 28-10-2019 05:00:00 5.2 C 6.68 g/m*3 5.2 C 0 km/h
1782 28-10-2019 06:00:00 5.13333 C 6.65 g/m*3 5.13 C 0 km/h
1783 28-10-2019 07:00:00 5.26667 C 6.71 g/m*3 5.27 C 0.8 km/h
1784 28-10-2019 08:00:00 5.51667 C 6.84 g/m*3 5.52 C 2 km/h
1785 28-10-2019 09:00:00 5.8 C 7.02 g/m*3 5.8 C 1.2 km/h
1786 28-10-2019 10:00:00 6.18333 C 7.2 g/m*3 6.18 C 2.26667 km/h
1787 28-10-2019 11:00:00 6.38333 C 7.29 g/m*3 6.38 C 1.6 km/h
1788 28-10-2019 12:00:00 6.5 C 7.33 g/m*3 5.48 C 5.88333 km/h
1789 28-10-2019 13:00:00 6.725 C 7.38 g/m*3 6.73 C 1.86667 km/h
1790 28-10-2019 14:00:00 7.39167 C 7.68 g/m*3 7.39 C 0.13333 km/h
1791 28-10-2019 15:00:00 8.01667 C 7.88 g/m*3 8.02 C 0.13333 km/h
1792 28-10-2019 16:00:00 7.79167 C 7.74 g/m*3 7.79 C 0 km/h
1793 28-10-2019 17:00:00 7 C 7.39 g/m*3 7 C 0 km/h
1794 28-10-2019 18:00:00 7.175 C 7.52 g/m*3 7.18 C 0 km/h
1795 28-10-2019 19:00:00 7.15833 C 7.52 g/m*3 7.16 C 0 km/h
1796 28-10-2019 20:00:00 6.99167 C 7.47 g/m*3 6.99 C 0 km/h
1797 28-10-2019 21:00:00 6.94167 C 7.46 g/m*3 6.94 C 0 km/h
1798 28-10-2019 22:00:00 6.78333 C 7.41 g/m*3 6.78 C 0.53333 km/h
1799 28-10-2019 23:00:00 6.7 C 7.33 g/m*3 6.7 C 1.73333 km/h
1800 29-10-2019 00:00:00 6.68333 C 7.29 g/m*3 6.68 C 2.4 km/h
Sensor: Nr:Datum:Temp:Abs-Feuchte:Windchill:Wind:
Aussen-T/F 1801 29-10-2019 01:00:00 6.41667 C 7.16 g/m*3 6.42 C 3.73333 km/h
1802 29-10-2019 02:00:00 6.3 C 7.11 g/m*3 6.3 C 0.26667 km/h
1803 29-10-2019 03:00:00 6.275 C 7.09 g/m*3 6.28 C 1.2 km/h
1804 29-10-2019 04:00:00 6.2 C 7.06 g/m*3 6.2 C 0.93333 km/h
1805 29-10-2019 05:00:00 6.2 C 7.06 g/m*3 6.2 C 1.46667 km/h
1806 29-10-2019 06:00:00 6.10833 C 7 g/m*3 6.11 C 1.06667 km/h
1807 29-10-2019 07:00:00 5.975 C 6.91 g/m*3 5.98 C 0.8 km/h
1808 29-10-2019 08:00:00 6.225 C 7.04 g/m*3 6.23 C 0.66667 km/h
1809 29-10-2019 09:00:00 6.69167 C 7.2 g/m*3 6.69 C 0 km/h
1810 29-10-2019 10:00:00 7.475 C 7.41 g/m*3 7.48 C 0.53333 km/h
1811 29-10-2019 11:00:00 8.23333 C 7.6 g/m*3 8.23 C 0 km/h
1812 29-10-2019 12:00:00 8.925 C 7.75 g/m*3 8.93 C 0.66667 km/h
1813 29-10-2019 13:00:00 9.74167 C 7.8 g/m*3 9.74 C 3.88333 km/h
1814 29-10-2019 14:00:00 10.59167 C 7.45 g/m*3 9.92 C 6.96667 km/h
1815 29-10-2019 15:00:00 9.575 C 7.35 g/m*3 9.57 C 1.74167 km/h
1816 29-10-2019 16:00:00 8.275 C 7.43 g/m*3 8.28 C 0.4 km/h
1817 29-10-2019 17:00:00 6.94167 C 6.9 g/m*3 6.94 C 1.86667 km/h
1818 29-10-2019 18:00:00 5.96667 C 6.58 g/m*3 5.97 C 0.66667 km/h
1819 29-10-2019 19:00:00 4.96667 C 6.27 g/m*3 4.97 C 0 km/h
1820 29-10-2019 20:00:00 4.425 C 6.15 g/m*3 4.43 C 0 km/h
1821 29-10-2019 21:00:00 3.63333 C 5.84 g/m*3 3.63 C 0 km/h
1822 29-10-2019 22:00:00 2.99167 C 5.65 g/m*3 2.99 C 0 km/h
1823 29-10-2019 23:00:00 2.775 C 5.61 g/m*3 2.78 C 0 km/h
1824 30-10-2019 00:00:00 2.20833 C 5.4 g/m*3 2.21 C 0 km/h
1825 30-10-2019 01:00:00 1.98333 C 5.33 g/m*3 1.98 C 0 km/h
Sensor: Nr:Datum:Temp:Abs-Feuchte:Windchill:Wind:
Aussen-T/F 1826 30-10-2019 02:00:00 1.98333 C 5.33 g/m*3 1.98 C 0 km/h
1827 30-10-2019 03:00:00 1.51667 C 5.16 g/m*3 1.52 C 0 km/h
1828 30-10-2019 04:00:00 1.14167 C 5.05 g/m*3 1.14 C 0 km/h
1829 30-10-2019 05:00:00 1.35 C 5.14 g/m*3 1.35 C 0.26667 km/h
1830 30-10-2019 06:00:00 1.4 C 5.17 g/m*3 1.4 C 0 km/h
1831 30-10-2019 07:00:00 1.45833 C 5.19 g/m*3 1.46 C 0.26667 km/h
1832 30-10-2019 08:00:00 1.85833 C 5.34 g/m*3 1.86 C 0.26667 km/h
1833 30-10-2019 09:00:00 2.4 C 5.54 g/m*3 2.4 C 0.13333 km/h
1834 30-10-2019 10:00:00 3.69167 C 6.09 g/m*3 3.69 C 0 km/h
1835 30-10-2019 11:00:00 4.94167 C 6.63 g/m*3 4.94 C 0.66667 km/h
1836 30-10-2019 12:00:00 5.71667 C 6.9 g/m*3 5.72 C 0.26667 km/h
1837 30-10-2019 13:00:00 6.63333 C 6.88 g/m*3 6.63 C 2.66667 km/h
1838 30-10-2019 14:00:00 7.58333 C 6.8 g/m*3 7.58 C 2.675 km/h
1839 30-10-2019 15:00:00 7.75 C 6.86 g/m*3 7.75 C 0.4 km/h
1840 30-10-2019 16:00:00 7.01667 C 6.83 g/m*3 7.02 C 0 km/h
1841 30-10-2019 17:00:00 5.76667 C 6.37 g/m*3 5.77 C 0 km/h
1842 30-10-2019 18:00:00 4.46667 C 5.94 g/m*3 4.47 C 0.26667 km/h
1843 30-10-2019 19:00:00 3.8 C 5.77 g/m*3 3.8 C 0 km/h
1844 30-10-2019 20:00:00 3.23333 C 5.64 g/m*3 3.23 C 0.66667 km/h
1845 30-10-2019 21:00:00 2.70833 C 5.5 g/m*3 2.71 C 0.53333 km/h
1846 30-10-2019 22:00:00 2.25 C 5.35 g/m*3 2.25 C 0.13333 km/h
1847 30-10-2019 23:00:00 1.80833 C 5.21 g/m*3 1.81 C 0 km/h
1848 31-10-2019 00:00:00 1.025 C 4.94 g/m*3 1.02 C 0 km/h
1849 31-10-2019 01:00:00 0.89167 C 4.94 g/m*3 0.89 C 0 km/h
1850 31-10-2019 02:00:00 0.53333 C 4.83 g/m*3 0.53 C 0 km/h
Sensor: Nr:Datum:Temp:Abs-Feuchte:Windchill:Wind:
Aussen-T/F 1851 31-10-2019 03:00:00 0.28333 C 4.74 g/m*3 0.28 C 0 km/h
1852 31-10-2019 04:00:00 0.06667 C 4.67 g/m*3 0.07 C 0 km/h
1853 31-10-2019 05:00:00 -0.325 C 4.55 g/m*3 -0.33 C 0 km/h
1854 31-10-2019 06:00:00 -0.50833 C 4.49 g/m*3 -0.51 C 0 km/h
1855 31-10-2019 07:00:00 -0.75 C 4.43 g/m*3 -0.75 C 0 km/h
1856 31-10-2019 08:00:00 -0.61667 C 4.48 g/m*3 -0.62 C 0 km/h
1857 31-10-2019 09:00:00 0.05 C 4.72 g/m*3 0.05 C 0 km/h
1858 31-10-2019 10:00:00 1.13333 C 5.09 g/m*3 1.13 C 0.93333 km/h
1859 31-10-2019 11:00:00 2.85833 C 5.76 g/m*3 2.86 C 0.53333 km/h
1860 31-10-2019 12:00:00 4.16667 C 6.28 g/m*3 4.17 C 1.2 km/h
1861 31-10-2019 13:00:00 5.60833 C 6.68 g/m*3 5.61 C 4.55833 km/h
1862 31-10-2019 14:00:00 7.29167 C 6.65 g/m*3 7.29 C 3.875 km/h
1863 31-10-2019 15:00:00 7.44167 C 6.65 g/m*3 7.44 C 2.54167 km/h
1864 31-10-2019 16:00:00 6.125 C 6.4 g/m*3 6.13 C 1.73333 km/h
1865 31-10-2019 17:00:00 4.63333 C 5.86 g/m*3 4.63 C 0.8 km/h
1866 31-10-2019 18:00:00 3.70833 C 5.55 g/m*3 3.71 C 0 km/h
1867 31-10-2019 19:00:00 3.175 C 5.44 g/m*3 3.18 C 0 km/h
1868 31-10-2019 20:00:00 2.325 C 5.23 g/m*3 2.33 C 0 km/h
1869 31-10-2019 21:00:00 1.71667 C 5.11 g/m*3 1.72 C 0 km/h
1870 31-10-2019 22:00:00 1.48333 C 5.06 g/m*3 1.48 C 0 km/h
1871 31-10-2019 23:00:00 1.30833 C 5.04 g/m*3 1.31 C 0 km/h
1872 01-11-2019 00:00:00 0.88333 C 4.89 g/m*3 0.88 C 0 km/h
1873 01-11-2019 01:00:00 0.6 C 4.81 g/m*3 0.6 C 0 km/h
1874 01-11-2019 02:00:00 0.55833 C 4.83 g/m*3 0.56 C 0 km/h
1875 01-11-2019 03:00:00 0.44167 C 4.8 g/m*3 0.44 C 0 km/h
Sensor: Nr:Datum:Temp:Abs-Feuchte:Windchill:Wind:
Aussen-T/F 1876 01-11-2019 04:00:00 1.03333 C 5.02 g/m*3 1.03 C 0 km/h
1877 01-11-2019 05:00:00 2.16667 C 5.45 g/m*3 2.17 C 0 km/h
1878 01-11-2019 06:00:00 2.85833 C 5.71 g/m*3 2.86 C 0 km/h
1879 01-11-2019 07:00:00 3.55 C 5.98 g/m*3 3.55 C 0 km/h
1880 01-11-2019 08:00:00 4.35833 C 6.32 g/m*3 4.36 C 0 km/h
1881 01-11-2019 09:00:00 5.40833 C 6.77 g/m*3 5.41 C 0 km/h
1882 01-11-2019 10:00:00 6.38333 C 7.22 g/m*3 6.38 C 0.8 km/h
1883 01-11-2019 11:00:00 7.29167 C 7.55 g/m*3 7.29 C 1.86667 km/h
1884 01-11-2019 12:00:00 8.09167 C 7.76 g/m*3 8.09 C 3.35 km/h
1885 01-11-2019 13:00:00 8.53333 C 7.96 g/m*3 8.53 C 1.06667 km/h
1886 01-11-2019 14:00:00 8.73333 C 8.2 g/m*3 8.73 C 1.33333 km/h
1887 01-11-2019 15:00:00 8.7 C 8.27 g/m*3 8.7 C 1.46667 km/h
1888 01-11-2019 16:00:00 8.8 C 8.36 g/m*3 8.8 C 0 km/h
1889 01-11-2019 17:00:00 8.85833 C 8.39 g/m*3 8.86 C 1.2 km/h
1890 01-11-2019 18:00:00 8.86667 C 8.41 g/m*3 8.87 C 0.4 km/h
1891 01-11-2019 19:00:00 8.93333 C 8.52 g/m*3 8.93 C 0 km/h
1892 01-11-2019 20:00:00 9.225 C 8.68 g/m*3 9.23 C 0 km/h
1893 01-11-2019 21:00:00 9.64167 C 8.92 g/m*3 9.64 C 0 km/h
1894 01-11-2019 22:00:00 10.15 C 9.3 g/m*3 10.15 C 0.26667 km/h
1895 01-11-2019 23:00:00 10.525 C 9.52 g/m*3 10.53 C 0 km/h
1896 02-11-2019 00:00:00 11.18333 C 9.92 g/m*3 11.18 C 0 km/h
1897 02-11-2019 01:00:00 11.96667 C 10.42 g/m*3 11.97 C 0.93333 km/h
1898 02-11-2019 02:00:00 12.21667 C 10.59 g/m*3 12.22 C 1.33333 km/h
1899 02-11-2019 03:00:00 12.28333 C 10.63 g/m*3 12.28 C 2.13333 km/h
1900 02-11-2019 04:00:00 12.25 C 10.61 g/m*3 12.25 C 2 km/h
Sensor: Nr:Datum:Temp:Abs-Feuchte:Windchill:Wind:
Aussen-T/F 1901 02-11-2019 05:00:00 12.65833 C 10.88 g/m*3 12.66 C 1.46667 km/h
1902 02-11-2019 06:00:00 13.1 C 11.18 g/m*3 13.1 C 2.94167 km/h
1903 02-11-2019 07:00:00 13.48333 C 11.45 g/m*3 13.48 C 0.93333 km/h
1904 02-11-2019 08:00:00 13.84167 C 11.71 g/m*3 13.84 C 2.275 km/h
1905 02-11-2019 09:00:00 14.30833 C 12.03 g/m*3 14.31 C 12.21667 km/h
1906 02-11-2019 10:00:00 14.925 C 11.87 g/m*3 14.93 C 14.625 km/h
1907 02-11-2019 11:00:00 15.74167 C 11.57 g/m*3 15.74 C 16.5 km/h
1908 02-11-2019 12:00:00 16.15833 C 11.05 g/m*3 16.16 C 20.23333 km/h
1909 02-11-2019 13:00:00 16.04167 C 10.29 g/m*3 16.04 C 15.03333 km/h
1910 02-11-2019 14:00:00 15.8 C 10.01 g/m*3 15.8 C 10.35833 km/h
1911 02-11-2019 15:00:00 15.10833 C 9.97 g/m*3 15.11 C 5.35833 km/h
1912 02-11-2019 16:00:00 14.55833 C 9.75 g/m*3 14.56 C 8.06667 km/h
1913 02-11-2019 17:00:00 13.78333 C 9.71 g/m*3 13.78 C 11.28333 km/h
1914 02-11-2019 18:00:00 11.90833 C 9.55 g/m*3 11.91 C 2.66667 km/h
1915 02-11-2019 19:00:00 11.425 C 9.44 g/m*3 11.43 C 2.13333 km/h
1916 02-11-2019 20:00:00 11.30833 C 9.3 g/m*3 11.31 C 4.01667 km/h
1917 02-11-2019 21:00:00 11.15 C 8.96 g/m*3 11.15 C 4.55 km/h
1918 02-11-2019 22:00:00 10.98333 C 8.84 g/m*3 10.98 C 1.06667 km/h
1919 02-11-2019 23:00:00 10.56667 C 8.68 g/m*3 10.57 C 3.625 km/h
1920 03-11-2019 00:00:00 10.475 C 8.55 g/m*3 10.48 C 0.53333 km/h
1921 03-11-2019 01:00:00 10.41667 C 8.7 g/m*3 10.42 C 0.4 km/h
1922 03-11-2019 02:00:00 10.03333 C 8.62 g/m*3 10.03 C 0.26667 km/h
1923 03-11-2019 03:00:00 10 C 8.75 g/m*3 10 C 0.8 km/h
1924 03-11-2019 04:00:00 10.26667 C 9.02 g/m*3 10.27 C 0.66667 km/h
1925 03-11-2019 05:00:00 10.25 C 9.07 g/m*3 10.25 C 0.8 km/h
Sensor: Nr:Datum:Temp:Abs-Feuchte:Windchill:Wind:
Aussen-T/F 1926 03-11-2019 06:00:00 10.3 C 9.19 g/m*3 10.3 C 0 km/h
1927 03-11-2019 07:00:00 10.325 C 9.21 g/m*3 10.33 C 0 km/h
1928 03-11-2019 08:00:00 10.48333 C 9.37 g/m*3 10.48 C 0 km/h
1929 03-11-2019 09:00:00 11.3 C 9.89 g/m*3 11.3 C 0 km/h
1930 03-11-2019 10:00:00 12.26667 C 10.36 g/m*3 12.27 C 0.93333 km/h
1931 03-11-2019 11:00:00 13.53333 C 10.65 g/m*3 13.53 C 2.675 km/h
1932 03-11-2019 12:00:00 14.85 C 10.6 g/m*3 14.85 C 4.55 km/h
1933 03-11-2019 13:00:00 15.39167 C 10.7 g/m*3 15.39 C 6.30833 km/h
1934 03-11-2019 14:00:00 15.46667 C 10.78 g/m*3 15.47 C 5.08333 km/h
1935 03-11-2019 15:00:00 14.81667 C 10.57 g/m*3 14.82 C 6.83333 km/h
1936 03-11-2019 16:00:00 14.00833 C 10.41 g/m*3 14.01 C 2 km/h
1937 03-11-2019 17:00:00 13.00833 C 10.25 g/m*3 13.01 C 0.4 km/h
1938 03-11-2019 18:00:00 12.35833 C 10.22 g/m*3 12.36 C 0.13333 km/h
1939 03-11-2019 19:00:00 11.71667 C 9.95 g/m*3 11.72 C 0.53333 km/h
1940 03-11-2019 20:00:00 11.075 C 9.63 g/m*3 11.08 C 0.53333 km/h
1941 03-11-2019 21:00:00 10.75833 C 9.46 g/m*3 10.76 C 1.46667 km/h
1942 03-11-2019 22:00:00 10.7 C 9.43 g/m*3 10.7 C 0.8 km/h
1943 03-11-2019 23:00:00 10.60833 C 9.37 g/m*3 10.61 C 4.96667 km/h
1944 04-11-2019 00:00:00 11.075 C 9.31 g/m*3 11.08 C 10.475 km/h
1945 04-11-2019 01:00:00 11.025 C 9.11 g/m*3 11.03 C 6.44167 km/h
1946 04-11-2019 02:00:00 10.15833 C 8.79 g/m*3 10.16 C 2.00833 km/h
1947 04-11-2019 03:00:00 9.9 C 8.78 g/m*3 9.9 C 1.61667 km/h
1948 04-11-2019 04:00:00 10.18333 C 9.03 g/m*3 10.18 C 2.13333 km/h
1949 04-11-2019 05:00:00 10.38333 C 9.12 g/m*3 9.94 C 5.9 km/h
1950 04-11-2019 06:00:00 9.79167 C 8.76 g/m*3 9.79 C 2.8 km/h
Sensor: Nr:Datum:Temp:Abs-Feuchte:Windchill:Wind:
Aussen-T/F 1951 04-11-2019 07:00:00 9.26667 C 8.51 g/m*3 9.27 C 2.66667 km/h
1952 04-11-2019 08:00:00 9.5 C 8.69 g/m*3 9.5 C 0.13333 km/h
1953 04-11-2019 09:00:00 10.00833 C 8.83 g/m*3 10.01 C 1.475 km/h
1954 04-11-2019 10:00:00 10.875 C 9.14 g/m*3 10.88 C 1.73333 km/h
1955 04-11-2019 11:00:00 10.91667 C 9.26 g/m*3 10.92 C 1.33333 km/h
1956 04-11-2019 12:00:00 11.25 C 9.46 g/m*3 11.25 C 1.86667 km/h
1957 04-11-2019 13:00:00 12.025 C 9.75 g/m*3 12.03 C 5.23333 km/h
1958 04-11-2019 14:00:00 12.58333 C 9.58 g/m*3 12.58 C 13.56667 km/h
1959 04-11-2019 15:00:00 12.625 C 9.37 g/m*3 12.63 C 6.31667 km/h
1960 04-11-2019 16:00:00 11.44167 C 9.06 g/m*3 11.44 C 0.93333 km/h
1961 04-11-2019 17:00:00 10.275 C 8.76 g/m*3 10.28 C 0.66667 km/h
1962 04-11-2019 18:00:00 9.60833 C 8.5 g/m*3 9.61 C 0 km/h
1963 04-11-2019 19:00:00 9.18333 C 8.43 g/m*3 9.18 C 0.94167 km/h
1964 04-11-2019 20:00:00 9.5 C 8.71 g/m*3 9.5 C 0 km/h
1965 04-11-2019 21:00:00 9.24167 C 8.58 g/m*3 9.24 C 0.13333 km/h
1966 04-11-2019 22:00:00 8.29167 C 8.07 g/m*3 8.29 C 0.4 km/h
1967 04-11-2019 23:00:00 8.89167 C 8.48 g/m*3 8.42 C 5.24167 km/h
1968 05-11-2019 00:00:00 9.275 C 8.49 g/m*3 9.28 C 4.275 km/h
1969 05-11-2019 01:00:00 9.14167 C 8.29 g/m*3 9.14 C 3.74167 km/h
1970 05-11-2019 02:00:00 9.225 C 8.34 g/m*3 9.23 C 1.875 km/h
1971 05-11-2019 03:00:00 9.40833 C 8.27 g/m*3 8.9 C 5.625 km/h
1972 05-11-2019 04:00:00 9.46667 C 8.14 g/m*3 9.47 C 4.40833 km/h
1973 05-11-2019 05:00:00 9.525 C 8.15 g/m*3 9.53 C 4.95833 km/h
1974 05-11-2019 06:00:00 9.25 C 8.13 g/m*3 9.25 C 4.14167 km/h
1975 05-11-2019 07:00:00 9.15833 C 8.1 g/m*3 9.16 C 1.86667 km/h
Sensor: Nr:Datum:Temp:Abs-Feuchte:Windchill:Wind:
Aussen-T/F 1976 05-11-2019 08:00:00 8.95833 C 8.07 g/m*3 8.96 C 2.675 km/h
1977 05-11-2019 09:00:00 9.45833 C 8.15 g/m*3 9.46 C 2.26667 km/h
1978 05-11-2019 10:00:00 10.48333 C 8.33 g/m*3 10.48 C 3.625 km/h
1979 05-11-2019 11:00:00 11.225 C 8.32 g/m*3 11.23 C 5.5 km/h
1980 05-11-2019 12:00:00 11.83333 C 8.23 g/m*3 11.83 C 9.275 km/h
1981 05-11-2019 13:00:00 11.89167 C 8.41 g/m*3 11.89 C 4.68333 km/h
1982 05-11-2019 14:00:00 12.06667 C 8.62 g/m*3 12.07 C 1.86667 km/h
1983 05-11-2019 15:00:00 11.875 C 8.69 g/m*3 11.88 C 2.14167 km/h
1984 05-11-2019 16:00:00 10.85833 C 8.62 g/m*3 10.86 C 0 km/h
1985 05-11-2019 17:00:00 9.85833 C 8.46 g/m*3 9.86 C 0.13333 km/h
1986 05-11-2019 18:00:00 9.025 C 8.18 g/m*3 9.03 C 0 km/h
1987 05-11-2019 19:00:00 8.54167 C 8.03 g/m*3 8.54 C 0.13333 km/h
1988 05-11-2019 20:00:00 8.425 C 8.02 g/m*3 8.43 C 0.13333 km/h
1989 05-11-2019 21:00:00 7.95833 C 7.83 g/m*3 7.96 C 0 km/h
1990 05-11-2019 22:00:00 8.00833 C 7.88 g/m*3 8.01 C 0 km/h
1991 05-11-2019 23:00:00 8.11667 C 8 g/m*3 8.12 C 0 km/h
1992 06-11-2019 00:00:00 8.2 C 8.04 g/m*3 8.2 C 0 km/h
1993 06-11-2019 01:00:00 8.2 C 8.04 g/m*3 8.2 C 1.06667 km/h
1994 06-11-2019 02:00:00 8.175 C 8.05 g/m*3 8.18 C 0.26667 km/h
1995 06-11-2019 03:00:00 7.79167 C 7.83 g/m*3 7.79 C 0.13333 km/h
1996 06-11-2019 04:00:00 7.45 C 7.7 g/m*3 7.45 C 0 km/h
1997 06-11-2019 05:00:00 7.49167 C 7.76 g/m*3 7.49 C 0.26667 km/h
1998 06-11-2019 06:00:00 7.65 C 7.84 g/m*3 7.65 C 0.4 km/h
1999 06-11-2019 07:00:00 7.65 C 7.84 g/m*3 7.65 C 0.13333 km/h
2000 06-11-2019 08:00:00 7.975 C 8.01 g/m*3 7.98 C 0.53333 km/h
Sensor: Nr:Datum:Temp:Abs-Feuchte:Windchill:Wind:
Aussen-T/F 2001 06-11-2019 09:00:00 8.81667 C 8.42 g/m*3 8.82 C 4.15 km/h
2002 06-11-2019 10:00:00 9.68333 C 8.51 g/m*3 8.83 C 7.13333 km/h
2003 06-11-2019 11:00:00 10.15 C 8.71 g/m*3 9.64 C 6.025 km/h
2004 06-11-2019 12:00:00 10.35 C 8.85 g/m*3 9.87 C 6.03333 km/h
2005 06-11-2019 13:00:00 10.6 C 8.84 g/m*3 9.76 C 7.78333 km/h
2006 06-11-2019 14:00:00 10.43333 C 8.83 g/m*3 10.43 C 4.40833 km/h
2007 06-11-2019 15:00:00 10.24167 C 8.91 g/m*3 10.24 C 0.66667 km/h
2008 06-11-2019 16:00:00 10 C 8.84 g/m*3 10 C 0.13333 km/h
2009 06-11-2019 17:00:00 9.68333 C 8.75 g/m*3 9.68 C 0 km/h
2010 06-11-2019 18:00:00 9.6 C 8.77 g/m*3 9.6 C 0 km/h
2011 06-11-2019 19:00:00 9.40833 C 8.69 g/m*3 9.41 C 0 km/h
2012 06-11-2019 20:00:00 9.13333 C 8.54 g/m*3 9.13 C 0 km/h
2013 06-11-2019 21:00:00 8.975 C 8.51 g/m*3 8.98 C 0 km/h
2014 06-11-2019 22:00:00 8.9 C 8.42 g/m*3 8.9 C 0 km/h
2015 06-11-2019 23:00:00 8.85833 C 8.47 g/m*3 8.86 C 0.53333 km/h
2016 07-11-2019 00:00:00 8.51667 C 8.29 g/m*3 8.52 C 0 km/h
2017 07-11-2019 01:00:00 8.06667 C 8.05 g/m*3 8.07 C 0 km/h
2018 07-11-2019 02:00:00 7.98333 C 8.01 g/m*3 7.98 C 0 km/h
2019 07-11-2019 03:00:00 7.91667 C 7.98 g/m*3 7.92 C 0 km/h
2020 07-11-2019 04:00:00 7.49167 C 7.76 g/m*3 7.49 C 0 km/h
2021 07-11-2019 05:00:00 7.55 C 7.79 g/m*3 7.55 C 0.4 km/h
2022 07-11-2019 06:00:00 7.375 C 7.7 g/m*3 7.38 C 0 km/h
2023 07-11-2019 07:00:00 7.59167 C 7.84 g/m*3 7.59 C 0.4 km/h
2024 07-11-2019 08:00:00 8.24167 C 8.23 g/m*3 8.24 C 0.26667 km/h
2025 07-11-2019 09:00:00 8.875 C 8.57 g/m*3 8.88 C 1.06667 km/h
Sensor: Nr:Datum:Temp:Abs-Feuchte:Windchill:Wind:
Aussen-T/F 2026 07-11-2019 10:00:00 9.29167 C 8.77 g/m*3 9.29 C 3.35 km/h
2027 07-11-2019 11:00:00 9.39167 C 8.69 g/m*3 9.39 C 2.8 km/h
2028 07-11-2019 12:00:00 9.31667 C 8.52 g/m*3 9.32 C 2.95 km/h
2029 07-11-2019 13:00:00 9.625 C 8.55 g/m*3 9.63 C 4.00833 km/h
2030 07-11-2019 14:00:00 9.375 C 8.35 g/m*3 9.38 C 4.41667 km/h
2031 07-11-2019 15:00:00 9.76667 C 8.64 g/m*3 9.77 C 4.41667 km/h
2032 07-11-2019 16:00:00 9.65 C 8.24 g/m*3 7.67 C 13.55833 km/h
2033 07-11-2019 17:00:00 8.55833 C 7.73 g/m*3 7.46 C 7.38333 km/h
2034 07-11-2019 18:00:00 7.24167 C 7.22 g/m*3 7.24 C 1.075 km/h
2035 07-11-2019 19:00:00 6.76667 C 7.21 g/m*3 6.77 C 0.8 km/h
2036 07-11-2019 20:00:00 6.18333 C 6.96 g/m*3 6.18 C 0.4 km/h
2037 07-11-2019 21:00:00 5.65833 C 6.77 g/m*3 5.66 C 0.13333 km/h
2038 07-11-2019 22:00:00 5.00833 C 6.51 g/m*3 5.01 C 0 km/h
2039 07-11-2019 23:00:00 5.025 C 6.56 g/m*3 5.03 C 0.26667 km/h
2040 08-11-2019 00:00:00 4.675 C 6.38 g/m*3 4.68 C 0.26667 km/h
2041 08-11-2019 01:00:00 4.24167 C 6.2 g/m*3 4.24 C 0.26667 km/h
2042 08-11-2019 02:00:00 3.28333 C 5.82 g/m*3 3.28 C 0 km/h
2043 08-11-2019 03:00:00 3.1 C 5.79 g/m*3 3.1 C 0 km/h
2044 08-11-2019 04:00:00 2.75833 C 5.66 g/m*3 2.76 C 0 km/h
2045 08-11-2019 05:00:00 2.34167 C 5.52 g/m*3 2.34 C 0 km/h
2046 08-11-2019 06:00:00 2.31667 C 5.51 g/m*3 2.32 C 0 km/h
2047 08-11-2019 07:00:00 2.35 C 5.52 g/m*3 2.35 C 0 km/h
2048 08-11-2019 08:00:00 3.05 C 5.81 g/m*3 3.05 C 0 km/h
2049 08-11-2019 09:00:00 3.78333 C 6.1 g/m*3 3.78 C 0.53333 km/h
2050 08-11-2019 10:00:00 4.43333 C 6.4 g/m*3 4.43 C 0.4 km/h
Sensor: Nr:Datum:Temp:Abs-Feuchte:Windchill:Wind:
Aussen-T/F 2051 08-11-2019 11:00:00 5.15833 C 6.73 g/m*3 5.16 C 0.8 km/h
2052 08-11-2019 12:00:00 6 C 7.11 g/m*3 6 C 0.8 km/h
2053 08-11-2019 13:00:00 6.8 C 7.44 g/m*3 6.8 C 0.13333 km/h
2054 08-11-2019 14:00:00 7.44167 C 7.63 g/m*3 7.44 C 1.86667 km/h
2055 08-11-2019 15:00:00 7.73333 C 7.71 g/m*3 7.73 C 0 km/h
2056 08-11-2019 16:00:00 7.61667 C 7.63 g/m*3 7.62 C 0 km/h
2057 08-11-2019 17:00:00 6.85833 C 7.29 g/m*3 6.86 C 0 km/h
2058 08-11-2019 18:00:00 6.65 C 7.26 g/m*3 6.65 C 0 km/h
2059 08-11-2019 19:00:00 6.475 C 7.19 g/m*3 6.48 C 0 km/h
2060 08-11-2019 20:00:00 6.21667 C 7.07 g/m*3 6.22 C 0 km/h
2061 08-11-2019 21:00:00 5.7 C 6.83 g/m*3 5.7 C 0 km/h
2062 08-11-2019 22:00:00 5.39167 C 6.76 g/m*3 5.39 C 0.26667 km/h
2063 08-11-2019 23:00:00 5.49167 C 6.81 g/m*3 5.49 C 2.53333 km/h
2064 09-11-2019 00:00:00 5.34167 C 6.74 g/m*3 4.34 C 5.35 km/h
2065 09-11-2019 01:00:00 5.15833 C 6.66 g/m*3 4.18 C 5.225 km/h
2066 09-11-2019 02:00:00 5.1 C 6.63 g/m*3 3.79 C 6.15833 km/h
2067 09-11-2019 03:00:00 5.125 C 6.65 g/m*3 5.13 C 3.33333 km/h
2068 09-11-2019 04:00:00 4.96667 C 6.58 g/m*3 4.97 C 1.46667 km/h
2069 09-11-2019 05:00:00 4.78333 C 6.51 g/m*3 4.78 C 3.075 km/h
2070 09-11-2019 06:00:00 4.45 C 6.32 g/m*3 3.13 C 5.9 km/h
2071 09-11-2019 07:00:00 3.44167 C 5.88 g/m*3 3.44 C 0.8 km/h
2072 09-11-2019 08:00:00 3.29167 C 5.86 g/m*3 3.29 C 0.13333 km/h
2073 09-11-2019 09:00:00 4.53333 C 6.37 g/m*3 3.46 C 5.25 km/h
2074 09-11-2019 10:00:00 5.65833 C 6.55 g/m*3 3.11 C 11.7 km/h
2075 09-11-2019 11:00:00 5.91667 C 6.56 g/m*3 3.82 C 9.68333 km/h
Sensor: Nr:Datum:Temp:Abs-Feuchte:Windchill:Wind:
Aussen-T/F 2076 09-11-2019 12:00:00 6.375 C 6.66 g/m*3 4.51 C 9.00833 km/h
2077 09-11-2019 13:00:00 7.04167 C 6.76 g/m*3 5.39 C 8.59167 km/h
2078 09-11-2019 14:00:00 6.93333 C 6.77 g/m*3 5.67 C 6.96667 km/h
2079 09-11-2019 15:00:00 6.68333 C 6.88 g/m*3 6.68 C 3.20833 km/h
2080 09-11-2019 16:00:00 6.56667 C 6.94 g/m*3 6.57 C 1.33333 km/h
2081 09-11-2019 17:00:00 6.175 C 6.83 g/m*3 6.18 C 0.26667 km/h
2082 09-11-2019 18:00:00 5.375 C 6.48 g/m*3 5.38 C 0.13333 km/h
2083 09-11-2019 19:00:00 4.875 C 6.35 g/m*3 4.88 C 2.00833 km/h
2084 09-11-2019 20:00:00 4.03333 C 5.94 g/m*3 4.03 C 0 km/h
2085 09-11-2019 21:00:00 3.25833 C 5.73 g/m*3 3.26 C 0 km/h
2086 09-11-2019 22:00:00 2.725 C 5.56 g/m*3 2.73 C 0 km/h
2087 09-11-2019 23:00:00 1.99167 C 5.28 g/m*3 1.99 C 0 km/h
2088 10-11-2019 00:00:00 1.25833 C 5.05 g/m*3 1.26 C 0 km/h
2089 10-11-2019 01:00:00 1.31667 C 5.11 g/m*3 1.32 C 0 km/h
2090 10-11-2019 02:00:00 1.65833 C 5.24 g/m*3 1.66 C 0 km/h
2091 10-11-2019 03:00:00 1.59167 C 5.24 g/m*3 1.59 C 0.53333 km/h
2092 10-11-2019 04:00:00 1.28333 C 5.13 g/m*3 1.28 C 0.8 km/h
2093 10-11-2019 05:00:00 1.38333 C 5.17 g/m*3 1.38 C 0 km/h
2094 10-11-2019 06:00:00 1.70833 C 5.28 g/m*3 1.71 C 2.93333 km/h
2095 10-11-2019 07:00:00 1.61667 C 5.25 g/m*3 1.62 C 1.86667 km/h
2096 10-11-2019 08:00:00 1.81667 C 5.35 g/m*3 1.82 C 0.53333 km/h
2097 10-11-2019 09:00:00 2.25 C 5.52 g/m*3 2.25 C 0.66667 km/h
2098 10-11-2019 10:00:00 2.66667 C 5.7 g/m*3 2.67 C 0.93333 km/h
2099 10-11-2019 11:00:00 3.2 C 5.91 g/m*3 3.2 C 2.26667 km/h
2100 10-11-2019 12:00:00 3.4 C 5.91 g/m*3 2.24 C 5.075 km/h
Sensor: Nr:Datum:Temp:Abs-Feuchte:Windchill:Wind:
Aussen-T/F 2101 10-11-2019 13:00:00 3.86667 C 5.99 g/m*3 3.87 C 4.26667 km/h
2102 10-11-2019 14:00:00 4.29167 C 6.06 g/m*3 4.29 C 3.2 km/h
2103 10-11-2019 15:00:00 4.65833 C 6.17 g/m*3 4.66 C 1.86667 km/h
2104 10-11-2019 16:00:00 4.58333 C 6.08 g/m*3 4.58 C 1.46667 km/h
2105 10-11-2019 17:00:00 4.35833 C 6.06 g/m*3 4.36 C 1.2 km/h
2106 10-11-2019 18:00:00 4.275 C 6.07 g/m*3 4.28 C 1.2 km/h
2107 10-11-2019 19:00:00 4.15 C 6.04 g/m*3 4.15 C 1.6 km/h
2108 10-11-2019 20:00:00 4.25 C 6.14 g/m*3 4.25 C 0.26667 km/h
2109 10-11-2019 21:00:00 4.3 C 6.16 g/m*3 4.3 C 0.26667 km/h
2110 10-11-2019 22:00:00 4.275 C 6.15 g/m*3 4.28 C 0 km/h
2111 10-11-2019 23:00:00 4.36667 C 6.14 g/m*3 4.37 C 0.53333 km/h
2112 11-11-2019 00:00:00 4.25833 C 6.03 g/m*3 4.26 C 0.93333 km/h
2113 11-11-2019 01:00:00 3.85 C 5.84 g/m*3 3.85 C 2.53333 km/h
2114 11-11-2019 02:00:00 3.58333 C 5.75 g/m*3 3.58 C 0.4 km/h
2115 11-11-2019 03:00:00 3.30833 C 5.65 g/m*3 3.31 C 2.4 km/h
2116 11-11-2019 04:00:00 3.14167 C 5.58 g/m*3 3.14 C 1.06667 km/h
2117 11-11-2019 05:00:00 3.23333 C 5.64 g/m*3 3.23 C 0.4 km/h
2118 11-11-2019 06:00:00 3.3 C 5.66 g/m*3 3.3 C 0 km/h
2119 11-11-2019 07:00:00 3.39167 C 5.74 g/m*3 3.39 C 0.53333 km/h
2120 11-11-2019 08:00:00 4.16667 C 5.97 g/m*3 2.66 C 6.3 km/h
2121 11-11-2019 09:00:00 4.98333 C 6.13 g/m*3 3.17 C 7.79167 km/h
2122 11-11-2019 10:00:00 5.24167 C 6.15 g/m*3 3.62 C 7.24167 km/h
2123 11-11-2019 11:00:00 5.54167 C 6.22 g/m*3 3.97 C 7.25 km/h
2124 11-11-2019 12:00:00 6.025 C 6.32 g/m*3 4.57 C 7.11667 km/h
2125 11-11-2019 13:00:00 6.425 C 6.42 g/m*3 5.48 C 5.625 km/h
Sensor: Nr:Datum:Temp:Abs-Feuchte:Windchill:Wind:
Aussen-T/F 2126 11-11-2019 14:00:00 6.11667 C 6.33 g/m*3 4.76 C 6.83333 km/h
2127 11-11-2019 15:00:00 5.61667 C 6.28 g/m*3 4.75 C 5.08333 km/h
2128 11-11-2019 16:00:00 5.25833 C 6.22 g/m*3 4.1 C 5.75833 km/h
2129 11-11-2019 17:00:00 5.09167 C 6.15 g/m*3 3.6 C 6.71667 km/h
2130 11-11-2019 18:00:00 4.85833 C 6.1 g/m*3 4.86 C 4.14167 km/h
2131 11-11-2019 19:00:00 4.83333 C 6.22 g/m*3 4.83 C 0.8 km/h
2132 11-11-2019 20:00:00 4.8 C 6.3 g/m*3 4.8 C 0.13333 km/h
2133 11-11-2019 21:00:00 4.975 C 6.44 g/m*3 4.97 C 1.06667 km/h
2134 11-11-2019 22:00:00 5.13333 C 6.51 g/m*3 5.13 C 1.06667 km/h
2135 11-11-2019 23:00:00 5.18333 C 6.6 g/m*3 5.18 C 0.13333 km/h
2136 12-11-2019 00:00:00 5.05 C 6.53 g/m*3 5.05 C 0.13333 km/h
2137 12-11-2019 01:00:00 5.05 C 6.54 g/m*3 4.05 C 5.23333 km/h
2138 12-11-2019 02:00:00 5.375 C 6.55 g/m*3 5.38 C 3.21667 km/h
2139 12-11-2019 03:00:00 5.475 C 6.47 g/m*3 5.48 C 3.48333 km/h
2140 12-11-2019 04:00:00 5.6 C 6.45 g/m*3 5.6 C 2.275 km/h
2141 12-11-2019 05:00:00 5.45833 C 6.41 g/m*3 5.46 C 1.06667 km/h
2142 12-11-2019 06:00:00 5.375 C 6.4 g/m*3 5.38 C 2.26667 km/h
2143 12-11-2019 07:00:00 5.7 C 6.39 g/m*3 5.7 C 2.4 km/h
2144 12-11-2019 08:00:00 5.88333 C 6.42 g/m*3 5.88 C 2 km/h
2145 12-11-2019 09:00:00 6.58333 C 6.53 g/m*3 6.58 C 2.94167 km/h
2146 12-11-2019 10:00:00 7.66667 C 6.68 g/m*3 6.7 C 6.3 km/h
2147 12-11-2019 11:00:00 8.03333 C 6.79 g/m*3 6.34 C 9.7 km/h
2148 12-11-2019 12:00:00 7.91667 C 6.89 g/m*3 5.25 C 15.7 km/h
2149 12-11-2019 13:00:00 7.73333 C 6.67 g/m*3 4.97 C 16.1 km/h
2150 12-11-2019 14:00:00 7.76667 C 6.55 g/m*3 5.68 C 11.55833 km/h
Sensor: Nr:Datum:Temp:Abs-Feuchte:Windchill:Wind:
Aussen-T/F 2151 12-11-2019 15:00:00 7.75833 C 6.52 g/m*3 5.99 C 9.81667 km/h
2152 12-11-2019 16:00:00 7.31667 C 6.41 g/m*3 5.6 C 9.14167 km/h
2153 12-11-2019 17:00:00 6.60833 C 6.23 g/m*3 5.78 C 5.35833 km/h
2154 12-11-2019 18:00:00 5.85 C 6.26 g/m*3 5.85 C 0.53333 km/h
2155 12-11-2019 19:00:00 4.65833 C 5.93 g/m*3 4.66 C 0 km/h
2156 12-11-2019 20:00:00 3.29167 C 5.55 g/m*3 3.29 C 0.13333 km/h
2157 12-11-2019 21:00:00 3.23333 C 5.65 g/m*3 3.23 C 0.4 km/h
2158 12-11-2019 22:00:00 3.85 C 5.94 g/m*3 3.85 C 2.4 km/h
2159 12-11-2019 23:00:00 4.66667 C 6.06 g/m*3 4.67 C 3.21667 km/h
2160 13-11-2019 00:00:00 4.89167 C 5.98 g/m*3 4.89 C 1.6 km/h
2161 13-11-2019 01:00:00 4.65833 C 5.91 g/m*3 4.66 C 0.26667 km/h
2162 13-11-2019 02:00:00 3.33333 C 5.52 g/m*3 3.33 C 0.8 km/h
2163 13-11-2019 03:00:00 4.14167 C 5.76 g/m*3 4.14 C 2.81667 km/h
2164 13-11-2019 04:00:00 4.48333 C 5.82 g/m*3 4.48 C 0.93333 km/h
2165 13-11-2019 05:00:00 4.53333 C 5.87 g/m*3 4.53 C 0.66667 km/h
2166 13-11-2019 06:00:00 4.50833 C 5.89 g/m*3 4.51 C 0.53333 km/h
2167 13-11-2019 07:00:00 4.16667 C 5.82 g/m*3 4.17 C 0 km/h
2168 13-11-2019 08:00:00 4.58333 C 5.99 g/m*3 4.58 C 0.4 km/h
2169 13-11-2019 09:00:00 5.43333 C 6.19 g/m*3 4 C 6.725 km/h
2170 13-11-2019 10:00:00 6.01667 C 6.27 g/m*3 4.97 C 5.75833 km/h
2171 13-11-2019 11:00:00 6.30833 C 6.36 g/m*3 4.37 C 9.28333 km/h
2172 13-11-2019 12:00:00 6.81667 C 6.46 g/m*3 4.73 C 10.48333 km/h
2173 13-11-2019 13:00:00 6.775 C 6.44 g/m*3 5.17 C 8.20833 km/h
2174 13-11-2019 14:00:00 6.65 C 6.48 g/m*3 4.69 C 9.68333 km/h
2175 13-11-2019 15:00:00 6.69167 C 6.52 g/m*3 5.11 C 8.04167 km/h
Sensor: Nr:Datum:Temp:Abs-Feuchte:Windchill:Wind:
Aussen-T/F 2176 13-11-2019 16:00:00 6.6 C 6.52 g/m*3 5.68 C 5.625 km/h
2177 13-11-2019 17:00:00 6.41667 C 6.49 g/m*3 6.42 C 1.33333 km/h
2178 13-11-2019 18:00:00 6.35 C 6.51 g/m*3 6.35 C 0.26667 km/h
2179 13-11-2019 19:00:00 6.225 C 6.53 g/m*3 6.23 C 2.53333 km/h
2180 13-11-2019 20:00:00 6.26667 C 6.51 g/m*3 6.27 C 4.15 km/h
2181 13-11-2019 21:00:00 5.9 C 6.44 g/m*3 5.9 C 0 km/h
2182 13-11-2019 22:00:00 5.025 C 6.18 g/m*3 5.03 C 0.53333 km/h
2183 13-11-2019 23:00:00 4.60833 C 6.09 g/m*3 4.61 C 0.26667 km/h
2184 14-11-2019 00:00:00 4.95 C 6.32 g/m*3 4.95 C 0.26667 km/h
2185 14-11-2019 01:00:00 4.81667 C 6.23 g/m*3 4.82 C 1.06667 km/h
2186 14-11-2019 02:00:00 4.8 C 6.32 g/m*3 4.8 C 0.26667 km/h
2187 14-11-2019 03:00:00 5.425 C 6.56 g/m*3 5.43 C 1.73333 km/h
2188 14-11-2019 04:00:00 5.69167 C 6.56 g/m*3 5.69 C 1.46667 km/h
2189 14-11-2019 05:00:00 4.84167 C 6.26 g/m*3 4.84 C 0 km/h
2190 14-11-2019 06:00:00 4.70833 C 6.28 g/m*3 4.71 C 0.8 km/h
2191 14-11-2019 07:00:00 5.25833 C 6.3 g/m*3 4.34 C 5.09167 km/h
2192 14-11-2019 08:00:00 5.28333 C 6.17 g/m*3 5.28 C 3.46667 km/h
2193 14-11-2019 09:00:00 5.64167 C 6.2 g/m*3 5.64 C 4 km/h
2194 14-11-2019 10:00:00 6.68333 C 6.33 g/m*3 6.68 C 4.55 km/h
2195 14-11-2019 11:00:00 7.86667 C 6.26 g/m*3 7.17 C 5.49167 km/h
2196 14-11-2019 12:00:00 8.725 C 6.09 g/m*3 7.78 C 6.84167 km/h
2197 14-11-2019 13:00:00 8.68333 C 6.07 g/m*3 8.68 C 4.53333 km/h
2198 14-11-2019 14:00:00 9.01667 C 5.98 g/m*3 9.02 C 4.825 km/h
2199 14-11-2019 15:00:00 8.2 C 6.17 g/m*3 8.2 C 1.2 km/h
2200 14-11-2019 16:00:00 6.66667 C 6.05 g/m*3 6.67 C 0 km/h
Sensor: Nr:Datum:Temp:Abs-Feuchte:Windchill:Wind:
Aussen-T/F 2201 14-11-2019 17:00:00 4.96667 C 5.66 g/m*3 4.97 C 0.53333 km/h
2202 14-11-2019 18:00:00 4.48333 C 5.6 g/m*3 4.48 C 0.66667 km/h
2203 14-11-2019 19:00:00 3.86667 C 5.46 g/m*3 3.87 C 0 km/h
2204 14-11-2019 20:00:00 3.45 C 5.44 g/m*3 3.45 C 0.13333 km/h
2205 14-11-2019 21:00:00 2.86667 C 5.32 g/m*3 2.87 C 0 km/h
2206 14-11-2019 22:00:00 2.55833 C 5.32 g/m*3 2.56 C 0 km/h
2207 14-11-2019 23:00:00 2.725 C 5.44 g/m*3 2.73 C 0 km/h
2208 15-11-2019 00:00:00 2.975 C 5.57 g/m*3 2.98 C 0 km/h
2209 15-11-2019 01:00:00 3.43333 C 5.73 g/m*3 3.43 C 0 km/h
2210 15-11-2019 02:00:00 3.43333 C 5.69 g/m*3 3.43 C 0.13333 km/h
2211 15-11-2019 03:00:00 3.4 C 5.63 g/m*3 3.4 C 0.4 km/h
2212 15-11-2019 04:00:00 3.36667 C 5.59 g/m*3 3.37 C 2.4 km/h
2213 15-11-2019 05:00:00 3.53333 C 5.56 g/m*3 3.53 C 0.8 km/h
2214 15-11-2019 06:00:00 3.89167 C 5.55 g/m*3 3.89 C 4.29167 km/h
2215 15-11-2019 07:00:00 3.88333 C 5.52 g/m*3 3.88 C 2.66667 km/h
2216 15-11-2019 08:00:00 4.05833 C 5.58 g/m*3 4.06 C 1.88333 km/h
2217 15-11-2019 09:00:00 4.275 C 5.67 g/m*3 4.28 C 1.74167 km/h
2218 15-11-2019 10:00:00 5.38333 C 5.82 g/m*3 5.38 C 3.2 km/h
2219 15-11-2019 11:00:00 5.86667 C 5.88 g/m*3 5.03 C 5.1 km/h
2220 15-11-2019 12:00:00 6.55 C 6.08 g/m*3 6.55 C 3.35 km/h
2221 15-11-2019 13:00:00 7.05 C 6.26 g/m*3 7.05 C 1.06667 km/h
2222 15-11-2019 14:00:00 7.68333 C 6.42 g/m*3 7.68 C 2.13333 km/h
2223 15-11-2019 15:00:00 7.875 C 6.45 g/m*3 7.88 C 2.26667 km/h
2224 15-11-2019 16:00:00 6.54167 C 6.22 g/m*3 6.54 C 0.13333 km/h
2225 15-11-2019 17:00:00 4.75833 C 5.93 g/m*3 4.76 C 0 km/h
Sensor: Nr:Datum:Temp:Abs-Feuchte:Windchill:Wind:
Aussen-T/F 2226 15-11-2019 18:00:00 4.63333 C 6.01 g/m*3 4.63 C 0.26667 km/h
2227 15-11-2019 19:00:00 4.50833 C 6.02 g/m*3 4.51 C 0 km/h
2228 15-11-2019 20:00:00 4.2 C 5.93 g/m*3 4.2 C 0 km/h
2229 15-11-2019 21:00:00 4.05 C 5.93 g/m*3 4.05 C 0 km/h
2230 15-11-2019 22:00:00 3.70833 C 5.81 g/m*3 3.71 C 0 km/h
2231 15-11-2019 23:00:00 3.49167 C 5.77 g/m*3 3.49 C 0 km/h
2232 16-11-2019 00:00:00 3.30833 C 5.71 g/m*3 3.31 C 0 km/h
2233 16-11-2019 01:00:00 3.225 C 5.73 g/m*3 3.23 C 0.13333 km/h
2234 16-11-2019 02:00:00 3.11667 C 5.69 g/m*3 3.12 C 0.13333 km/h
2235 16-11-2019 03:00:00 2.63333 C 5.5 g/m*3 2.63 C 0 km/h
2236 16-11-2019 04:00:00 1.85 C 5.2 g/m*3 1.85 C 0 km/h
2237 16-11-2019 05:00:00 0.85 C 4.88 g/m*3 0.85 C 0 km/h
2238 16-11-2019 06:00:00 0.08333 C 4.63 g/m*3 0.08 C 0 km/h
2239 16-11-2019 07:00:00 -0.30833 C 4.52 g/m*3 -0.31 C 0.26667 km/h
2240 16-11-2019 08:00:00 0.24167 C 4.73 g/m*3 0.24 C 2.13333 km/h
2241 16-11-2019 09:00:00 0.31667 C 4.77 g/m*3 0.32 C 4.53333 km/h
2242 16-11-2019 10:00:00 0.74167 C 4.95 g/m*3 0.74 C 2.8 km/h
2243 16-11-2019 11:00:00 1.425 C 5.18 g/m*3 1.43 C 2.53333 km/h
2244 16-11-2019 12:00:00 2.25833 C 5.49 g/m*3 2.26 C 0 km/h
2245 16-11-2019 13:00:00 3.375 C 5.91 g/m*3 3.38 C 0 km/h
2246 16-11-2019 14:00:00 4.20833 C 6.25 g/m*3 4.21 C 0.13333 km/h
2247 16-11-2019 15:00:00 4.66667 C 6.39 g/m*3 4.67 C 0.4 km/h
2248 16-11-2019 16:00:00 4.58333 C 6.18 g/m*3 4.58 C 0.26667 km/h
2249 16-11-2019 17:00:00 3.94167 C 5.92 g/m*3 3.94 C 0.26667 km/h
2250 16-11-2019 18:00:00 3.20833 C 5.7 g/m*3 3.21 C 0.4 km/h
Sensor: Nr:Datum:Temp:Abs-Feuchte:Windchill:Wind:
Aussen-T/F 2251 16-11-2019 19:00:00 2.55833 C 5.48 g/m*3 2.56 C 0.13333 km/h
2252 16-11-2019 20:00:00 1.94167 C 5.29 g/m*3 1.94 C 0 km/h
2253 16-11-2019 21:00:00 1.55833 C 5.17 g/m*3 1.56 C 0 km/h
2254 16-11-2019 22:00:00 0.79167 C 4.91 g/m*3 0.79 C 0.13333 km/h
2255 16-11-2019 23:00:00 0.15833 C 4.7 g/m*3 0.16 C 0 km/h
2256 17-11-2019 00:00:00 -0.3 C 4.56 g/m*3 -0.3 C 0 km/h
2257 17-11-2019 01:00:00 -0.69167 C 4.44 g/m*3 -0.69 C 0 km/h
2258 17-11-2019 02:00:00 -0.11667 C 4.65 g/m*3 -0.12 C 0 km/h
2259 17-11-2019 03:00:00 0.8 C 4.97 g/m*3 0.8 C 0 km/h
2260 17-11-2019 04:00:00 1.475 C 5.2 g/m*3 1.48 C 0 km/h
2261 17-11-2019 05:00:00 1.65833 C 5.27 g/m*3 1.66 C 0 km/h
2262 17-11-2019 06:00:00 1.7 C 5.28 g/m*3 1.7 C 0 km/h
2263 17-11-2019 07:00:00 1.825 C 5.33 g/m*3 1.83 C 0 km/h
2264 17-11-2019 08:00:00 1.96667 C 5.38 g/m*3 1.97 C 0 km/h
2265 17-11-2019 09:00:00 2.475 C 5.58 g/m*3 2.48 C 0 km/h
2266 17-11-2019 10:00:00 3.15 C 5.89 g/m*3 3.15 C 0.26667 km/h
2267 17-11-2019 11:00:00 3.91667 C 6.2 g/m*3 3.92 C 0.13333 km/h
2268 17-11-2019 12:00:00 4.31667 C 6.36 g/m*3 4.32 C 0 km/h
2269 17-11-2019 13:00:00 4.90833 C 6.62 g/m*3 4.91 C 0 km/h
2270 17-11-2019 14:00:00 5.1 C 6.69 g/m*3 5.1 C 0.93333 km/h
2271 17-11-2019 15:00:00 4.88333 C 6.54 g/m*3 4.88 C 1.33333 km/h
2272 17-11-2019 16:00:00 4.65 C 6.44 g/m*3 4.65 C 2.66667 km/h
2273 17-11-2019 17:00:00 4.43333 C 6.35 g/m*3 4.43 C 2.13333 km/h
2274 17-11-2019 18:00:00 4.63333 C 6.43 g/m*3 4.63 C 1.6 km/h
2275 17-11-2019 19:00:00 4.7 C 6.46 g/m*3 3.15 C 6.70833 km/h
Sensor: Nr:Datum:Temp:Abs-Feuchte:Windchill:Wind:
Aussen-T/F 2276 17-11-2019 20:00:00 4.71667 C 6.47 g/m*3 4.72 C 3.74167 km/h
2277 17-11-2019 21:00:00 4.7 C 6.46 g/m*3 3.51 C 5.625 km/h
2278 17-11-2019 22:00:00 4.7 C 6.46 g/m*3 4.7 C 1.2 km/h
2279 17-11-2019 23:00:00 4.625 C 6.43 g/m*3 4.63 C 2.95 km/h
2280 18-11-2019 00:00:00 4.375 C 6.32 g/m*3 3.18 C 5.5 km/h
2281 18-11-2019 01:00:00 4.2 C 6.25 g/m*3 2.71 C 6.29167 km/h
2282 18-11-2019 02:00:00 4.2 C 6.25 g/m*3 4.2 C 4.41667 km/h
2283 18-11-2019 03:00:00 4.2 C 6.25 g/m*3 4.2 C 2.93333 km/h
2284 18-11-2019 04:00:00 4.2 C 6.25 g/m*3 4.2 C 4.00833 km/h
2285 18-11-2019 05:00:00 4.175 C 6.24 g/m*3 4.18 C 1.73333 km/h
2286 18-11-2019 06:00:00 4.1 C 6.21 g/m*3 4.1 C 0.53333 km/h
2287 18-11-2019 07:00:00 4.08333 C 6.2 g/m*3 4.08 C 0.4 km/h
2288 18-11-2019 08:00:00 4.14167 C 6.23 g/m*3 4.14 C 0 km/h
2289 18-11-2019 09:00:00 4.40833 C 6.34 g/m*3 4.41 C 0.13333 km/h
2290 18-11-2019 10:00:00 4.86667 C 6.58 g/m*3 4.87 C 0.26667 km/h
2291 18-11-2019 11:00:00 5.025 C 6.6 g/m*3 5.03 C 0.93333 km/h
2292 18-11-2019 12:00:00 5.30833 C 6.7 g/m*3 5.31 C 3.46667 km/h
2293 18-11-2019 13:00:00 5.33333 C 6.67 g/m*3 5.33 C 3.46667 km/h
2294 18-11-2019 14:00:00 5.35833 C 6.63 g/m*3 5.36 C 4 km/h
2295 18-11-2019 15:00:00 5.19167 C 6.54 g/m*3 5.19 C 3.6 km/h
2296 18-11-2019 16:00:00 4.86667 C 6.4 g/m*3 4.87 C 4.29167 km/h
2297 18-11-2019 17:00:00 4.78333 C 6.36 g/m*3 4.78 C 4.55 km/h
2298 18-11-2019 18:00:00 4.65833 C 6.31 g/m*3 4.66 C 4.01667 km/h
2299 18-11-2019 19:00:00 4.08333 C 6.07 g/m*3 2.01 C 8.19167 km/h
2300 18-11-2019 20:00:00 3.23333 C 5.74 g/m*3 0.59 C 9.81667 km/h
Sensor: Nr:Datum:Temp:Abs-Feuchte:Windchill:Wind:
Aussen-T/F 2301 18-11-2019 21:00:00 2.55833 C 5.51 g/m*3 -0.5 C 11.03333 km/h
2302 18-11-2019 22:00:00 2.88333 C 5.66 g/m*3 0.08 C 10.23333 km/h
2303 18-11-2019 23:00:00 3.25 C 5.8 g/m*3 0.22 C 11.56667 km/h
2304 19-11-2019 00:00:00 3.7 C 5.98 g/m*3 1.02 C 10.35833 km/h
2305 19-11-2019 01:00:00 4.01667 C 6.11 g/m*3 2.19 C 7.25833 km/h
2306 19-11-2019 02:00:00 4.2 C 6.19 g/m*3 2.84 C 5.89167 km/h
2307 19-11-2019 03:00:00 4.25833 C 6.21 g/m*3 4.26 C 3.2 km/h
2308 19-11-2019 04:00:00 4.325 C 6.24 g/m*3 2.67 C 6.85833 km/h
2309 19-11-2019 05:00:00 3.475 C 5.88 g/m*3 3.48 C 0.8 km/h
2310 19-11-2019 06:00:00 2.85 C 5.66 g/m*3 2.85 C 2.66667 km/h
2311 19-11-2019 07:00:00 2.93333 C 5.72 g/m*3 2.93 C 0.53333 km/h
2312 19-11-2019 08:00:00 3.18333 C 5.84 g/m*3 3.18 C 2.13333 km/h
2313 19-11-2019 09:00:00 4.025 C 6.17 g/m*3 2.79 C 5.48333 km/h
2314 19-11-2019 10:00:00 4.00833 C 6.14 g/m*3 4.01 C 2 km/h
2315 19-11-2019 11:00:00 4.65833 C 6.44 g/m*3 4.66 C 3.89167 km/h
2316 19-11-2019 12:00:00 6.175 C 6.72 g/m*3 4.71 C 7.24167 km/h
2317 19-11-2019 13:00:00 6.35 C 6.55 g/m*3 5.18 C 6.30833 km/h
2318 19-11-2019 14:00:00 6.63333 C 6.58 g/m*3 5.72 C 5.61667 km/h
2319 19-11-2019 15:00:00 6.55 C 6.77 g/m*3 6.55 C 0.93333 km/h
2320 19-11-2019 16:00:00 5.54167 C 6.53 g/m*3 5.54 C 2.53333 km/h
2321 19-11-2019 17:00:00 4.175 C 6.03 g/m*3 4.18 C 1.33333 km/h
2322 19-11-2019 18:00:00 3.325 C 5.77 g/m*3 3.33 C 0.26667 km/h
2323 19-11-2019 19:00:00 2.74167 C 5.56 g/m*3 2.74 C 0.13333 km/h
2324 19-11-2019 20:00:00 2.3 C 5.45 g/m*3 2.3 C 0.4 km/h
2325 19-11-2019 21:00:00 2.80833 C 5.67 g/m*3 2.81 C 2.14167 km/h
Sensor: Nr:Datum:Temp:Abs-Feuchte:Windchill:Wind:
Aussen-T/F 2326 19-11-2019 22:00:00 2.45 C 5.51 g/m*3 2.45 C 0.4 km/h
2327 19-11-2019 23:00:00 1.10833 C 5.02 g/m*3 1.11 C 0 km/h
2328 20-11-2019 00:00:00 0.60833 C 4.85 g/m*3 0.61 C 0.13333 km/h
2329 20-11-2019 01:00:00 0.23333 C 4.73 g/m*3 0.23 C 0 km/h
2330 20-11-2019 02:00:00 0.35833 C 4.82 g/m*3 0.36 C 0 km/h
2331 20-11-2019 03:00:00 0.55833 C 4.88 g/m*3 0.56 C 2.14167 km/h
2332 20-11-2019 04:00:00 0.39167 C 4.83 g/m*3 0.39 C 2.80833 km/h
2333 20-11-2019 05:00:00 0.675 C 4.92 g/m*3 0.68 C 2.66667 km/h
2334 20-11-2019 06:00:00 0.75833 C 4.95 g/m*3 0.76 C 0.13333 km/h
2335 20-11-2019 07:00:00 1.01667 C 5.04 g/m*3 1.02 C 0.26667 km/h
2336 20-11-2019 08:00:00 1.275 C 5.15 g/m*3 1.27 C 0 km/h
2337 20-11-2019 09:00:00 1.85 C 5.39 g/m*3 1.85 C 0.26667 km/h
2338 20-11-2019 10:00:00 2.61667 C 5.68 g/m*3 2.62 C 0.26667 km/h
2339 20-11-2019 11:00:00 3.025 C 5.82 g/m*3 3.03 C 1.46667 km/h
2340 20-11-2019 12:00:00 4.16667 C 6.22 g/m*3 4.17 C 4.54167 km/h
2341 20-11-2019 13:00:00 4.9 C 6.09 g/m*3 2.97 C 8.19167 km/h
2342 20-11-2019 14:00:00 5.275 C 5.97 g/m*3 5.28 C 4.15 km/h
2343 20-11-2019 15:00:00 5.225 C 5.87 g/m*3 5.23 C 1.33333 km/h
2344 20-11-2019 16:00:00 3.54167 C 5.45 g/m*3 3.54 C 0.26667 km/h
2345 20-11-2019 17:00:00 2.34167 C 5.25 g/m*3 2.34 C 0 km/h
2346 20-11-2019 18:00:00 1.31667 C 4.96 g/m*3 1.32 C 0.13333 km/h
2347 20-11-2019 19:00:00 0.4 C 4.7 g/m*3 0.4 C 0 km/h
2348 20-11-2019 20:00:00 -0.19167 C 4.54 g/m*3 -0.19 C 0 km/h
2349 20-11-2019 21:00:00 -0.59167 C 4.45 g/m*3 -0.59 C 0 km/h
2350 20-11-2019 22:00:00 -0.85 C 4.39 g/m*3 -0.85 C 0.26667 km/h
Sensor: Nr:Datum:Temp:Abs-Feuchte:Windchill:Wind:
Aussen-T/F 2351 20-11-2019 23:00:00 -0.6 C 4.47 g/m*3 -0.6 C 0 km/h
2352 21-11-2019 00:00:00 -0.6 C 4.48 g/m*3 -0.6 C 0 km/h
2353 21-11-2019 01:00:00 -1.19167 C 4.28 g/m*3 -1.19 C 0 km/h
2354 21-11-2019 02:00:00 -1.4 C 4.22 g/m*3 -1.4 C 0 km/h
2355 21-11-2019 03:00:00 -1.23333 C 4.31 g/m*3 -1.23 C 0 km/h
2356 21-11-2019 04:00:00 -0.40833 C 4.57 g/m*3 -0.41 C 0 km/h
2357 21-11-2019 05:00:00 0.16667 C 4.75 g/m*3 0.17 C 0 km/h
2358 21-11-2019 06:00:00 0.65 C 4.92 g/m*3 0.65 C 0.13333 km/h
2359 21-11-2019 07:00:00 0.775 C 4.96 g/m*3 0.78 C 0 km/h
2360 21-11-2019 08:00:00 0.85 C 4.98 g/m*3 0.85 C 0.4 km/h
2361 21-11-2019 09:00:00 1.225 C 5.11 g/m*3 1.23 C 0.26667 km/h
2362 21-11-2019 10:00:00 1.775 C 5.31 g/m*3 1.78 C 0 km/h
2363 21-11-2019 11:00:00 2.53333 C 5.59 g/m*3 2.53 C 0.53333 km/h
2364 21-11-2019 12:00:00 2.925 C 5.68 g/m*3 2.93 C 1.6 km/h
2365 21-11-2019 13:00:00 3.6 C 5.92 g/m*3 3.6 C 1.6 km/h
2366 21-11-2019 14:00:00 4.33333 C 6.13 g/m*3 4.33 C 0.53333 km/h
2367 21-11-2019 15:00:00 4.78333 C 6.29 g/m*3 4.78 C 0 km/h
2368 21-11-2019 16:00:00 4.975 C 6.38 g/m*3 4.97 C 0 km/h
2369 21-11-2019 17:00:00 4.48333 C 6.23 g/m*3 4.48 C 0 km/h
2370 21-11-2019 18:00:00 4.18333 C 6.12 g/m*3 4.18 C 0 km/h
2371 21-11-2019 19:00:00 3.975 C 6.06 g/m*3 3.98 C 0 km/h
2372 21-11-2019 20:00:00 3.10833 C 5.7 g/m*3 3.11 C 0.4 km/h
2373 21-11-2019 21:00:00 2.35 C 5.46 g/m*3 2.35 C 0.4 km/h
2374 21-11-2019 22:00:00 1.89167 C 5.3 g/m*3 1.89 C 0.13333 km/h
2375 21-11-2019 23:00:00 2.05 C 5.41 g/m*3 2.05 C 0.13333 km/h
Sensor: Nr:Datum:Temp:Abs-Feuchte:Windchill:Wind:
Aussen-T/F 2376 22-11-2019 00:00:00 2.24167 C 5.48 g/m*3 2.24 C 0.13333 km/h
2377 22-11-2019 01:00:00 2 C 5.39 g/m*3 2 C 0.13333 km/h
2378 22-11-2019 02:00:00 1.6 C 5.24 g/m*3 1.6 C 0.26667 km/h
2379 22-11-2019 03:00:00 1.725 C 5.29 g/m*3 1.73 C 0.13333 km/h
2380 22-11-2019 04:00:00 2.11667 C 5.43 g/m*3 2.12 C 0 km/h
2381 22-11-2019 05:00:00 2.69167 C 5.68 g/m*3 2.69 C 0.13333 km/h
2382 22-11-2019 06:00:00 3.55833 C 6.05 g/m*3 3.56 C 0 km/h
2383 22-11-2019 07:00:00 3.99167 C 6.23 g/m*3 3.99 C 0.13333 km/h
2384 22-11-2019 08:00:00 4.55833 C 6.47 g/m*3 4.56 C 3.06667 km/h
2385 22-11-2019 09:00:00 4.65833 C 6.48 g/m*3 4.66 C 3.88333 km/h
2386 22-11-2019 10:00:00 4.50833 C 6.39 g/m*3 4.51 C 2.26667 km/h
2387 22-11-2019 11:00:00 5.18333 C 6.68 g/m*3 5.18 C 4.93333 km/h
2388 22-11-2019 12:00:00 5.7 C 6.86 g/m*3 4.39 C 6.45 km/h
2389 22-11-2019 13:00:00 5.88333 C 6.79 g/m*3 4.82 C 5.75 km/h
2390 22-11-2019 14:00:00 6.06667 C 6.78 g/m*3 4.41 C 7.91667 km/h
2391 22-11-2019 15:00:00 6.16667 C 6.75 g/m*3 6.17 C 4.00833 km/h
2392 22-11-2019 16:00:00 5.90833 C 6.66 g/m*3 5.91 C 1.73333 km/h
2393 22-11-2019 17:00:00 5.73333 C 6.66 g/m*3 5.73 C 1.46667 km/h
2394 22-11-2019 18:00:00 5.63333 C 6.64 g/m*3 5.63 C 1.46667 km/h
2395 22-11-2019 19:00:00 5.49167 C 6.55 g/m*3 5.49 C 2.26667 km/h
2396 22-11-2019 20:00:00 5.275 C 6.43 g/m*3 5.28 C 3.48333 km/h
2397 22-11-2019 21:00:00 5.08333 C 6.35 g/m*3 5.08 C 1.33333 km/h
2398 22-11-2019 22:00:00 4.88333 C 6.25 g/m*3 4.88 C 2.26667 km/h
2399 22-11-2019 23:00:00 4.725 C 6.16 g/m*3 4.72 C 2.13333 km/h
2400 23-11-2019 00:00:00 4.725 C 6.16 g/m*3 4.72 C 2.53333 km/h
Sensor: Nr:Datum:Temp:Abs-Feuchte:Windchill:Wind:
Aussen-T/F 2401 23-11-2019 01:00:00 4.83333 C 6.15 g/m*3 4.83 C 3.88333 km/h
2402 23-11-2019 02:00:00 4.775 C 6.13 g/m*3 4.78 C 1.06667 km/h
2403 23-11-2019 03:00:00 4.425 C 6.08 g/m*3 4.43 C 1.86667 km/h
2404 23-11-2019 04:00:00 4 C 5.96 g/m*3 4 C 0.26667 km/h
2405 23-11-2019 05:00:00 3.69167 C 5.9 g/m*3 3.69 C 0.8 km/h
2406 23-11-2019 06:00:00 3.68333 C 5.94 g/m*3 3.68 C 0.4 km/h
2407 23-11-2019 07:00:00 3.94167 C 6.08 g/m*3 3.94 C 0.53333 km/h
2408 23-11-2019 08:00:00 4.15 C 6.17 g/m*3 4.15 C 1.60833 km/h
2409 23-11-2019 09:00:00 5.00833 C 6.52 g/m*3 5.01 C 1.86667 km/h
2410 23-11-2019 10:00:00 6.15833 C 6.75 g/m*3 6.16 C 3.74167 km/h
2411 23-11-2019 11:00:00 7.225 C 6.91 g/m*3 7.23 C 4.14167 km/h
2412 23-11-2019 12:00:00 7.35833 C 7.14 g/m*3 7.36 C 1.33333 km/h
2413 23-11-2019 13:00:00 7.65 C 7.27 g/m*3 7.65 C 2 km/h
2414 23-11-2019 14:00:00 7.53333 C 7.39 g/m*3 7.53 C 2.53333 km/h
2415 23-11-2019 15:00:00 8.36667 C 7.53 g/m*3 7.83 C 5.225 km/h
2416 23-11-2019 16:00:00 7.625 C 7.15 g/m*3 7.63 C 2.275 km/h
2417 23-11-2019 17:00:00 6.25833 C 6.81 g/m*3 6.26 C 2.53333 km/h
2418 23-11-2019 18:00:00 5.76667 C 6.7 g/m*3 5.77 C 0.8 km/h
2419 23-11-2019 19:00:00 5.56667 C 6.69 g/m*3 5.57 C 1.46667 km/h
2420 23-11-2019 20:00:00 5.00833 C 6.46 g/m*3 5.01 C 0.26667 km/h
2421 23-11-2019 21:00:00 4.41667 C 6.22 g/m*3 4.42 C 0.13333 km/h
2422 23-11-2019 22:00:00 3.85833 C 6.04 g/m*3 3.86 C 0.4 km/h
2423 23-11-2019 23:00:00 3.28333 C 5.82 g/m*3 3.28 C 0.13333 km/h
2424 24-11-2019 00:00:00 2.8 C 5.63 g/m*3 2.8 C 0.13333 km/h
2425 24-11-2019 01:00:00 2.38333 C 5.49 g/m*3 2.38 C 0 km/h
Sensor: Nr:Datum:Temp:Abs-Feuchte:Windchill:Wind:
Aussen-T/F 2426 24-11-2019 02:00:00 2.16667 C 5.45 g/m*3 2.17 C 0 km/h
2427 24-11-2019 03:00:00 2.1 C 5.43 g/m*3 2.1 C 0 km/h
2428 24-11-2019 04:00:00 1.7 C 5.28 g/m*3 1.7 C 0 km/h
2429 24-11-2019 05:00:00 1.825 C 5.33 g/m*3 1.83 C 0.26667 km/h
2430 24-11-2019 06:00:00 1.48333 C 5.2 g/m*3 1.48 C 0 km/h
2431 24-11-2019 07:00:00 1.14167 C 5.08 g/m*3 1.14 C 0.13333 km/h
2432 24-11-2019 08:00:00 1.15 C 5.09 g/m*3 1.15 C 0 km/h
2433 24-11-2019 09:00:00 1.525 C 5.23 g/m*3 1.53 C 0.26667 km/h
2434 24-11-2019 10:00:00 2.25833 C 5.54 g/m*3 2.26 C 0.53333 km/h
2435 24-11-2019 11:00:00 3.01667 C 5.83 g/m*3 3.02 C 0.13333 km/h
2436 24-11-2019 12:00:00 3.81667 C 6.15 g/m*3 3.82 C 0 km/h
2437 24-11-2019 13:00:00 4.81667 C 6.58 g/m*3 4.82 C 0 km/h
2438 24-11-2019 14:00:00 5.39167 C 6.83 g/m*3 5.39 C 0 km/h
2439 24-11-2019 15:00:00 5.39167 C 6.83 g/m*3 5.39 C 0 km/h
2440 24-11-2019 16:00:00 4.71667 C 6.47 g/m*3 4.72 C 0 km/h
2441 24-11-2019 17:00:00 3.95 C 6.15 g/m*3 3.95 C 0 km/h
2442 24-11-2019 18:00:00 3.625 C 6.01 g/m*3 3.63 C 0 km/h
2443 24-11-2019 19:00:00 3.55 C 5.98 g/m*3 3.55 C 0 km/h
2444 24-11-2019 20:00:00 3.21667 C 5.85 g/m*3 3.22 C 0 km/h
2445 24-11-2019 21:00:00 3 C 5.77 g/m*3 3 C 0 km/h
2446 24-11-2019 22:00:00 2.48333 C 5.57 g/m*3 2.48 C 0 km/h
2447 24-11-2019 23:00:00 2.11667 C 5.44 g/m*3 2.12 C 0 km/h
2448 25-11-2019 00:00:00 2.06667 C 5.43 g/m*3 2.07 C 0 km/h
2449 25-11-2019 01:00:00 2.41667 C 5.6 g/m*3 2.42 C 0 km/h
2450 25-11-2019 02:00:00 2.26667 C 5.54 g/m*3 2.27 C 0 km/h
Sensor: Nr:Datum:Temp:Abs-Feuchte:Windchill:Wind:
Aussen-T/F 2451 25-11-2019 03:00:00 2.40833 C 5.6 g/m*3 2.41 C 0 km/h
2452 25-11-2019 04:00:00 2.7 C 5.71 g/m*3 2.7 C 0 km/h
2453 25-11-2019 05:00:00 3.06667 C 5.85 g/m*3 3.07 C 0 km/h
2454 25-11-2019 06:00:00 3.31667 C 5.95 g/m*3 3.32 C 0 km/h
2455 25-11-2019 07:00:00 3.575 C 6.06 g/m*3 3.58 C 0 km/h
2456 25-11-2019 08:00:00 3.80833 C 6.15 g/m*3 3.81 C 0 km/h
2457 25-11-2019 09:00:00 4.26667 C 6.34 g/m*3 4.27 C 0 km/h
2458 25-11-2019 10:00:00 4.73333 C 6.54 g/m*3 4.73 C 0 km/h
2459 25-11-2019 11:00:00 5.41667 C 6.85 g/m*3 5.42 C 0.13333 km/h
2460 25-11-2019 12:00:00 6.05 C 7.13 g/m*3 6.05 C 0.13333 km/h
2461 25-11-2019 13:00:00 6.675 C 7.35 g/m*3 6.68 C 0 km/h
2462 25-11-2019 14:00:00 7.08333 C 7.48 g/m*3 7.08 C 0.26667 km/h
2463 25-11-2019 15:00:00 7.225 C 7.48 g/m*3 7.23 C 0 km/h
2464 25-11-2019 16:00:00 7.15833 C 7.49 g/m*3 7.16 C 0 km/h
2465 25-11-2019 17:00:00 6.8 C 7.34 g/m*3 6.8 C 0 km/h
2466 25-11-2019 18:00:00 6.68333 C 7.29 g/m*3 6.68 C 0 km/h
2467 25-11-2019 19:00:00 6.19167 C 7.06 g/m*3 6.19 C 0 km/h
2468 25-11-2019 20:00:00 6.125 C 7.1 g/m*3 6.13 C 0.13333 km/h
2469 25-11-2019 21:00:00 5.86667 C 6.94 g/m*3 5.87 C 0 km/h
2470 25-11-2019 22:00:00 5.21667 C 6.63 g/m*3 5.22 C 0 km/h
2471 25-11-2019 23:00:00 4.28333 C 6.22 g/m*3 4.28 C 0 km/h
2472 26-11-2019 00:00:00 3.66667 C 6.02 g/m*3 3.67 C 0 km/h
2473 26-11-2019 01:00:00 4.225 C 6.26 g/m*3 4.22 C 0 km/h
2474 26-11-2019 02:00:00 4.71667 C 6.5 g/m*3 4.72 C 0.13333 km/h
2475 26-11-2019 03:00:00 5.25833 C 6.76 g/m*3 5.26 C 0.13333 km/h
Sensor: Nr:Datum:Temp:Abs-Feuchte:Windchill:Wind:
Aussen-T/F 2476 26-11-2019 04:00:00 5.88333 C 7.06 g/m*3 5.88 C 0 km/h
2477 26-11-2019 05:00:00 6.50833 C 7.35 g/m*3 6.51 C 0 km/h
2478 26-11-2019 06:00:00 6.75833 C 7.47 g/m*3 6.76 C 0.4 km/h
2479 26-11-2019 07:00:00 7.25 C 7.72 g/m*3 7.25 C 0.26667 km/h
2480 26-11-2019 08:00:00 7.45833 C 7.82 g/m*3 7.46 C 1.2 km/h
2481 26-11-2019 09:00:00 8.05833 C 8.13 g/m*3 8.06 C 2.66667 km/h
2482 26-11-2019 10:00:00 9.175 C 8.62 g/m*3 9.18 C 1.73333 km/h
2483 26-11-2019 11:00:00 10.38333 C 8.91 g/m*3 10.38 C 3.61667 km/h
2484 26-11-2019 12:00:00 10.98333 C 9.07 g/m*3 10.98 C 1.2 km/h
2485 26-11-2019 13:00:00 11.175 C 9.13 g/m*3 11.18 C 1.875 km/h
2486 26-11-2019 14:00:00 11.10833 C 9.19 g/m*3 11.11 C 0.66667 km/h
2487 26-11-2019 15:00:00 11.24167 C 9.17 g/m*3 11.24 C 1.2 km/h
2488 26-11-2019 16:00:00 10.69167 C 8.97 g/m*3 10.69 C 0.53333 km/h
2489 26-11-2019 17:00:00 10.01667 C 8.69 g/m*3 10.02 C 0.13333 km/h
2490 26-11-2019 18:00:00 9.73333 C 8.67 g/m*3 9.73 C 2 km/h
2491 26-11-2019 19:00:00 10.16667 C 8.78 g/m*3 10.17 C 2.93333 km/h
2492 26-11-2019 20:00:00 9.75 C 8.48 g/m*3 9.75 C 0.53333 km/h
2493 26-11-2019 21:00:00 9.15 C 8.43 g/m*3 9.15 C 0 km/h
2494 26-11-2019 22:00:00 9.225 C 8.43 g/m*3 9.23 C 0.4 km/h
2495 26-11-2019 23:00:00 8.66667 C 8.19 g/m*3 8.67 C 0.13333 km/h
2496 27-11-2019 00:00:00 8.46667 C 8.14 g/m*3 8.47 C 0.53333 km/h
2497 27-11-2019 01:00:00 8.38333 C 8.12 g/m*3 8.38 C 0.4 km/h
2498 27-11-2019 02:00:00 8.73333 C 8.36 g/m*3 8.73 C 0 km/h
2499 27-11-2019 03:00:00 8.21667 C 8.06 g/m*3 8.22 C 0 km/h
2500 27-11-2019 04:00:00 8.25833 C 8.15 g/m*3 8.26 C 3.06667 km/h
Sensor: Nr:Datum:Temp:Abs-Feuchte:Windchill:Wind:
Aussen-T/F 2501 27-11-2019 05:00:00 8.39167 C 8.15 g/m*3 7.82 C 5.34167 km/h
2502 27-11-2019 06:00:00 8.64167 C 8.21 g/m*3 8.64 C 1.46667 km/h
2503 27-11-2019 07:00:00 8.725 C 8.28 g/m*3 8.73 C 3.74167 km/h
2504 27-11-2019 08:00:00 9.13333 C 8.45 g/m*3 9.13 C 2.66667 km/h
2505 27-11-2019 09:00:00 9.60833 C 8.71 g/m*3 9.61 C 1.33333 km/h
2506 27-11-2019 10:00:00 10.00833 C 8.91 g/m*3 10.01 C 2.40833 km/h
2507 27-11-2019 11:00:00 11.66667 C 8.92 g/m*3 11.67 C 6.15833 km/h
2508 27-11-2019 12:00:00 12.65 C 8.78 g/m*3 12.65 C 12.625 km/h
2509 27-11-2019 13:00:00 12.775 C 8.66 g/m*3 12.78 C 10.61667 km/h
2510 27-11-2019 14:00:00 12.96667 C 8.63 g/m*3 12.97 C 7.375 km/h
2511 27-11-2019 15:00:00 12.8 C 8.56 g/m*3 12.8 C 12.21667 km/h
2512 27-11-2019 16:00:00 11.73333 C 8.77 g/m*3 11.73 C 4.95 km/h
2513 27-11-2019 17:00:00 10.73333 C 8.89 g/m*3 10.73 C 4.275 km/h
2514 27-11-2019 18:00:00 10.70833 C 8.97 g/m*3 10.49 C 5.225 km/h
2515 27-11-2019 19:00:00 10.75 C 9.05 g/m*3 9.96 C 7.65 km/h
2516 27-11-2019 20:00:00 11.26667 C 8.94 g/m*3 11.27 C 8.99167 km/h
2517 27-11-2019 21:00:00 10.76667 C 9.02 g/m*3 9.7 C 9.125 km/h
2518 27-11-2019 22:00:00 11.29167 C 8.86 g/m*3 11.29 C 16.375 km/h
2519 27-11-2019 23:00:00 11.6 C 8.61 g/m*3 11.6 C 17.175 km/h
2520 28-11-2019 00:00:00 11.575 C 8.47 g/m*3 11.58 C 19.7 km/h
2521 28-11-2019 01:00:00 11.61667 C 8.43 g/m*3 11.62 C 23.46667 km/h
2522 28-11-2019 02:00:00 11.20833 C 8.36 g/m*3 11.21 C 21.19167 km/h
2523 28-11-2019 03:00:00 11.05 C 8.04 g/m*3 11.05 C 19.70833 km/h
2524 28-11-2019 04:00:00 10.96667 C 7.93 g/m*3 8.7 C 18.9 km/h
2525 28-11-2019 05:00:00 10.66667 C 7.96 g/m*3 8.31 C 19.04167 km/h
Sensor: Nr:Datum:Temp:Abs-Feuchte:Windchill:Wind:
Aussen-T/F 2526 28-11-2019 06:00:00 10.66667 C 8.14 g/m*3 8.57 C 16.5 km/h
2527 28-11-2019 07:00:00 10.60833 C 7.98 g/m*3 8.38 C 17.56667 km/h
2528 28-11-2019 08:00:00 10.58333 C 7.94 g/m*3 8.28 C 18.24167 km/h
2529 28-11-2019 09:00:00 11.025 C 8.03 g/m*3 11.03 C 16.23333 km/h
2530 28-11-2019 10:00:00 11.58333 C 8.06 g/m*3 11.58 C 17.7 km/h
2531 28-11-2019 11:00:00 11.95833 C 8.23 g/m*3 11.96 C 20.76667 km/h
2532 28-11-2019 12:00:00 11.49167 C 8.53 g/m*3 11.49 C 19.16667 km/h
2533 28-11-2019 13:00:00 11.7 C 8.66 g/m*3 11.7 C 17.7 km/h
2534 28-11-2019 14:00:00 11.45 C 8.57 g/m*3 11.45 C 15.03333 km/h
2535 28-11-2019 15:00:00 11.16667 C 8.46 g/m*3 11.17 C 15.03333 km/h
2536 28-11-2019 16:00:00 10.83333 C 8.42 g/m*3 8.89 C 15.44167 km/h
2537 28-11-2019 17:00:00 10.41667 C 8.55 g/m*3 8.64 C 13.3 km/h
2538 28-11-2019 18:00:00 10.43333 C 8.46 g/m*3 8.56 C 14.1 km/h
2539 28-11-2019 19:00:00 10.41667 C 8.44 g/m*3 8.92 C 11.29167 km/h
2540 28-11-2019 20:00:00 10.31667 C 8.51 g/m*3 8.84 C 11.03333 km/h
2541 28-11-2019 21:00:00 10.33333 C 8.49 g/m*3 8.69 C 12.23333 km/h
2542 28-11-2019 22:00:00 10.19167 C 8.54 g/m*3 8.63 C 11.425 km/h
2543 28-11-2019 23:00:00 10.00833 C 8.53 g/m*3 9.12 C 7.50833 km/h
2544 29-11-2019 00:00:00 9.44167 C 8.49 g/m*3 8.86 C 5.89167 km/h
2545 29-11-2019 01:00:00 9.05 C 8.36 g/m*3 9.05 C 2.93333 km/h
2546 29-11-2019 02:00:00 8.825 C 8.3 g/m*3 8.82 C 0 km/h
2547 29-11-2019 03:00:00 8.58333 C 8.23 g/m*3 8.58 C 0.26667 km/h
2548 29-11-2019 04:00:00 8.21667 C 8.04 g/m*3 8.22 C 2.15 km/h
2549 29-11-2019 05:00:00 7.15 C 7.34 g/m*3 7.15 C 4.55 km/h
2550 29-11-2019 06:00:00 6.79167 C 7.26 g/m*3 6.79 C 2.80833 km/h
Sensor: Nr:Datum:Temp:Abs-Feuchte:Windchill:Wind:
Aussen-T/F 2551 29-11-2019 07:00:00 6.38333 C 7.01 g/m*3 6.38 C 2.00833 km/h
2552 29-11-2019 08:00:00 5.95833 C 6.88 g/m*3 5.96 C 0.4 km/h
2553 29-11-2019 09:00:00 5.525 C 6.68 g/m*3 5.53 C 1.73333 km/h
2554 29-11-2019 10:00:00 5.73333 C 6.69 g/m*3 5.73 C 3.06667 km/h
2555 29-11-2019 11:00:00 6.45833 C 6.76 g/m*3 6.46 C 4.00833 km/h
2556 29-11-2019 12:00:00 7.34167 C 6.65 g/m*3 5.26 C 11.01667 km/h
2557 29-11-2019 13:00:00 6.99167 C 6.45 g/m*3 6 C 6.04167 km/h
2558 29-11-2019 14:00:00 7.49167 C 6.11 g/m*3 6.08 C 7.925 km/h
2559 29-11-2019 15:00:00 7.675 C 5.92 g/m*3 5.94 C 9.55 km/h
2560 29-11-2019 16:00:00 6.63333 C 5.89 g/m*3 6.63 C 4.00833 km/h
2561 29-11-2019 17:00:00 4.95833 C 5.73 g/m*3 4.96 C 3.33333 km/h
2562 29-11-2019 18:00:00 4.88333 C 5.86 g/m*3 4.88 C 1.46667 km/h
2563 29-11-2019 19:00:00 5.13333 C 5.83 g/m*3 5.13 C 2.53333 km/h
2564 29-11-2019 20:00:00 4.80833 C 5.8 g/m*3 4.81 C 3.46667 km/h
2565 29-11-2019 21:00:00 4.55833 C 5.8 g/m*3 4.56 C 2.8 km/h
2566 29-11-2019 22:00:00 3.55 C 5.55 g/m*3 3.55 C 0.93333 km/h
2567 29-11-2019 23:00:00 2.56667 C 5.34 g/m*3 2.57 C 1.2 km/h
2568 30-11-2019 00:00:00 2.60833 C 5.44 g/m*3 2.61 C 1.33333 km/h
2569 30-11-2019 01:00:00 1.975 C 5.21 g/m*3 1.98 C 0.66667 km/h
2570 30-11-2019 02:00:00 1.725 C 5.18 g/m*3 1.73 C 0.4 km/h
2571 30-11-2019 03:00:00 1.51667 C 5.11 g/m*3 1.52 C 0.93333 km/h
2572 30-11-2019 04:00:00 1.93333 C 5.29 g/m*3 1.93 C 2.93333 km/h
2573 30-11-2019 05:00:00 1.35 C 5.05 g/m*3 1.35 C 0.93333 km/h
2574 30-11-2019 06:00:00 0.18333 C 4.66 g/m*3 0.18 C 0.13333 km/h
2575 30-11-2019 07:00:00 -0.19167 C 4.57 g/m*3 -0.19 C 0.26667 km/h
Sensor: Nr:Datum:Temp:Abs-Feuchte:Windchill:Wind:
Aussen-T/F 2576 30-11-2019 08:00:00 0.14167 C 4.7 g/m*3 0.14 C 0 km/h
2577 30-11-2019 09:00:00 0.18333 C 4.71 g/m*3 0.18 C 0.53333 km/h
2578 30-11-2019 10:00:00 0.55 C 4.88 g/m*3 0.55 C 1.6 km/h
2579 30-11-2019 11:00:00 0.89167 C 5 g/m*3 0.89 C 2.26667 km/h
2580 30-11-2019 12:00:00 1.35 C 5.16 g/m*3 1.35 C 0.66667 km/h
2581 30-11-2019 13:00:00 2.11667 C 5.43 g/m*3 2.12 C 0.93333 km/h
2582 30-11-2019 14:00:00 2.26667 C 5.49 g/m*3 2.27 C 2.13333 km/h
2583 30-11-2019 15:00:00 2.19167 C 5.46 g/m*3 2.19 C 1.2 km/h
2584 30-11-2019 16:00:00 1.99167 C 5.39 g/m*3 1.99 C 0 km/h
2585 30-11-2019 17:00:00 1.525 C 5.22 g/m*3 1.53 C 0 km/h
2586 30-11-2019 18:00:00 1.05833 C 5.05 g/m*3 1.06 C 0 km/h
2587 30-11-2019 19:00:00 0.79167 C 4.96 g/m*3 0.79 C 0 km/h
2588 30-11-2019 20:00:00 0.65 C 4.92 g/m*3 0.65 C 0 km/h
2589 30-11-2019 21:00:00 0.58333 C 4.89 g/m*3 0.58 C 0.26667 km/h
2590 30-11-2019 22:00:00 0.66667 C 4.92 g/m*3 0.67 C 0.53333 km/h
2591 30-11-2019 23:00:00 0.63333 C 4.91 g/m*3 0.63 C 1.2 km/h
2592 01-12-2019 00:00:00 0.6 C 4.91 g/m*3 0.6 C 0.26667 km/h
2593 01-12-2019 01:00:00 0.75833 C 5 g/m*3 0.76 C 0.26667 km/h
2594 01-12-2019 02:00:00 0.63333 C 4.95 g/m*3 0.63 C 0.53333 km/h
2595 01-12-2019 03:00:00 0.5 C 4.86 g/m*3 0.5 C 0.93333 km/h
2596 01-12-2019 04:00:00 0.10833 C 4.76 g/m*3 0.11 C 0 km/h
2597 01-12-2019 05:00:00 0.1 C 4.78 g/m*3 0.1 C 0.13333 km/h
2598 01-12-2019 06:00:00 -0.025 C 4.71 g/m*3 -0.03 C 0.4 km/h
2599 01-12-2019 07:00:00 0.35 C 4.86 g/m*3 0.35 C 2.53333 km/h
2600 01-12-2019 08:00:00 0.70833 C 4.99 g/m*3 0.71 C 1.06667 km/h
Sensor: Nr:Datum:Temp:Abs-Feuchte:Windchill:Wind:
Aussen-T/F 2601 01-12-2019 09:00:00 0.84167 C 5.03 g/m*3 0.84 C 0.26667 km/h
2602 01-12-2019 10:00:00 1.275 C 5.18 g/m*3 1.27 C 0.13333 km/h
2603 01-12-2019 11:00:00 2.1 C 5.48 g/m*3 2.1 C 3.075 km/h
2604 01-12-2019 12:00:00 2.975 C 5.48 g/m*3 1.69 C 5.23333 km/h
2605 01-12-2019 13:00:00 3.75833 C 5.24 g/m*3 3.76 C 2.13333 km/h
2606 01-12-2019 14:00:00 4.20833 C 5.11 g/m*3 4.21 C 0.93333 km/h
2607 01-12-2019 15:00:00 3.98333 C 5.33 g/m*3 3.98 C 0 km/h
2608 01-12-2019 16:00:00 3.16667 C 5.21 g/m*3 3.17 C 0 km/h
2609 01-12-2019 17:00:00 2.81667 C 5.2 g/m*3 2.82 C 0 km/h
2610 01-12-2019 18:00:00 2.8 C 5.19 g/m*3 2.8 C 0 km/h
2611 01-12-2019 19:00:00 2.86667 C 5.2 g/m*3 2.87 C 0 km/h
2612 01-12-2019 20:00:00 2.725 C 5.14 g/m*3 2.73 C 0 km/h
2613 01-12-2019 21:00:00 2.45 C 5.06 g/m*3 2.45 C 0.13333 km/h
2614 01-12-2019 22:00:00 1.99167 C 4.95 g/m*3 1.99 C 0 km/h
2615 01-12-2019 23:00:00 1.33333 C 4.8 g/m*3 1.33 C 0.26667 km/h
2616 02-12-2019 00:00:00 0.775 C 4.7 g/m*3 0.78 C 0.66667 km/h
2617 02-12-2019 01:00:00 0.63333 C 4.71 g/m*3 0.63 C 0.4 km/h
2618 02-12-2019 02:00:00 0.09167 C 4.53 g/m*3 0.09 C 1.6 km/h
2619 02-12-2019 03:00:00 -0.36667 C 4.41 g/m*3 -0.37 C 2.13333 km/h
2620 02-12-2019 04:00:00 -0.44167 C 4.44 g/m*3 -0.44 C 0.53333 km/h
2621 02-12-2019 05:00:00 -0.35 C 4.48 g/m*3 -0.35 C 0.26667 km/h
2622 02-12-2019 06:00:00 -0.6 C 4.42 g/m*3 -0.6 C 1.06667 km/h
2623 02-12-2019 07:00:00 -1.15833 C 4.24 g/m*3 -1.16 C 0.26667 km/h
2624 02-12-2019 08:00:00 -0.65 C 4.43 g/m*3 -0.65 C 1.06667 km/h
2625 02-12-2019 09:00:00 0.26667 C 4.71 g/m*3 0.27 C 4.26667 km/h
Sensor: Nr:Datum:Temp:Abs-Feuchte:Windchill:Wind:
Aussen-T/F 2626 02-12-2019 10:00:00 0.85 C 4.84 g/m*3 -0.66 C 5.08333 km/h
2627 02-12-2019 11:00:00 1.58333 C 4.99 g/m*3 1.58 C 4.41667 km/h
2628 02-12-2019 12:00:00 2.78333 C 5.31 g/m*3 2.78 C 4.69167 km/h
2629 02-12-2019 13:00:00 3.95 C 5.54 g/m*3 2.76 C 5.34167 km/h
2630 02-12-2019 14:00:00 4.725 C 5.91 g/m*3 4.72 C 4.55 km/h
2631 02-12-2019 15:00:00 5.19167 C 6.12 g/m*3 5.19 C 1.2 km/h
2632 02-12-2019 16:00:00 4.675 C 6.12 g/m*3 4.68 C 2.8 km/h
2633 02-12-2019 17:00:00 4.20833 C 6 g/m*3 4.21 C 1.6 km/h
2634 02-12-2019 18:00:00 3.875 C 5.88 g/m*3 3.88 C 0.53333 km/h
2635 02-12-2019 19:00:00 3.425 C 5.78 g/m*3 3.43 C 0.93333 km/h
2636 02-12-2019 20:00:00 3.7 C 5.92 g/m*3 3.7 C 1.73333 km/h
2637 02-12-2019 21:00:00 3.63333 C 5.89 g/m*3 3.63 C 4.825 km/h
2638 02-12-2019 22:00:00 3.475 C 5.89 g/m*3 3.48 C 4.40833 km/h
2639 02-12-2019 23:00:00 3.4 C 5.86 g/m*3 3.4 C 3.475 km/h
2640 03-12-2019 00:00:00 3.40833 C 5.87 g/m*3 1.52 C 7.11667 km/h
2641 03-12-2019 01:00:00 3.55833 C 5.93 g/m*3 3.56 C 4.80833 km/h
2642 03-12-2019 02:00:00 3.71667 C 5.99 g/m*3 3.72 C 2.00833 km/h
2643 03-12-2019 03:00:00 3.8 C 6.04 g/m*3 2.63 C 5.21667 km/h
2644 03-12-2019 04:00:00 3.89167 C 6.11 g/m*3 2.26 C 6.56667 km/h
2645 03-12-2019 05:00:00 4.01667 C 6.17 g/m*3 4.02 C 4.275 km/h
2646 03-12-2019 06:00:00 4.1 C 6.21 g/m*3 4.1 C 1.73333 km/h
2647 03-12-2019 07:00:00 4.19167 C 6.25 g/m*3 4.19 C 4.00833 km/h
2648 03-12-2019 08:00:00 4.23333 C 6.26 g/m*3 2.97 C 5.625 km/h
2649 03-12-2019 09:00:00 4.35 C 6.31 g/m*3 4.35 C 4.94167 km/h
2650 03-12-2019 10:00:00 4.61667 C 6.43 g/m*3 3.46 C 5.49167 km/h
Sensor: Nr:Datum:Temp:Abs-Feuchte:Windchill:Wind:
Aussen-T/F 2651 03-12-2019 11:00:00 5.11667 C 6.64 g/m*3 5.12 C 3.2 km/h
2652 03-12-2019 12:00:00 5.6 C 6.86 g/m*3 5.6 C 3.46667 km/h
2653 03-12-2019 13:00:00 6.06667 C 7 g/m*3 6.07 C 4.26667 km/h
2654 03-12-2019 14:00:00 6.51667 C 7.13 g/m*3 6.52 C 1.06667 km/h
2655 03-12-2019 15:00:00 6.675 C 7.13 g/m*3 6.68 C 0 km/h
2656 03-12-2019 16:00:00 6.46667 C 7.07 g/m*3 6.47 C 0 km/h
2657 03-12-2019 17:00:00 5.98333 C 6.89 g/m*3 5.98 C 0 km/h
2658 03-12-2019 18:00:00 5.56667 C 6.71 g/m*3 5.57 C 0 km/h
2659 03-12-2019 19:00:00 5.29167 C 6.62 g/m*3 5.29 C 0.66667 km/h
2660 03-12-2019 20:00:00 4.93333 C 6.48 g/m*3 4.93 C 0 km/h
2661 03-12-2019 21:00:00 4.6 C 6.34 g/m*3 4.6 C 0 km/h
2662 03-12-2019 22:00:00 4.00833 C 6.09 g/m*3 4.01 C 2.4 km/h
2663 03-12-2019 23:00:00 3.46667 C 5.87 g/m*3 3.47 C 2.93333 km/h
2664 04-12-2019 00:00:00 2.41667 C 5.43 g/m*3 2.42 C 0.4 km/h
2665 04-12-2019 01:00:00 1.24167 C 5.04 g/m*3 1.24 C 0 km/h
2666 04-12-2019 02:00:00 0.90833 C 4.95 g/m*3 0.91 C 0 km/h
2667 04-12-2019 03:00:00 1.64167 C 5.26 g/m*3 1.64 C 0 km/h
2668 04-12-2019 04:00:00 1.74167 C 5.3 g/m*3 1.74 C 0 km/h
2669 04-12-2019 05:00:00 1.74167 C 5.3 g/m*3 1.74 C 0 km/h
2670 04-12-2019 06:00:00 1.93333 C 5.37 g/m*3 1.93 C 0.26667 km/h
2671 04-12-2019 07:00:00 1.81667 C 5.32 g/m*3 1.82 C 0.26667 km/h
2672 04-12-2019 08:00:00 1.725 C 5.29 g/m*3 1.73 C 0.13333 km/h
2673 04-12-2019 09:00:00 1.8 C 5.32 g/m*3 1.8 C 1.06667 km/h
2674 04-12-2019 10:00:00 1.83333 C 5.33 g/m*3 1.83 C 1.33333 km/h
2675 04-12-2019 11:00:00 1.83333 C 5.32 g/m*3 1.83 C 0 km/h
Sensor: Nr:Datum:Temp:Abs-Feuchte:Windchill:Wind:
Aussen-T/F 2676 04-12-2019 12:00:00 2.15 C 5.45 g/m*3 2.15 C 0.4 km/h
2677 04-12-2019 13:00:00 2.51667 C 5.58 g/m*3 2.52 C 1.46667 km/h
2678 04-12-2019 14:00:00 2.825 C 5.68 g/m*3 2.83 C 2.26667 km/h
2679 04-12-2019 15:00:00 2.58333 C 5.55 g/m*3 2.58 C 0 km/h
2680 04-12-2019 16:00:00 2.025 C 5.32 g/m*3 2.03 C 1.06667 km/h
2681 04-12-2019 17:00:00 1.43333 C 5.12 g/m*3 1.43 C 0 km/h
2682 04-12-2019 18:00:00 1.10833 C 5.01 g/m*3 1.11 C 0 km/h
2683 04-12-2019 19:00:00 0.41667 C 4.77 g/m*3 0.42 C 0 km/h
2684 04-12-2019 20:00:00 -0.08333 C 4.62 g/m*3 -0.08 C 0.4 km/h
2685 04-12-2019 21:00:00 -0.58333 C 4.47 g/m*3 -0.58 C 0.26667 km/h
2686 04-12-2019 22:00:00 -1.23333 C 4.27 g/m*3 -1.23 C 0 km/h
2687 04-12-2019 23:00:00 -1.54167 C 4.18 g/m*3 -1.54 C 0 km/h
2688 05-12-2019 00:00:00 -1.775 C 4.11 g/m*3 -1.78 C 0.13333 km/h
2689 05-12-2019 01:00:00 -1.78333 C 4.13 g/m*3 -1.78 C 0.13333 km/h
2690 05-12-2019 02:00:00 -1.86667 C 4.12 g/m*3 -1.87 C 0 km/h
2691 05-12-2019 03:00:00 -2.225 C 4 g/m*3 -2.23 C 0.66667 km/h
2692 05-12-2019 04:00:00 -1.84167 C 4.13 g/m*3 -1.84 C 1.06667 km/h
2693 05-12-2019 05:00:00 -1.75833 C 4.16 g/m*3 -1.76 C 0.4 km/h
2694 05-12-2019 06:00:00 -1.83333 C 4.14 g/m*3 -1.83 C 0.13333 km/h
2695 05-12-2019 07:00:00 -2.03333 C 4.08 g/m*3 -2.03 C 0.26667 km/h
2696 05-12-2019 08:00:00 -2.075 C 4.07 g/m*3 -2.08 C 0.13333 km/h
2697 05-12-2019 09:00:00 -1.81667 C 4.14 g/m*3 -1.82 C 1.2 km/h
2698 05-12-2019 10:00:00 -1.575 C 4.21 g/m*3 -1.58 C 1.06667 km/h
2699 05-12-2019 11:00:00 -0.94167 C 4.4 g/m*3 -0.94 C 2.13333 km/h
2700 05-12-2019 12:00:00 -0.44167 C 4.56 g/m*3 -0.44 C 1.46667 km/h
Sensor: Nr:Datum:Temp:Abs-Feuchte:Windchill:Wind:
Aussen-T/F 2701 05-12-2019 13:00:00 0 C 4.7 g/m*3 0 C 3.06667 km/h
2702 05-12-2019 14:00:00 0.6 C 4.9 g/m*3 0.6 C 2.4 km/h
2703 05-12-2019 15:00:00 0.675 C 4.92 g/m*3 0.68 C 1.6 km/h
2704 05-12-2019 16:00:00 0.29167 C 4.8 g/m*3 0.29 C 0 km/h
2705 05-12-2019 17:00:00 -0.225 C 4.63 g/m*3 -0.23 C 0 km/h
2706 05-12-2019 18:00:00 -0.825 C 4.44 g/m*3 -0.83 C 0.26667 km/h
2707 05-12-2019 19:00:00 -1.25833 C 4.31 g/m*3 -1.26 C 1.46667 km/h
2708 05-12-2019 20:00:00 -0.65833 C 4.5 g/m*3 -0.66 C 3.75 km/h
2709 05-12-2019 21:00:00 -1.16667 C 4.33 g/m*3 -1.17 C 1.86667 km/h
2710 05-12-2019 22:00:00 -1.39167 C 4.27 g/m*3 -1.39 C 1.73333 km/h
2711 05-12-2019 23:00:00 -1.825 C 4.14 g/m*3 -1.83 C 0.8 km/h
2712 06-12-2019 00:00:00 -2.28333 C 4.01 g/m*3 -2.28 C 0.8 km/h
2713 06-12-2019 01:00:00 -1.125 C 4.36 g/m*3 -1.13 C 2.66667 km/h
2714 06-12-2019 02:00:00 -0.575 C 4.52 g/m*3 -2.41 C 5.35833 km/h
2715 06-12-2019 03:00:00 -0.225 C 4.6 g/m*3 -1.89 C 5.09167 km/h
2716 06-12-2019 04:00:00 -0.10833 C 4.6 g/m*3 -0.11 C 3.75 km/h
2717 06-12-2019 05:00:00 0.13333 C 4.65 g/m*3 0.13 C 3.475 km/h
2718 06-12-2019 06:00:00 0.36667 C 4.7 g/m*3 0.37 C 3.48333 km/h
2719 06-12-2019 07:00:00 0.725 C 4.79 g/m*3 0.73 C 4.41667 km/h
2720 06-12-2019 08:00:00 1.31667 C 4.89 g/m*3 1.32 C 4.3 km/h
2721 06-12-2019 09:00:00 1.89167 C 5.11 g/m*3 0.3 C 5.625 km/h
2722 06-12-2019 10:00:00 2.65 C 5.43 g/m*3 2.65 C 2 km/h
2723 06-12-2019 11:00:00 3.86667 C 5.92 g/m*3 2.55 C 5.63333 km/h
2724 06-12-2019 12:00:00 4.7 C 6.23 g/m*3 3.32 C 6.16667 km/h
2725 06-12-2019 13:00:00 4.95833 C 6.44 g/m*3 3.49 C 6.56667 km/h
Sensor: Nr:Datum:Temp:Abs-Feuchte:Windchill:Wind:
Aussen-T/F 2726 06-12-2019 14:00:00 5.25833 C 6.57 g/m*3 5.26 C 2.53333 km/h
2727 06-12-2019 15:00:00 5.44167 C 6.65 g/m*3 4.4 C 5.5 km/h
2728 06-12-2019 16:00:00 5.95833 C 6.77 g/m*3 3.76 C 10.20833 km/h
2729 06-12-2019 17:00:00 6.225 C 6.7 g/m*3 4.59 C 7.925 km/h
2730 06-12-2019 18:00:00 6.65 C 6.82 g/m*3 4.51 C 10.61667 km/h
2731 06-12-2019 19:00:00 6.91667 C 6.95 g/m*3 4.01 C 15.7 km/h
2732 06-12-2019 20:00:00 7.28333 C 7.02 g/m*3 3.97 C 19.84167 km/h
2733 06-12-2019 21:00:00 7.19167 C 7.02 g/m*3 3.73 C 20.90833 km/h
2734 06-12-2019 22:00:00 7.25 C 7.03 g/m*3 4.03 C 18.91667 km/h
2735 06-12-2019 23:00:00 7.44167 C 7.12 g/m*3 5.18 C 12.23333 km/h
2736 07-12-2019 00:00:00 7.65 C 7.27 g/m*3 4.92 C 15.70833 km/h
2737 07-12-2019 01:00:00 8.09167 C 7.49 g/m*3 6.03 C 11.83333 km/h
2738 07-12-2019 02:00:00 8.14167 C 7.7 g/m*3 6.81 C 8.05833 km/h
2739 07-12-2019 03:00:00 8.68333 C 7.9 g/m*3 6.68 C 12.225 km/h
2740 07-12-2019 04:00:00 8.85833 C 7.8 g/m*3 7.65 C 8.05833 km/h
2741 07-12-2019 05:00:00 8.40833 C 7.74 g/m*3 7.41 C 6.85833 km/h
2742 07-12-2019 06:00:00 8.46667 C 7.51 g/m*3 6.89 C 9.53333 km/h
2743 07-12-2019 07:00:00 7.675 C 7.26 g/m*3 6.6 C 6.69167 km/h
2744 07-12-2019 08:00:00 8.35 C 7.6 g/m*3 7.15 C 7.65833 km/h
2745 07-12-2019 09:00:00 8.70833 C 7.77 g/m*3 8.71 C 3.75 km/h
2746 07-12-2019 10:00:00 9.19167 C 7.85 g/m*3 7.93 C 8.6 km/h
2747 07-12-2019 11:00:00 9.38333 C 8.12 g/m*3 8.95 C 5.35 km/h
2748 07-12-2019 12:00:00 9.5 C 7.87 g/m*3 8.21 C 9.025 km/h
2749 07-12-2019 13:00:00 10.025 C 7.76 g/m*3 8.65 C 10.08333 km/h
2750 07-12-2019 14:00:00 10.15 C 7.79 g/m*3 9.44 C 6.84167 km/h
Sensor: Nr:Datum:Temp:Abs-Feuchte:Windchill:Wind:
Aussen-T/F 2751 07-12-2019 15:00:00 10.06667 C 7.83 g/m*3 10.07 C 4.00833 km/h
2752 07-12-2019 16:00:00 9.39167 C 7.74 g/m*3 9.39 C 1.33333 km/h
2753 07-12-2019 17:00:00 8.74167 C 7.68 g/m*3 8.74 C 1.2 km/h
2754 07-12-2019 18:00:00 8.40833 C 7.58 g/m*3 8.41 C 1.46667 km/h
2755 07-12-2019 19:00:00 8.25 C 7.65 g/m*3 8.25 C 1.33333 km/h
2756 07-12-2019 20:00:00 8.01667 C 7.53 g/m*3 8.02 C 0.53333 km/h
2757 07-12-2019 21:00:00 8.26667 C 7.6 g/m*3 8.27 C 4.00833 km/h
2758 07-12-2019 22:00:00 8.39167 C 7.63 g/m*3 8.39 C 1.34167 km/h
2759 07-12-2019 23:00:00 8.2 C 7.65 g/m*3 8.2 C 2.54167 km/h
2760 08-12-2019 00:00:00 8.9 C 7.51 g/m*3 7.7 C 8.05 km/h
2761 08-12-2019 01:00:00 9.15833 C 7.55 g/m*3 8.35 C 6.575 km/h
2762 08-12-2019 02:00:00 9.44167 C 7.31 g/m*3 8.12 C 9.13333 km/h
2763 08-12-2019 03:00:00 9.55 C 7.36 g/m*3 7.9 C 11.14167 km/h
2764 08-12-2019 04:00:00 9.91667 C 7.7 g/m*3 7.68 C 16.1 km/h
2765 08-12-2019 05:00:00 9.89167 C 7.88 g/m*3 7.67 C 15.96667 km/h
2766 08-12-2019 06:00:00 10.08333 C 8.01 g/m*3 7.37 C 21.18333 km/h
2767 08-12-2019 07:00:00 10.425 C 8.05 g/m*3 8.22 C 16.9 km/h
2768 08-12-2019 08:00:00 10.56667 C 8.15 g/m*3 8 C 21.05 km/h
2769 08-12-2019 09:00:00 10.65 C 8.27 g/m*3 7.65 C 26.69167 km/h
2770 08-12-2019 10:00:00 10.75833 C 8.45 g/m*3 7.76 C 27.06667 km/h
2771 08-12-2019 11:00:00 11.01667 C 8.55 g/m*3 11.02 C 22.39167 km/h
2772 08-12-2019 12:00:00 11.54167 C 8.79 g/m*3 11.54 C 21.975 km/h
2773 08-12-2019 13:00:00 11.70833 C 9.05 g/m*3 11.71 C 18.375 km/h
2774 08-12-2019 14:00:00 11.9 C 9.21 g/m*3 11.9 C 16.23333 km/h
2775 08-12-2019 15:00:00 12.09167 C 9.32 g/m*3 12.09 C 15.03333 km/h
Sensor: Nr:Datum:Temp:Abs-Feuchte:Windchill:Wind:
Aussen-T/F 2776 08-12-2019 16:00:00 11.79167 C 9.27 g/m*3 11.79 C 15.16667 km/h
2777 08-12-2019 17:00:00 9.35 C 8.27 g/m*3 8.51 C 6.84167 km/h
2778 08-12-2019 18:00:00 8.775 C 8.05 g/m*3 7.78 C 7.09167 km/h
2779 08-12-2019 19:00:00 8.75 C 7.87 g/m*3 7.88 C 6.575 km/h
2780 08-12-2019 20:00:00 8.48333 C 7.78 g/m*3 7.04 C 8.85833 km/h
2781 08-12-2019 21:00:00 8.83333 C 7.59 g/m*3 7.01 C 11.3 km/h
2782 08-12-2019 22:00:00 8.80833 C 7.59 g/m*3 6.49 C 14.625 km/h
2783 08-12-2019 23:00:00 9.025 C 7.48 g/m*3 6.51 C 16.63333 km/h
2784 09-12-2019 00:00:00 8.75833 C 7.16 g/m*3 6.23 C 16.23333 km/h
2785 09-12-2019 01:00:00 8.575 C 6.96 g/m*3 5.58 C 19.96667 km/h
2786 09-12-2019 02:00:00 7.975 C 6.84 g/m*3 5.34 C 15.56667 km/h
2787 09-12-2019 03:00:00 7.95833 C 6.8 g/m*3 5.27 C 15.96667 km/h
2788 09-12-2019 04:00:00 8.15 C 6.91 g/m*3 5.06 C 19.85 km/h
2789 09-12-2019 05:00:00 7.85833 C 6.54 g/m*3 4.92 C 17.83333 km/h
2790 09-12-2019 06:00:00 7.99167 C 6.62 g/m*3 5.07 C 17.96667 km/h
2791 09-12-2019 07:00:00 8.04167 C 6.83 g/m*3 5.31 C 16.49167 km/h
2792 09-12-2019 08:00:00 8.26667 C 6.83 g/m*3 5.41 C 17.96667 km/h
2793 09-12-2019 09:00:00 8.20833 C 7 g/m*3 5.34 C 17.96667 km/h
2794 09-12-2019 10:00:00 8.30833 C 7.11 g/m*3 5.86 C 14.76667 km/h
2795 09-12-2019 11:00:00 8.54167 C 7.08 g/m*3 6.2 C 14.36667 km/h
2796 09-12-2019 12:00:00 8.5 C 7.09 g/m*3 6.53 C 11.825 km/h
2797 09-12-2019 13:00:00 8.63333 C 7.17 g/m*3 6.42 C 13.56667 km/h
2798 09-12-2019 14:00:00 8.85 C 7.11 g/m*3 6.95 C 11.83333 km/h
2799 09-12-2019 15:00:00 8.15 C 7.08 g/m*3 6.94 C 7.525 km/h
2800 09-12-2019 16:00:00 7.75833 C 6.76 g/m*3 6.24 C 8.60833 km/h
Sensor: Nr:Datum:Temp:Abs-Feuchte:Windchill:Wind:
Aussen-T/F 2801 09-12-2019 17:00:00 7.425 C 6.89 g/m*3 7.43 C 4.80833 km/h
2802 09-12-2019 18:00:00 6.84167 C 6.97 g/m*3 5.91 C 5.76667 km/h
2803 09-12-2019 19:00:00 6.58333 C 6.98 g/m*3 4.76 C 8.99167 km/h
2804 09-12-2019 20:00:00 6.575 C 6.88 g/m*3 3.76 C 14.5 km/h
2805 09-12-2019 21:00:00 6.24167 C 6.67 g/m*3 4.07 C 10.35 km/h
2806 09-12-2019 22:00:00 5.75 C 6.35 g/m*3 3.43 C 10.61667 km/h
2807 09-12-2019 23:00:00 5.39167 C 6.13 g/m*3 3.26 C 9.40833 km/h
2808 10-12-2019 00:00:00 4.79167 C 5.85 g/m*3 3.43 C 6.16667 km/h
2809 10-12-2019 01:00:00 3.8 C 5.61 g/m*3 3.8 C 3.33333 km/h
2810 10-12-2019 02:00:00 3.38333 C 5.49 g/m*3 3.38 C 3.60833 km/h
2811 10-12-2019 03:00:00 2.64167 C 5.37 g/m*3 2.64 C 2 km/h
2812 10-12-2019 04:00:00 2.025 C 5.21 g/m*3 2.03 C 1.33333 km/h
2813 10-12-2019 05:00:00 2.275 C 5.35 g/m*3 2.28 C 2.8 km/h
2814 10-12-2019 06:00:00 2.05833 C 5.24 g/m*3 2.06 C 2.93333 km/h
2815 10-12-2019 07:00:00 2.075 C 5.28 g/m*3 2.08 C 2.66667 km/h
2816 10-12-2019 08:00:00 1.56667 C 5.1 g/m*3 1.57 C 2.4 km/h
2817 10-12-2019 09:00:00 1.95833 C 5.26 g/m*3 1.96 C 2.66667 km/h
2818 10-12-2019 10:00:00 3.13333 C 5.62 g/m*3 3.13 C 2.40833 km/h
2819 10-12-2019 11:00:00 3.35833 C 5.66 g/m*3 2.02 C 5.49167 km/h
2820 10-12-2019 12:00:00 4.475 C 5.89 g/m*3 1.84 C 10.88333 km/h
2821 10-12-2019 13:00:00 5.21667 C 6.04 g/m*3 3.7 C 6.85833 km/h
2822 10-12-2019 14:00:00 5.00833 C 5.93 g/m*3 5.01 C 3.60833 km/h
2823 10-12-2019 15:00:00 4.13333 C 5.71 g/m*3 4.13 C 3.2 km/h
2824 10-12-2019 16:00:00 3.84167 C 5.58 g/m*3 3.84 C 3.88333 km/h
2825 10-12-2019 17:00:00 3.675 C 5.35 g/m*3 3.68 C 4.95 km/h
Sensor: Nr:Datum:Temp:Abs-Feuchte:Windchill:Wind:
Aussen-T/F 2826 10-12-2019 18:00:00 2.98333 C 5.26 g/m*3 2.98 C 0.4 km/h
2827 10-12-2019 19:00:00 2.44167 C 5.23 g/m*3 2.44 C 0.26667 km/h
2828 10-12-2019 20:00:00 3.10833 C 5.41 g/m*3 3.11 C 2.94167 km/h
2829 10-12-2019 21:00:00 3.18333 C 5.42 g/m*3 3.18 C 0.66667 km/h
2830 10-12-2019 22:00:00 3.08333 C 5.46 g/m*3 3.08 C 1.73333 km/h
2831 10-12-2019 23:00:00 3.725 C 5.63 g/m*3 3.73 C 1.06667 km/h
2832 11-12-2019 00:00:00 4.05833 C 5.66 g/m*3 4.06 C 1.2 km/h
2833 11-12-2019 01:00:00 4.275 C 5.66 g/m*3 4.28 C 0.93333 km/h
2834 11-12-2019 02:00:00 4.08333 C 5.73 g/m*3 4.08 C 1.33333 km/h
2835 11-12-2019 03:00:00 4.08333 C 5.77 g/m*3 4.08 C 1.33333 km/h
2836 11-12-2019 04:00:00 3.81667 C 5.78 g/m*3 3.82 C 0.93333 km/h
2837 11-12-2019 05:00:00 3.69167 C 5.83 g/m*3 3.69 C 0 km/h
2838 11-12-2019 06:00:00 3.425 C 5.81 g/m*3 3.43 C 0 km/h
2839 11-12-2019 07:00:00 3.33333 C 5.78 g/m*3 3.33 C 0 km/h
2840 11-12-2019 08:00:00 3.25833 C 5.79 g/m*3 3.26 C 0 km/h
2841 11-12-2019 09:00:00 3.26667 C 5.81 g/m*3 3.27 C 0 km/h
2842 11-12-2019 10:00:00 3.54167 C 5.92 g/m*3 3.54 C 0 km/h
2843 11-12-2019 11:00:00 3.75833 C 6.01 g/m*3 3.76 C 0 km/h
2844 11-12-2019 12:00:00 3.9 C 6.06 g/m*3 3.9 C 0 km/h
2845 11-12-2019 13:00:00 3.93333 C 6.08 g/m*3 3.93 C 0 km/h
2846 11-12-2019 14:00:00 4.09167 C 6.14 g/m*3 4.09 C 0 km/h
2847 11-12-2019 15:00:00 4.2 C 6.19 g/m*3 4.2 C 0 km/h
2848 11-12-2019 16:00:00 4.11667 C 6.16 g/m*3 4.12 C 0 km/h
2849 11-12-2019 17:00:00 3.91667 C 6.07 g/m*3 3.92 C 0.26667 km/h
2850 11-12-2019 18:00:00 4.13333 C 6.22 g/m*3 4.13 C 0 km/h
Sensor: Nr:Datum:Temp:Abs-Feuchte:Windchill:Wind:
Aussen-T/F 2851 11-12-2019 19:00:00 4.35 C 6.31 g/m*3 4.35 C 0 km/h
2852 11-12-2019 20:00:00 4.60833 C 6.42 g/m*3 4.61 C 2.15 km/h
2853 11-12-2019 21:00:00 4.75833 C 6.49 g/m*3 2.41 C 9.81667 km/h
2854 11-12-2019 22:00:00 4.525 C 6.35 g/m*3 2.67 C 7.65 km/h
2855 11-12-2019 23:00:00 4.225 C 6.21 g/m*3 4.22 C 2.93333 km/h
2856 12-12-2019 00:00:00 3.69167 C 6.01 g/m*3 3.69 C 0.8 km/h
2857 12-12-2019 01:00:00 3.36667 C 5.9 g/m*3 3.37 C 1.73333 km/h
2858 12-12-2019 02:00:00 2.83333 C 5.7 g/m*3 2.83 C 0 km/h
2859 12-12-2019 03:00:00 3.29167 C 5.88 g/m*3 3.29 C 0.8 km/h
2860 12-12-2019 04:00:00 3.69167 C 6.04 g/m*3 3.69 C 0 km/h
2861 12-12-2019 05:00:00 3.175 C 5.84 g/m*3 3.18 C 0 km/h
2862 12-12-2019 06:00:00 2.95 C 5.75 g/m*3 2.95 C 0.53333 km/h
2863 12-12-2019 07:00:00 3.75 C 6.1 g/m*3 3.75 C 0 km/h
2864 12-12-2019 08:00:00 4.025 C 6.21 g/m*3 4.03 C 0 km/h
2865 12-12-2019 09:00:00 4.525 C 6.45 g/m*3 4.53 C 0.8 km/h
2866 12-12-2019 10:00:00 4.80833 C 6.56 g/m*3 3.63 C 5.625 km/h
2867 12-12-2019 11:00:00 4.9 C 6.51 g/m*3 3.47 C 6.43333 km/h
2868 12-12-2019 12:00:00 5.2 C 6.35 g/m*3 3.36 C 8.05 km/h
2869 12-12-2019 13:00:00 5.14167 C 6.05 g/m*3 3.22 C 8.33333 km/h
2870 12-12-2019 14:00:00 5.14167 C 5.87 g/m*3 3.96 C 5.775 km/h
2871 12-12-2019 15:00:00 4.875 C 5.86 g/m*3 3.08 C 7.64167 km/h
2872 12-12-2019 16:00:00 4.38333 C 5.66 g/m*3 4.38 C 1.86667 km/h
2873 12-12-2019 17:00:00 2.875 C 5.28 g/m*3 2.88 C 1.06667 km/h
2874 12-12-2019 18:00:00 2.00833 C 5.2 g/m*3 2.01 C 1.46667 km/h
2875 12-12-2019 19:00:00 1.68333 C 5.13 g/m*3 1.68 C 1.06667 km/h
Sensor: Nr:Datum:Temp:Abs-Feuchte:Windchill:Wind:
Aussen-T/F 2876 12-12-2019 20:00:00 1.675 C 5.16 g/m*3 1.68 C 1.6 km/h
2877 12-12-2019 21:00:00 2.31667 C 5.31 g/m*3 2.32 C 3.06667 km/h
2878 12-12-2019 22:00:00 1.85833 C 5.1 g/m*3 1.86 C 1.73333 km/h
2879 12-12-2019 23:00:00 2.4 C 5.21 g/m*3 0.99 C 5.35 km/h
2880 13-12-2019 00:00:00 2.38333 C 5.1 g/m*3 0.96 C 5.35833 km/h
2881 13-12-2019 01:00:00 2.78333 C 5.13 g/m*3 0.12 C 9.53333 km/h
2882 13-12-2019 02:00:00 2.9 C 5.13 g/m*3 0.47 C 8.725 km/h
2883 13-12-2019 03:00:00 2.725 C 5.13 g/m*3 -0.01 C 9.80833 km/h
2884 13-12-2019 04:00:00 2.525 C 5.19 g/m*3 -0.19 C 9.55 km/h
2885 13-12-2019 05:00:00 2.63333 C 5.28 g/m*3 0.85 C 6.43333 km/h
2886 13-12-2019 06:00:00 2.86667 C 5.38 g/m*3 1.52 C 5.35 km/h
2887 13-12-2019 07:00:00 2.85833 C 5.47 g/m*3 1.06 C 6.56667 km/h
2888 13-12-2019 08:00:00 2.83333 C 5.51 g/m*3 1.08 C 6.44167 km/h
2889 13-12-2019 09:00:00 2.8 C 5.53 g/m*3 2.8 C 4.83333 km/h
2890 13-12-2019 10:00:00 3 C 5.65 g/m*3 3 C 0.53333 km/h
2891 13-12-2019 11:00:00 3.35833 C 5.82 g/m*3 3.36 C 0.53333 km/h
2892 13-12-2019 12:00:00 4.09167 C 6.14 g/m*3 4.09 C 0.53333 km/h
2893 13-12-2019 13:00:00 5.2 C 6.66 g/m*3 5.2 C 2.675 km/h
2894 13-12-2019 14:00:00 6.93333 C 7.16 g/m*3 4.13 C 15.03333 km/h
2895 13-12-2019 15:00:00 6.675 C 6.87 g/m*3 3.97 C 13.96667 km/h
2896 13-12-2019 16:00:00 5.96667 C 6.52 g/m*3 3.41 C 12.1 km/h
2897 13-12-2019 17:00:00 5.23333 C 6.33 g/m*3 2.55 C 11.96667 km/h
2898 13-12-2019 18:00:00 4.73333 C 6.25 g/m*3 2.95 C 7.525 km/h
2899 13-12-2019 19:00:00 4.76667 C 6.29 g/m*3 2.19 C 10.88333 km/h
2900 13-12-2019 20:00:00 5.26667 C 6.44 g/m*3 2.49 C 12.49167 km/h
Sensor: Nr:Datum:Temp:Abs-Feuchte:Windchill:Wind:
Aussen-T/F 2901 13-12-2019 21:00:00 5.13333 C 6.39 g/m*3 2.95 C 9.40833 km/h
2902 13-12-2019 22:00:00 5.05833 C 6.29 g/m*3 3.26 C 7.79167 km/h
2903 13-12-2019 23:00:00 5.60833 C 6.44 g/m*3 3.1 C 11.43333 km/h
2904 14-12-2019 00:00:00 5.46667 C 6.37 g/m*3 5.47 C 4.28333 km/h
2905 14-12-2019 01:00:00 5.89167 C 6.33 g/m*3 3.47 C 11.28333 km/h
2906 14-12-2019 02:00:00 5.71667 C 6.3 g/m*3 5.72 C 2.53333 km/h
2907 14-12-2019 03:00:00 5.33333 C 6.37 g/m*3 5.33 C 2.93333 km/h
2908 14-12-2019 04:00:00 4.89167 C 6.31 g/m*3 4.89 C 1.2 km/h
2909 14-12-2019 05:00:00 4.5 C 6.22 g/m*3 4.5 C 1.2 km/h
2910 14-12-2019 06:00:00 5.18333 C 6.6 g/m*3 3.17 C 8.725 km/h
2911 14-12-2019 07:00:00 6.75 C 7.25 g/m*3 4.43 C 11.69167 km/h
2912 14-12-2019 08:00:00 7.4 C 6.97 g/m*3 3.96 C 21.30833 km/h
2913 14-12-2019 09:00:00 7.2 C 6.4 g/m*3 4 C 18.64167 km/h
2914 14-12-2019 10:00:00 7.09167 C 6.52 g/m*3 4.89 C 11.425 km/h
2915 14-12-2019 11:00:00 7.03333 C 6.55 g/m*3 4.05 C 16.5 km/h
2916 14-12-2019 12:00:00 7.58333 C 6 g/m*3 4.16 C 21.58333 km/h
2917 14-12-2019 13:00:00 8.45 C 6.16 g/m*3 5.42 C 19.96667 km/h
2918 14-12-2019 14:00:00 8.76667 C 6.51 g/m*3 5.96 C 18.63333 km/h
2919 14-12-2019 15:00:00 7.825 C 6.95 g/m*3 5.12 C 15.825 km/h
2920 14-12-2019 16:00:00 7.875 C 6.82 g/m*3 4.97 C 17.56667 km/h
2921 14-12-2019 17:00:00 8.03333 C 6.94 g/m*3 5.35 C 16.1 km/h
2922 14-12-2019 18:00:00 7.95833 C 6.92 g/m*3 5.09 C 17.43333 km/h
2923 14-12-2019 19:00:00 7.04167 C 6.53 g/m*3 5.61 C 7.66667 km/h
2924 14-12-2019 20:00:00 6.88333 C 6.45 g/m*3 5.54 C 7.23333 km/h
2925 14-12-2019 21:00:00 7.375 C 6.7 g/m*3 5.1 C 12.23333 km/h
Sensor: Nr:Datum:Temp:Abs-Feuchte:Windchill:Wind:
Aussen-T/F 2926 14-12-2019 22:00:00 7.45833 C 6.77 g/m*3 5.26 C 11.825 km/h
2927 14-12-2019 23:00:00 7.73333 C 6.83 g/m*3 5.88 C 10.21667 km/h
2928 15-12-2019 00:00:00 6.84167 C 6.64 g/m*3 6.84 C 2.40833 km/h
2929 15-12-2019 01:00:00 6.325 C 6.64 g/m*3 6.33 C 2.675 km/h
2930 15-12-2019 02:00:00 6.76667 C 6.97 g/m*3 6.77 C 2.14167 km/h
2931 15-12-2019 03:00:00 6.99167 C 7.3 g/m*3 6.99 C 0.66667 km/h
2932 15-12-2019 04:00:00 8.23333 C 8.05 g/m*3 7.51 C 5.75833 km/h
2933 15-12-2019 05:00:00 9.40833 C 8.53 g/m*3 7.57 C 12.19167 km/h
2934 15-12-2019 06:00:00 10.84167 C 8.67 g/m*3 8.16 C 23.19167 km/h
2935 15-12-2019 07:00:00 11 C 8.51 g/m*3 8.3 C 24 km/h
2936 15-12-2019 08:00:00 11.075 C 8.66 g/m*3 11.08 C 19.71667 km/h
2937 15-12-2019 09:00:00 9.46667 C 8.37 g/m*3 8.18 C 8.99167 km/h
2938 15-12-2019 10:00:00 8.7 C 8.08 g/m*3 8.7 C 4.81667 km/h
2939 15-12-2019 11:00:00 8.75833 C 7.8 g/m*3 7.21 C 9.68333 km/h
2940 15-12-2019 12:00:00 8.625 C 7.56 g/m*3 7.1 C 9.41667 km/h
2941 15-12-2019 13:00:00 9.15 C 7.41 g/m*3 7.31 C 11.83333 km/h
2942 15-12-2019 14:00:00 9.30833 C 7.19 g/m*3 7.42 C 12.35833 km/h
2943 15-12-2019 15:00:00 9.10833 C 6.98 g/m*3 6.91 C 14.23333 km/h
2944 15-12-2019 16:00:00 8.48333 C 6.65 g/m*3 6.42 C 12.35833 km/h
2945 15-12-2019 17:00:00 7.85833 C 6.6 g/m*3 5.96 C 10.625 km/h
2946 15-12-2019 18:00:00 7.65833 C 6.66 g/m*3 6.44 C 7.25833 km/h
2947 15-12-2019 19:00:00 6.325 C 6.55 g/m*3 6.33 C 1.46667 km/h
2948 15-12-2019 20:00:00 5.675 C 6.47 g/m*3 5.68 C 0 km/h
2949 15-12-2019 21:00:00 4.39167 C 6.05 g/m*3 4.39 C 0 km/h
2950 15-12-2019 22:00:00 4.25833 C 6.14 g/m*3 4.26 C 0 km/h
Sensor: Nr:Datum:Temp:Abs-Feuchte:Windchill:Wind:
Aussen-T/F 2951 15-12-2019 23:00:00 4.36667 C 6.21 g/m*3 4.37 C 0 km/h
2952 16-12-2019 00:00:00 5 C 6.52 g/m*3 5 C 0.4 km/h
2953 16-12-2019 01:00:00 5.85 C 6.94 g/m*3 5.85 C 2 km/h
2954 16-12-2019 02:00:00 6.44167 C 7.24 g/m*3 6.44 C 0 km/h
2955 16-12-2019 03:00:00 6.65833 C 7.35 g/m*3 6.66 C 0.13333 km/h
2956 16-12-2019 04:00:00 6.875 C 7.46 g/m*3 6.88 C 0.4 km/h
2957 16-12-2019 05:00:00 7.325 C 7.68 g/m*3 7.33 C 1.6 km/h
2958 16-12-2019 06:00:00 7.64167 C 7.84 g/m*3 7.64 C 1.06667 km/h
2959 16-12-2019 07:00:00 7.575 C 7.8 g/m*3 7.58 C 0.66667 km/h
2960 16-12-2019 08:00:00 7.8 C 7.92 g/m*3 7.8 C 1.06667 km/h
2961 16-12-2019 09:00:00 8.15833 C 8.12 g/m*3 8.16 C 0 km/h
2962 16-12-2019 10:00:00 8.49167 C 8.31 g/m*3 8.49 C 0 km/h
2963 16-12-2019 11:00:00 9.225 C 8.77 g/m*3 9.23 C 0 km/h
2964 16-12-2019 12:00:00 9.8 C 9.09 g/m*3 9.8 C 0 km/h
2965 16-12-2019 13:00:00 10.26667 C 9.37 g/m*3 10.27 C 0 km/h
2966 16-12-2019 14:00:00 10.41667 C 9.37 g/m*3 10.42 C 0.26667 km/h
2967 16-12-2019 15:00:00 10.09167 C 9.17 g/m*3 10.09 C 0.4 km/h
2968 16-12-2019 16:00:00 9.1 C 8.56 g/m*3 9.1 C 2 km/h
2969 16-12-2019 17:00:00 8.15833 C 8.06 g/m*3 8.16 C 1.73333 km/h
2970 16-12-2019 18:00:00 8.35833 C 8.21 g/m*3 8.36 C 4.01667 km/h
2971 16-12-2019 19:00:00 8.7 C 8.33 g/m*3 8.7 C 4.55833 km/h
2972 16-12-2019 20:00:00 8.66667 C 8.27 g/m*3 8.67 C 3.2 km/h
2973 16-12-2019 21:00:00 8.15833 C 7.96 g/m*3 8.16 C 3.20833 km/h
2974 16-12-2019 22:00:00 8.10833 C 7.97 g/m*3 8.11 C 2.93333 km/h
2975 16-12-2019 23:00:00 8.24167 C 8.04 g/m*3 8.24 C 1.73333 km/h
Sensor: Nr:Datum:Temp:Abs-Feuchte:Windchill:Wind:
Aussen-T/F 2976 17-12-2019 00:00:00 8.2 C 8 g/m*3 8.2 C 0.8 km/h
2977 17-12-2019 01:00:00 8.09167 C 7.97 g/m*3 8.09 C 1.33333 km/h
2978 17-12-2019 02:00:00 8.11667 C 7.91 g/m*3 8.12 C 2.53333 km/h
2979 17-12-2019 03:00:00 9.125 C 8.28 g/m*3 9.13 C 3.33333 km/h
2980 17-12-2019 04:00:00 9.44167 C 8.25 g/m*3 9.44 C 0.4 km/h
2981 17-12-2019 05:00:00 9.15 C 8.2 g/m*3 9.15 C 0 km/h
2982 17-12-2019 06:00:00 8.53333 C 7.98 g/m*3 8.53 C 0 km/h
2983 17-12-2019 07:00:00 8.33333 C 7.94 g/m*3 8.33 C 0 km/h
2984 17-12-2019 08:00:00 7.93333 C 7.72 g/m*3 7.93 C 0 km/h
2985 17-12-2019 09:00:00 7.525 C 7.58 g/m*3 7.53 C 0 km/h
2986 17-12-2019 10:00:00 7.51667 C 7.64 g/m*3 7.52 C 0 km/h
2987 17-12-2019 11:00:00 8.95833 C 8.4 g/m*3 8.96 C 0 km/h
2988 17-12-2019 12:00:00 9.98333 C 8.84 g/m*3 9.98 C 0 km/h
2989 17-12-2019 13:00:00 11.10833 C 9.29 g/m*3 11.11 C 0 km/h
2990 17-12-2019 14:00:00 12.41667 C 9.5 g/m*3 12.42 C 1.33333 km/h
2991 17-12-2019 15:00:00 12.54167 C 9.29 g/m*3 12.54 C 2.675 km/h
2992 17-12-2019 16:00:00 12.93333 C 9.18 g/m*3 12.93 C 2.275 km/h
2993 17-12-2019 17:00:00 13 C 8.88 g/m*3 13 C 6.55833 km/h
2994 17-12-2019 18:00:00 14.08333 C 9.39 g/m*3 14.08 C 7.93333 km/h
2995 17-12-2019 19:00:00 13.34167 C 9.63 g/m*3 13.34 C 7.39167 km/h
2996 17-12-2019 20:00:00 12.59167 C 9.83 g/m*3 12.59 C 3.34167 km/h
2997 17-12-2019 21:00:00 11.76667 C 9.58 g/m*3 11.77 C 5.09167 km/h
2998 17-12-2019 22:00:00 13.26667 C 9.58 g/m*3 13.27 C 15.16667 km/h
2999 17-12-2019 23:00:00 12.375 C 9.55 g/m*3 12.38 C 13.425 km/h
3000 18-12-2019 00:00:00 11.4 C 9.26 g/m*3 11.4 C 11.40833 km/h
Sensor: Nr:Datum:Temp:Abs-Feuchte:Windchill:Wind:
Aussen-T/F 3001 18-12-2019 01:00:00 11.31667 C 9.1 g/m*3 11.32 C 10.75 km/h
3002 18-12-2019 02:00:00 11.45833 C 9.26 g/m*3 11.46 C 8.85 km/h
3003 18-12-2019 03:00:00 11.19167 C 9.32 g/m*3 11.19 C 2.13333 km/h
3004 18-12-2019 04:00:00 10.53333 C 8.95 g/m*3 10.53 C 4.95833 km/h
3005 18-12-2019 05:00:00 9.69167 C 8.42 g/m*3 9.69 C 0.4 km/h
3006 18-12-2019 06:00:00 8.7 C 8.03 g/m*3 8.7 C 0.4 km/h
3007 18-12-2019 07:00:00 7.99167 C 7.76 g/m*3 7.99 C 0.13333 km/h
3008 18-12-2019 08:00:00 7.475 C 7.58 g/m*3 7.48 C 0 km/h
3009 18-12-2019 09:00:00 7.29167 C 7.54 g/m*3 7.29 C 0 km/h
3010 18-12-2019 10:00:00 7.79167 C 7.83 g/m*3 7.79 C 0.13333 km/h
3011 18-12-2019 11:00:00 7.60833 C 7.66 g/m*3 7.61 C 1.06667 km/h
3012 18-12-2019 12:00:00 8.43333 C 7.9 g/m*3 7.82 C 5.5 km/h
3013 18-12-2019 13:00:00 8.66667 C 7.8 g/m*3 8.67 C 2 km/h
3014 18-12-2019 14:00:00 8.175 C 7.7 g/m*3 8.18 C 1.2 km/h
3015 18-12-2019 15:00:00 7.55 C 7.48 g/m*3 7.55 C 2.26667 km/h
3016 18-12-2019 16:00:00 6.88333 C 7.22 g/m*3 6.88 C 3.86667 km/h
3017 18-12-2019 17:00:00 5.93333 C 6.79 g/m*3 5.93 C 1.46667 km/h
3018 18-12-2019 18:00:00 5.4 C 6.66 g/m*3 5.4 C 1.06667 km/h
3019 18-12-2019 19:00:00 5.58333 C 6.78 g/m*3 5.58 C 1.33333 km/h
3020 18-12-2019 20:00:00 5.39167 C 6.69 g/m*3 5.39 C 1.46667 km/h
3021 18-12-2019 21:00:00 4.74167 C 6.41 g/m*3 4.74 C 0 km/h
3022 18-12-2019 22:00:00 3.95833 C 6.09 g/m*3 3.96 C 0.13333 km/h
3023 18-12-2019 23:00:00 3.31667 C 5.84 g/m*3 3.32 C 0 km/h
3024 19-12-2019 00:00:00 3.05833 C 5.77 g/m*3 3.06 C 0.13333 km/h
3025 19-12-2019 01:00:00 2.91667 C 5.73 g/m*3 2.92 C 0.4 km/h
Sensor: Nr:Datum:Temp:Abs-Feuchte:Windchill:Wind:
Aussen-T/F 3026 19-12-2019 02:00:00 2.875 C 5.72 g/m*3 2.88 C 0 km/h
3027 19-12-2019 03:00:00 2.675 C 5.64 g/m*3 2.68 C 0.26667 km/h
3028 19-12-2019 04:00:00 2.39167 C 5.54 g/m*3 2.39 C 0 km/h
3029 19-12-2019 05:00:00 2.18333 C 5.46 g/m*3 2.18 C 0 km/h
3030 19-12-2019 06:00:00 1.875 C 5.34 g/m*3 1.88 C 0.4 km/h
3031 19-12-2019 07:00:00 3.075 C 5.83 g/m*3 3.08 C 2.26667 km/h
3032 19-12-2019 08:00:00 5.05833 C 6.68 g/m*3 5.06 C 1.46667 km/h
3033 19-12-2019 09:00:00 5.24167 C 6.77 g/m*3 5.24 C 1.33333 km/h
3034 19-12-2019 10:00:00 6.75833 C 7.47 g/m*3 6.76 C 4.15 km/h
3035 19-12-2019 11:00:00 7.35 C 7.77 g/m*3 7.35 C 2.13333 km/h
3036 19-12-2019 12:00:00 7.59167 C 7.89 g/m*3 7.59 C 1.875 km/h
3037 19-12-2019 13:00:00 7.88333 C 8.04 g/m*3 7.88 C 2.8 km/h
3038 19-12-2019 14:00:00 7.96667 C 8.03 g/m*3 7.97 C 2.8 km/h
3039 19-12-2019 15:00:00 9.23333 C 8.3 g/m*3 7.98 C 8.59167 km/h
3040 19-12-2019 16:00:00 9.61667 C 7.98 g/m*3 8.51 C 8.20833 km/h
3041 19-12-2019 17:00:00 7.6 C 7.17 g/m*3 7.6 C 0.8 km/h
3042 19-12-2019 18:00:00 6.30833 C 6.98 g/m*3 6.31 C 1.86667 km/h
3043 19-12-2019 19:00:00 6.29167 C 7.01 g/m*3 6.29 C 0.53333 km/h
3044 19-12-2019 20:00:00 6.23333 C 7.03 g/m*3 6.23 C 3.74167 km/h
3045 19-12-2019 21:00:00 6.65833 C 7.21 g/m*3 6.66 C 1.86667 km/h
3046 19-12-2019 22:00:00 6.75833 C 7.27 g/m*3 6.76 C 0.53333 km/h
3047 19-12-2019 23:00:00 6.31667 C 7.08 g/m*3 6.32 C 0.26667 km/h
3048 20-12-2019 00:00:00 5.44167 C 6.65 g/m*3 5.44 C 1.46667 km/h
3049 20-12-2019 01:00:00 4.30833 C 6.21 g/m*3 4.31 C 0.93333 km/h
3050 20-12-2019 02:00:00 4 C 6.12 g/m*3 4 C 2.275 km/h
Sensor: Nr:Datum:Temp:Abs-Feuchte:Windchill:Wind:
Aussen-T/F 3051 20-12-2019 03:00:00 5.275 C 6.71 g/m*3 4.12 C 5.75833 km/h
3052 20-12-2019 04:00:00 5.36667 C 6.7 g/m*3 5.37 C 2.4 km/h
3053 20-12-2019 05:00:00 6 C 6.94 g/m*3 5.14 C 5.21667 km/h
3054 20-12-2019 06:00:00 6.7 C 6.94 g/m*3 5.15 C 7.925 km/h
3055 20-12-2019 07:00:00 7.35 C 6.91 g/m*3 6.58 C 5.5 km/h
3056 20-12-2019 08:00:00 7.525 C 7.02 g/m*3 7.53 C 1.06667 km/h
3057 20-12-2019 09:00:00 7.375 C 7.13 g/m*3 7.38 C 1.46667 km/h
3058 20-12-2019 10:00:00 7.06667 C 7.09 g/m*3 7.07 C 1.2 km/h
3059 20-12-2019 11:00:00 7.275 C 7.46 g/m*3 7.28 C 2.55 km/h
3060 20-12-2019 12:00:00 8.375 C 8.05 g/m*3 7.17 C 7.66667 km/h
3061 20-12-2019 13:00:00 9.20833 C 8.44 g/m*3 7.58 C 10.60833 km/h
3062 20-12-2019 14:00:00 9.38333 C 8.46 g/m*3 8.02 C 9.29167 km/h
3063 20-12-2019 15:00:00 9.2 C 8.41 g/m*3 9.2 C 4.94167 km/h
3064 20-12-2019 16:00:00 9.325 C 8.6 g/m*3 9.32 C 4.66667 km/h
3065 20-12-2019 17:00:00 9.79167 C 8.83 g/m*3 9.79 C 4.55833 km/h
3066 20-12-2019 18:00:00 9.66667 C 8.72 g/m*3 8.78 C 7.24167 km/h
3067 20-12-2019 19:00:00 10.18333 C 8.56 g/m*3 8.58 C 11.7 km/h
3068 20-12-2019 20:00:00 9.76667 C 8.1 g/m*3 8.29 C 10.34167 km/h
3069 20-12-2019 21:00:00 9.10833 C 7.7 g/m*3 7.89 C 8.325 km/h
3070 20-12-2019 22:00:00 9.05 C 7.57 g/m*3 7.51 C 9.91667 km/h
3071 20-12-2019 23:00:00 8.84167 C 7.54 g/m*3 8.33 C 5.35 km/h
3072 21-12-2019 00:00:00 8.34167 C 7.42 g/m*3 8.34 C 2.94167 km/h
3073 21-12-2019 01:00:00 8.075 C 7.5 g/m*3 8.07 C 0.4 km/h
3074 21-12-2019 02:00:00 8.34167 C 7.62 g/m*3 8.34 C 3.35 km/h
3075 21-12-2019 03:00:00 8.225 C 7.55 g/m*3 8.23 C 0.66667 km/h
Sensor: Nr:Datum:Temp:Abs-Feuchte:Windchill:Wind:
Aussen-T/F 3076 21-12-2019 04:00:00 7.60833 C 7.36 g/m*3 7.61 C 0.8 km/h
3077 21-12-2019 05:00:00 6.69167 C 7.06 g/m*3 6.69 C 2.13333 km/h
3078 21-12-2019 06:00:00 5.60833 C 6.63 g/m*3 5.61 C 1.6 km/h
3079 21-12-2019 07:00:00 4.74167 C 6.32 g/m*3 4.74 C 0 km/h
3080 21-12-2019 08:00:00 4.725 C 6.39 g/m*3 4.72 C 2.00833 km/h
3081 21-12-2019 09:00:00 5.5 C 6.74 g/m*3 5.5 C 1.33333 km/h
3082 21-12-2019 10:00:00 5.85833 C 6.83 g/m*3 5.86 C 0.93333 km/h
3083 21-12-2019 11:00:00 6.30833 C 7.04 g/m*3 6.31 C 0.26667 km/h
3084 21-12-2019 12:00:00 6.88333 C 7.27 g/m*3 6.88 C 4.55833 km/h
3085 21-12-2019 13:00:00 8.01667 C 7.43 g/m*3 8.02 C 4.56667 km/h
3086 21-12-2019 14:00:00 9.05833 C 7.54 g/m*3 9.06 C 3.74167 km/h
3087 21-12-2019 15:00:00 9.10833 C 7.45 g/m*3 9.11 C 4.425 km/h
3088 21-12-2019 16:00:00 8.325 C 7.39 g/m*3 8.32 C 1.2 km/h
3089 21-12-2019 17:00:00 8.04167 C 7.38 g/m*3 8.04 C 0.53333 km/h
3090 21-12-2019 18:00:00 8.125 C 7.2 g/m*3 8.13 C 4.29167 km/h
3091 21-12-2019 19:00:00 7.875 C 7.12 g/m*3 7.88 C 1.2 km/h
3092 21-12-2019 20:00:00 7.76667 C 7.04 g/m*3 7.77 C 1.2 km/h
3093 21-12-2019 21:00:00 7.13333 C 6.9 g/m*3 7.13 C 1.46667 km/h
3094 21-12-2019 22:00:00 6.56667 C 6.62 g/m*3 5.78 C 5.21667 km/h
3095 21-12-2019 23:00:00 7.03333 C 6.56 g/m*3 5.78 C 6.99167 km/h
3096 22-12-2019 00:00:00 7.48333 C 6.8 g/m*3 5.67 C 9.79167 km/h
3097 22-12-2019 01:00:00 6.98333 C 7.04 g/m*3 6.98 C 4.275 km/h
3098 22-12-2019 02:00:00 6.75 C 7.09 g/m*3 5.85 C 5.63333 km/h
3099 22-12-2019 03:00:00 6.95 C 7.14 g/m*3 6.95 C 4.68333 km/h
3100 22-12-2019 04:00:00 7.06667 C 7.16 g/m*3 7.07 C 3.475 km/h
Sensor: Nr:Datum:Temp:Abs-Feuchte:Windchill:Wind:
Aussen-T/F 3101 22-12-2019 05:00:00 6.89167 C 7.08 g/m*3 6.89 C 3.075 km/h
3102 22-12-2019 06:00:00 6.48333 C 7 g/m*3 6.48 C 3.34167 km/h
3103 22-12-2019 07:00:00 6.83333 C 7.22 g/m*3 6.83 C 1.875 km/h
3104 22-12-2019 08:00:00 6.975 C 7.34 g/m*3 6.98 C 1.06667 km/h
3105 22-12-2019 09:00:00 7.29167 C 7.5 g/m*3 7.29 C 2.275 km/h
3106 22-12-2019 10:00:00 8.56667 C 7.98 g/m*3 8.57 C 4.14167 km/h
3107 22-12-2019 11:00:00 10.06667 C 8.22 g/m*3 9.31 C 6.98333 km/h
3108 22-12-2019 12:00:00 10.70833 C 8.42 g/m*3 9.88 C 7.80833 km/h
3109 22-12-2019 13:00:00 10.95 C 8.36 g/m*3 9.26 C 13.56667 km/h
3110 22-12-2019 14:00:00 11.06667 C 8.24 g/m*3 11.07 C 12.9 km/h
3111 22-12-2019 15:00:00 10.44167 C 8.12 g/m*3 8.08 C 18.50833 km/h
3112 22-12-2019 16:00:00 9.34167 C 7.58 g/m*3 7.02 C 15.69167 km/h
3113 22-12-2019 17:00:00 8.16667 C 7.4 g/m*3 5.68 C 14.76667 km/h
3114 22-12-2019 18:00:00 7.825 C 7.3 g/m*3 5.78 C 11.425 km/h
3115 22-12-2019 19:00:00 7.88333 C 7.41 g/m*3 5.84 C 11.43333 km/h
3116 22-12-2019 20:00:00 8.4 C 7.18 g/m*3 6.12 C 13.7 km/h
3117 22-12-2019 21:00:00 8.34167 C 7.16 g/m*3 6.31 C 11.96667 km/h
3118 22-12-2019 22:00:00 7.85 C 7.07 g/m*3 6.6 C 7.51667 km/h
3119 22-12-2019 23:00:00 7.09167 C 7.02 g/m*3 7.09 C 1.33333 km/h
3120 23-12-2019 00:00:00 7.14167 C 7.12 g/m*3 7.14 C 2.26667 km/h
3121 23-12-2019 01:00:00 7.325 C 7.1 g/m*3 6.39 C 6.03333 km/h
3122 23-12-2019 02:00:00 7.35833 C 7.05 g/m*3 5.95 C 7.79167 km/h
3123 23-12-2019 03:00:00 7.15 C 7.04 g/m*3 5.61 C 8.19167 km/h
3124 23-12-2019 04:00:00 7.25833 C 7.1 g/m*3 6.52 C 5.35833 km/h
3125 23-12-2019 05:00:00 7.23333 C 7.19 g/m*3 6.28 C 6.03333 km/h
Sensor: Nr:Datum:Temp:Abs-Feuchte:Windchill:Wind:
Aussen-T/F 3126 23-12-2019 06:00:00 7.21667 C 7.21 g/m*3 6.52 C 5.225 km/h
3127 23-12-2019 07:00:00 7.56667 C 7.36 g/m*3 6.58 C 6.30833 km/h
3128 23-12-2019 08:00:00 7.85833 C 7.35 g/m*3 6.51 C 7.90833 km/h
3129 23-12-2019 09:00:00 8.15833 C 7.37 g/m*3 6.32 C 10.61667 km/h
3130 23-12-2019 10:00:00 7.89167 C 7.48 g/m*3 6.64 C 7.51667 km/h
3131 23-12-2019 11:00:00 8.425 C 7.57 g/m*3 7.03 C 8.6 km/h
3132 23-12-2019 12:00:00 9.28333 C 7.6 g/m*3 8.04 C 8.60833 km/h
3133 23-12-2019 13:00:00 9.125 C 7.76 g/m*3 8.18 C 7.1 km/h
3134 23-12-2019 14:00:00 9.33333 C 7.67 g/m*3 7.94 C 9.40833 km/h
3135 23-12-2019 15:00:00 9.30833 C 7.58 g/m*3 7.74 C 10.35 km/h
3136 23-12-2019 16:00:00 8.99167 C 7.43 g/m*3 7.44 C 9.95 km/h
3137 23-12-2019 17:00:00 8.49167 C 7.17 g/m*3 7.32 C 7.64167 km/h
3138 23-12-2019 18:00:00 8.18333 C 7.08 g/m*3 7.11 C 7 km/h
3139 23-12-2019 19:00:00 7.575 C 7.03 g/m*3 6.72 C 5.89167 km/h
3140 23-12-2019 20:00:00 7.21667 C 7.05 g/m*3 7.22 C 2.93333 km/h
3141 23-12-2019 21:00:00 7.30833 C 7.12 g/m*3 6.33 C 6.16667 km/h
3142 23-12-2019 22:00:00 6.64167 C 6.86 g/m*3 6.64 C 4.00833 km/h
3143 23-12-2019 23:00:00 5.88333 C 6.55 g/m*3 5.88 C 4.54167 km/h
3144 24-12-2019 00:00:00 6.04167 C 6.76 g/m*3 6.04 C 3.6 km/h
3145 24-12-2019 01:00:00 6.325 C 6.83 g/m*3 6.33 C